[[{"header":{"parameterUnit":"m.s-1","parameterCategory":1,"la1":30.6,"la2":29.2853,"lo1":-89.7004,"lo2":-87.6739,"dx":0.0162,"dy":0.0183,"nx":112,"ny":82,"refTime":"2022-12-23T06:00:00:Z","depth":0,"parameterNumber":2,"parameterNumberName":"U-component_of_WINDS"},"data":[0.0,0.0,0.0,0.0,0.0,0.0,0.0,0.0,0.0,0.0,0.0,0.0,0.0,0.0,0.0,0.0,0.0,0.0,0.0,0.0,0.0,0.0,0.0,0.0,0.0,0.0,0.0,0.0,0.0,0.0,0.0,0.0,0.0,0.0,0.0,0.0,0.0,0.0,0.0,0.0,0.0,0.0,0.0,0.0,0.0,0.0,0.0,0.0,0.0,0.0,0.0,0.0,0.0,0.0,0.0,0.0,0.0,0.0,0.0,0.0,0.0,0.0,0.0,0.0,0.0,0.0,0.0,0.0,0.0,0.0,0.0,0.0,0.0,0.0,0.0,0.0,0.0,0.0,0.0,0.0,0.0,0.0,0.0,0.0,0.0,0.0,0.0,0.0,0.0,0.0,5.118,5.2624,5.684,5.8753,5.6957,5.6684,5.2975,4.4426,0.0,0.0,0.0,0.0,0.0,0.0,0.0,0.0,0.0,0.0,0.0,0.0,0.0,0.0,0.0,0.0,0.0,0.0,0.0,0.0,0.0,0.0,0.0,0.0,0.0,0.0,0.0,0.0,0.0,0.0,0.0,0.0,0.0,0.0,0.0,0.0,0.0,0.0,0.0,0.0,0.0,0.0,0.0,0.0,0.0,0.0,0.0,0.0,0.0,0.0,0.0,0.0,0.0,0.0,0.0,0.0,0.0,0.0,0.0,0.0,0.0,0.0,0.0,0.0,0.0,0.0,0.0,0.0,0.0,0.0,0.0,0.0,0.0,0.0,0.0,0.0,0.0,0.0,0.0,0.0,0.0,0.0,0.0,0.0,0.0,0.0,0.0,0.0,0.0,0.0,0.0,0.0,0.0,0.0,0.0,0.0,0.0,0.0,0.0,0.0,0.0,0.0,0.0,0.0,5.0165,5.8168,6.0393,6.0315,5.7816,5.6996,5.321,4.5285,0.0,0.0,0.0,0.0,0.0,0.0,0.0,0.0,0.0,0.0,0.0,0.0,0.0,0.0,0.0,0.0,0.0,0.0,0.0,0.0,0.0,0.0,0.0,0.0,0.0,0.0,0.0,0.0,0.0,0.0,0.0,0.0,0.0,0.0,0.0,0.0,0.0,0.0,0.0,0.0,0.0,0.0,0.0,0.0,0.0,0.0,0.0,0.0,0.0,0.0,0.0,0.0,0.0,0.0,0.0,0.0,0.0,0.0,0.0,0.0,0.0,0.0,0.0,0.0,0.0,0.0,0.0,0.0,0.0,0.0,0.0,0.0,0.0,0.0,0.0,0.0,0.0,0.0,0.0,0.0,0.0,0.0,0.0,0.0,0.0,0.0,0.0,0.0,0.0,0.0,0.0,0.0,0.0,0.0,0.0,0.0,0.0,0.0,0.0,0.0,0.0,0.0,0.0,5.1414,5.4615,6.1759,6.2852,6.2228,6.0119,5.8714,5.4849,4.751,4.4114,0.0,0.0,0.0,0.0,0.0,0.0,0.0,0.0,0.0,0.0,0.0,0.0,0.0,0.0,0.0,0.0,0.0,0.0,0.0,0.0,0.0,0.0,0.0,0.0,0.0,0.0,0.0,0.0,0.0,0.0,0.0,0.0,0.0,0.0,0.0,0.0,0.0,0.0,0.0,0.0,0.0,0.0,0.0,0.0,0.0,0.0,0.0,0.0,0.0,0.0,0.0,0.0,0.0,0.0,0.0,0.0,0.0,0.0,0.0,0.0,0.0,0.0,0.0,0.0,0.0,0.0,0.0,0.0,0.0,0.0,0.0,0.0,0.0,0.0,0.0,0.0,0.0,0.0,0.0,0.0,0.0,0.0,0.0,0.0,0.0,0.0,0.0,0.0,0.0,0.0,0.0,0.0,0.0,0.0,0.0,0.0,0.0,0.0,0.0,0.0,0.0,0.0,5.7855,6.0159,6.3906,6.4297,6.3672,6.2149,6.0393,5.645,4.954,4.5285,0.0,0.0,0.0,0.0,0.0,0.0,0.0,0.0,0.0,0.0,0.0,0.0,0.0,0.0,0.0,0.0,0.0,0.0,0.0,0.0,0.0,0.0,0.0,0.0,0.0,0.0,0.0,0.0,0.0,0.0,0.0,0.0,0.0,0.0,0.0,0.0,0.0,0.0,0.0,0.0,0.0,0.0,0.0,0.0,0.0,0.0,0.0,0.0,0.0,0.0,0.0,0.0,0.0,0.0,0.0,0.0,0.0,0.0,0.0,0.0,0.0,0.0,0.0,0.0,0.0,0.0,0.0,0.0,0.0,0.0,0.0,0.0,0.0,0.0,0.0,0.0,0.0,0.0,0.0,0.0,0.0,0.0,0.0,0.0,0.0,0.0,0.0,0.0,0.0,0.0,0.0,0.0,0.0,0.0,0.0,0.0,0.0,0.0,0.0,0.0,0.0,0.0,6.0041,6.4804,6.4336,6.4297,6.3906,6.3008,6.1291,5.7348,5.0438,4.6729,0.0,0.0,0.0,0.0,0.0,0.0,0.0,0.0,0.0,0.0,0.0,0.0,0.0,0.0,0.0,0.0,0.0,0.0,0.0,0.0,0.0,0.0,0.0,0.0,0.0,0.0,0.0,0.0,0.0,0.0,0.0,0.0,0.0,0.0,0.0,0.0,0.0,0.0,0.0,0.0,0.0,0.0,0.0,0.0,0.0,0.0,0.0,0.0,0.0,0.0,0.0,0.0,0.0,0.0,0.0,0.0,0.0,0.0,0.0,0.0,0.0,0.0,0.0,0.0,0.0,0.0,0.0,0.0,0.0,0.0,0.0,0.0,0.0,0.0,0.0,0.0,0.0,0.0,0.0,0.0,0.0,0.0,0.0,0.0,0.0,0.0,0.0,0.0,0.0,0.0,0.0,0.0,0.0,0.0,0.0,0.0,0.0,0.0,0.0,0.0,0.0,0.0,6.0159,6.4297,6.7185,6.7498,6.6717,6.4765,6.3516,5.9417,5.1414,0.0,0.0,0.0,0.0,0.0,0.0,0.0,0.0,0.0,0.0,0.0,0.0,0.0,0.0,0.0,0.0,0.0,0.0,0.0,0.0,0.0,0.0,0.0,0.0,0.0,0.0,0.0,0.0,0.0,0.0,0.0,0.0,0.0,0.0,0.0,0.0,0.0,0.0,0.0,0.0,0.0,0.0,0.0,0.0,0.0,0.0,0.0,0.0,0.0,0.0,0.0,0.0,0.0,0.0,0.0,0.0,0.0,0.0,0.0,0.0,0.0,0.0,0.0,0.0,0.0,0.0,0.0,0.0,0.0,0.0,0.0,0.0,0.0,0.0,0.0,0.0,0.0,0.0,0.0,0.0,0.0,0.0,0.0,0.0,0.0,0.0,0.0,0.0,0.0,0.0,0.0,0.0,0.0,0.0,0.0,0.0,0.0,0.0,0.0,0.0,0.0,0.0,5.7231,6.1447,6.5194,6.8981,6.9411,6.8474,6.617,6.5194,6.1017,5.2351,0.0,0.0,0.0,0.0,0.0,0.0,0.0,0.0,0.0,0.0,0.0,0.0,0.0,0.0,0.0,0.0,0.0,0.0,0.0,0.0,0.0,0.0,0.0,0.0,0.0,0.0,0.0,0.0,0.0,0.0,0.0,0.0,0.0,0.0,0.0,0.0,0.0,0.0,0.0,0.0,0.0,0.0,0.0,0.0,0.0,0.0,0.0,0.0,0.0,0.0,0.0,0.0,0.0,0.0,0.0,0.0,0.0,0.0,0.0,0.0,0.0,0.0,0.0,0.0,0.0,0.0,0.0,0.0,0.0,0.0,0.0,0.0,0.0,0.0,0.0,0.0,0.0,0.0,0.0,0.0,0.0,0.0,0.0,0.0,0.0,0.0,0.0,0.0,0.0,0.0,0.0,0.0,0.0,0.0,0.0,0.0,0.0,0.0,0.0,0.0,0.0,0.0,5.848,6.4414,6.8474,6.9372,6.945,6.8747,6.699,6.6092,6.1915,0.0,0.0,0.0,0.0,0.0,0.0,0.0,0.0,0.0,0.0,0.0,0.0,0.0,0.0,0.0,0.0,0.0,0.0,0.0,0.0,0.0,0.0,0.0,0.0,0.0,0.0,0.0,0.0,0.0,0.0,0.0,0.0,0.0,0.0,0.0,0.0,0.0,0.0,0.0,0.0,0.0,0.0,0.0,0.0,0.0,0.0,0.0,0.0,0.0,0.0,0.0,0.0,0.0,0.0,0.0,0.0,0.0,0.0,0.0,0.0,0.0,0.0,0.0,0.0,0.0,0.0,0.0,0.0,0.0,0.0,0.0,0.0,0.0,0.0,0.0,0.0,0.0,0.0,0.0,0.0,0.0,0.0,0.0,0.0,0.0,0.0,0.0,0.0,0.0,0.0,0.0,0.0,0.0,0.0,0.0,0.0,0.0,0.0,0.0,0.0,0.0,0.0,0.0,6.0198,6.6756,7.1402,7.2846,7.3041,7.2104,6.9762,6.8215,6.3419,5.42,0.0,0.0,0.0,0.0,0.0,0.0,0.0,0.0,0.0,0.0,0.0,0.0,0.0,0.0,0.0,0.0,0.0,0.0,0.0,0.0,0.0,0.0,0.0,0.0,0.0,0.0,0.0,0.0,0.0,0.0,0.0,0.0,0.0,0.0,0.0,0.0,0.0,0.0,0.0,0.0,0.0,0.0,0.0,0.0,0.0,0.0,0.0,0.0,0.0,0.0,0.0,0.0,0.0,0.0,0.0,0.0,0.0,0.0,0.0,0.0,0.0,0.0,0.0,0.0,0.0,0.0,0.0,0.0,0.0,0.0,0.0,0.0,0.0,0.0,0.0,0.0,0.0,0.0,0.0,0.0,0.0,0.0,0.0,0.0,0.0,0.0,0.0,0.0,0.0,0.0,0.0,0.0,0.0,0.0,0.0,0.0,0.0,0.0,0.0,0.0,0.0,0.0,6.0978,6.7732,7.2534,7.3861,7.4369,7.3398,7.044,6.956,6.5543,5.7106,0.0,0.0,0.0,0.0,0.0,0.0,0.0,0.0,0.0,0.0,0.0,0.0,0.0,0.0,0.0,0.0,0.0,0.0,0.0,0.0,0.0,0.0,0.0,0.0,0.0,0.0,0.0,0.0,0.0,0.0,0.0,0.0,0.0,0.0,0.0,0.0,0.0,0.0,0.0,0.0,0.0,0.0,0.0,0.0,0.0,0.0,0.0,0.0,0.0,0.0,0.0,0.0,0.0,0.0,0.0,0.0,0.0,0.0,0.0,0.0,0.0,0.0,0.0,0.0,0.0,0.0,0.0,0.0,0.0,0.0,0.0,0.0,0.0,0.0,0.0,0.0,0.0,0.0,0.0,0.0,0.0,0.0,0.0,0.0,0.0,0.0,0.0,0.0,0.0,0.0,0.0,0.0,0.0,0.0,0.0,0.0,0.0,0.0,0.0,0.0,0.0,0.0,6.1369,6.8005,7.2612,7.3549,7.4369,7.3481,7.0178,7.0388,6.7851,6.1172,0.0,0.0,0.0,0.0,0.0,0.0,0.0,0.0,0.0,0.0,0.0,0.0,0.0,0.0,0.0,0.0,0.0,0.0,0.0,0.0,0.0,0.0,0.0,0.0,0.0,0.0,0.0,0.0,0.0,0.0,0.0,0.0,0.0,0.0,0.0,0.0,0.0,0.0,0.0,0.0,0.0,0.0,0.0,0.0,0.0,0.0,0.0,0.0,0.0,0.0,0.0,0.0,0.0,0.0,0.0,0.0,0.0,0.0,0.0,0.0,4.7171,0.0,0.0,0.0,0.0,0.0,0.0,0.0,0.0,0.0,0.0,0.0,0.0,0.0,0.0,0.0,0.0,0.0,0.0,0.0,0.0,0.0,0.0,0.0,0.0,0.0,0.0,0.0,0.0,0.0,0.0,0.0,0.0,0.0,0.0,0.0,0.0,0.0,0.0,0.0,0.0,0.0,6.3945,7.0152,7.4564,7.6125,7.6477,7.5735,7.3671,7.1791,6.8633,6.3789,5.9922,0.0,0.0,0.0,0.0,0.0,0.0,0.0,0.0,0.0,0.0,0.0,0.0,0.0,0.0,0.0,0.0,0.0,0.0,0.0,0.0,0.0,0.0,0.0,0.0,0.0,0.0,0.0,0.0,0.0,0.0,0.0,0.0,0.0,0.0,0.0,0.0,0.0,0.0,0.0,0.0,0.0,0.0,0.0,0.0,0.0,0.0,0.0,0.0,0.0,0.0,0.0,0.0,0.0,0.0,0.0,0.0,0.0,0.0,0.0,0.0,4.8162,0.0,0.0,0.0,0.0,0.0,0.0,0.0,0.0,0.0,0.0,0.0,0.0,0.0,0.0,0.0,0.0,0.0,0.0,0.0,0.0,0.0,0.0,0.0,0.0,0.0,0.0,0.0,0.0,0.0,0.0,0.0,0.0,0.0,0.0,0.0,0.0,0.0,0.0,0.0,0.0,6.4297,7.0933,7.5462,7.6438,7.7257,7.6711,7.4207,7.3509,7.1523,6.7617,6.3789,0.0,0.0,0.0,0.0,0.0,0.0,0.0,0.0,0.0,0.0,0.0,0.0,0.0,0.0,0.0,0.0,0.0,0.0,0.0,0.0,0.0,0.0,0.0,0.0,0.0,0.0,0.0,0.0,0.0,0.0,0.0,0.0,0.0,0.0,0.0,0.0,0.0,0.0,0.0,0.0,0.0,0.0,0.0,0.0,0.0,0.0,0.0,0.0,0.0,0.0,0.0,0.0,0.0,5.4491,5.5116,5.5809,5.6522,5.8047,5.9805,5.4805,5.3906,5.5586,0.0,0.0,0.0,0.0,0.0,0.0,0.0,0.0,0.0,0.0,0.0,0.0,0.0,0.0,0.0,0.0,0.0,0.0,0.0,0.0,0.0,0.0,0.0,0.0,0.0,5.9343,5.9729,0.0,0.0,0.0,0.0,0.0,0.0,0.0,0.0,0.0,0.0,0.0,0.0,6.5355,7.1958,7.6326,7.6555,7.7804,7.738,7.4223,7.5152,7.4609,7.1562,6.789,6.5273,0.0,0.0,0.0,0.0,0.0,0.0,0.0,0.0,0.0,0.0,0.0,0.0,0.0,0.0,0.0,0.0,0.0,0.0,0.0,0.0,0.0,0.0,0.0,0.0,0.0,0.0,0.0,0.0,0.0,0.0,0.0,0.0,4.3507,4.5255,0.0,0.0,0.0,0.0,0.0,0.0,0.0,0.0,0.0,0.0,0.0,0.0,0.0,5.265,5.4609,5.6875,5.8476,5.9414,6.168,6.2812,6.2968,6.3047,6.3281,6.3594,6.2773,0.0,5.8633,5.7812,0.0,0.0,0.0,0.0,0.0,0.0,0.0,0.0,0.0,0.0,0.0,0.0,0.0,0.0,0.0,0.0,0.0,0.0,0.0,0.0,0.0,0.0,6.6474,6.7331,6.7789,6.7854,0.0,5.9983,5.3705,5.39,0.0,0.0,0.0,0.0,0.0,0.0,0.0,0.0,7.1295,7.5603,7.8341,7.9137,7.9405,7.8762,7.6834,7.6211,7.539,7.414,7.2851,7.0742,6.7656,6.5508,0.0,0.0,0.0,0.0,0.0,0.0,0.0,0.0,0.0,0.0,0.0,0.0,0.0,0.0,0.0,0.0,0.0,0.0,0.0,0.0,0.0,0.0,0.0,0.0,0.0,0.0,0.0,0.0,0.0,4.2839,4.4711,4.7439,4.5102,4.3112,0.0,0.0,0.0,0.0,0.0,0.0,0.0,0.0,0.0,5.6247,5.6793,5.8319,6.1055,6.2695,6.3945,6.4805,6.6406,6.7187,6.7226,6.7187,6.7187,6.7187,6.7226,6.6367,6.4687,6.1289,5.8047,5.5117,0.0,0.0,0.0,0.0,5.3633,5.3672,5.6836,5.8242,0.0,5.6953,0.0,0.0,0.0,0.0,0.0,0.0,0.0,0.0,0.0,0.0,0.0,6.9019,6.944,6.9533,7.0001,6.6589,6.2656,0.0,5.8905,5.6754,5.1865,0.0,0.0,0.0,0.0,6.8937,7.3447,7.7434,8.0016,8.0381,8.085,8.0464,7.875,7.7851,7.6797,7.543,7.4492,7.3359,7.1875,6.9219,6.5312,0.0,0.0,0.0,0.0,0.0,0.0,0.0,0.0,0.0,0.0,0.0,0.0,0.0,0.0,0.0,0.0,0.0,0.0,0.0,0.0,0.0,0.0,0.0,0.0,0.0,0.0,0.0,0.0,4.5916,4.74,5.0217,4.9016,4.7457,0.0,0.0,0.0,0.0,0.0,0.0,5.4562,5.5695,5.7809,6.1055,6.2187,6.3984,6.6562,6.7226,6.8008,6.8867,6.9453,6.9883,7.0156,7.0078,7.0078,7.0078,7.0117,6.9961,6.9375,6.4648,6.2109,6.0976,5.9023,5.7617,5.6914,5.9336,5.9805,5.9765,6.3398,6.5078,6.5312,6.3359,0.0,6.2109,5.8906,0.0,0.0,0.0,0.0,6.25,6.5508,6.691,6.8078,7.0,7.058,7.0917,7.1542,7.1519,7.0234,0.0,6.5117,6.3046,5.7845,0.0,0.0,0.0,0.0,7.3398,7.6199,7.9746,8.2019,8.1992,8.2578,8.2344,8.082,8.0156,7.9062,7.7305,7.6601,7.5937,7.5273,7.2812,6.9922,6.664,0.0,0.0,0.0,0.0,0.0,0.0,0.0,0.0,0.0,0.0,0.0,0.0,0.0,0.0,0.0,0.0,0.0,0.0,0.0,0.0,0.0,0.0,0.0,0.0,0.0,0.0,0.0,0.0,0.0,5.4843,5.5586,0.0,0.0,0.0,0.0,5.3656,5.4529,5.6484,5.9844,6.1601,6.3789,6.6445,6.8164,6.9101,6.9219,6.9336,6.9765,7.0586,7.0625,7.1055,7.1875,7.1875,7.1875,7.1875,7.1875,7.1406,7.0547,6.9414,6.8008,6.6484,6.6367,6.5273,6.3984,6.5781,6.6406,6.664,6.8437,6.914,6.9219,6.9023,6.7344,6.5351,6.5156,6.4492,0.0,0.0,6.7578,6.9297,7.1133,7.2265,7.2969,7.3086,7.375,7.4336,7.4375,7.375,7.3086,0.0,7.2734,7.1836,6.9023,0.0,7.1367,7.1367,7.4492,7.8086,8.1484,8.3554,8.4687,8.4687,8.4726,8.4414,8.3476,8.3359,8.2617,8.0859,8.0703,7.9609,7.7187,7.6914,7.4453,6.9414,6.664,0.0,0.0,0.0,0.0,0.0,0.0,0.0,0.0,0.0,0.0,0.0,0.0,0.0,0.0,0.0,0.0,0.0,0.0,0.0,0.0,0.0,0.0,0.0,0.0,0.0,0.0,0.0,0.0,5.678,5.7263,0.0,5.5351,5.6523,5.7771,5.8865,6.0781,6.2969,6.5273,6.6523,6.7578,6.8476,6.914,6.9726,7.0234,7.082,7.125,7.1562,7.2656,7.3047,7.2764,7.3861,7.4327,7.4242,7.425,7.4102,7.3704,7.2846,7.0943,6.8555,6.8555,6.8164,6.7734,6.8906,6.9336,6.9492,7.0664,7.1445,7.2031,7.2578,7.2148,7.1406,7.1406,7.1172,7.1055,7.168,7.2305,7.289,7.3515,7.3906,7.414,7.414,7.4805,7.543,7.543,7.5625,7.5976,7.6523,7.5273,7.3476,7.1445,7.4336,7.6601,7.5508,7.875,8.1953,8.375,8.5,8.5742,8.5742,8.5742,8.5625,8.5312,8.4258,8.3086,8.1914,8.1328,8.0351,7.8867,7.8828,7.7422,7.4492,7.3555,6.875,0.0,0.0,0.0,0.0,0.0,0.0,0.0,0.0,0.0,0.0,0.0,0.0,0.0,0.0,0.0,0.0,0.0,0.0,0.0,0.0,0.0,0.0,0.0,0.0,0.0,5.4356,5.6816,5.8541,5.9255,5.9375,5.8828,6.0351,6.1953,6.3359,6.5078,6.6523,6.7695,6.8867,6.9453,6.9414,7.0312,7.1172,7.1992,7.2846,7.3532,7.4156,7.5266,7.5572,7.5236,7.6382,7.6859,7.676,7.6777,7.6638,7.6288,7.5432,7.3678,7.1519,7.1212,7.1069,7.1108,7.1655,7.1906,7.207,7.3008,7.3906,7.4726,7.5273,7.5664,7.5859,7.5586,7.5664,7.5937,7.5937,7.5703,7.5547,7.5859,7.5937,7.5937,7.5937,7.6562,7.7187,7.7187,7.7851,7.8633,7.9219,7.75,7.5742,7.5156,7.8125,8.0195,7.9101,8.2109,8.457,8.4844,8.5937,8.664,8.664,8.664,8.664,8.664,8.5039,8.3906,8.3633,8.2539,8.1601,8.1054,7.9922,7.8633,7.7226,7.6328,7.164,6.3008,0.0,0.0,0.0,0.0,0.0,0.0,0.0,0.0,0.0,0.0,0.0,0.0,0.0,0.0,0.0,0.0,0.0,0.0,0.0,0.0,0.0,0.0,0.0,5.557,5.6973,5.8699,6.0312,6.207,6.3125,6.3086,6.4648,6.6015,6.6875,6.6953,6.6992,6.7031,6.8632,6.9609,6.9687,7.2109,7.3828,7.4687,7.5439,7.6649,7.8335,7.8254,7.8611,7.9338,7.9386,7.939,7.9404,7.9404,7.8965,7.8153,7.7287,7.6436,7.5569,7.4607,7.4209,7.4209,7.4248,7.4343,7.4648,7.5664,7.6562,7.7265,7.7305,7.789,7.8437,7.7617,7.793,7.8594,7.8594,7.7969,7.7461,7.832,7.8555,7.8594,7.8594,7.9219,7.9805,7.9805,8.0508,8.1133,8.1133,7.9844,7.9258,8.082,8.1836,8.2422,8.2422,8.4609,0.0,8.5117,8.6484,8.7539,8.75,8.75,8.75,8.75,8.5937,8.5351,8.6172,8.4648,8.3711,8.3633,8.0469,7.8281,7.7383,7.4726,7.168,6.832,0.0,0.0,0.0,0.0,0.0,0.0,0.0,0.0,0.0,0.0,0.0,0.0,0.0,0.0,0.0,0.0,0.0,0.0,0.0,0.0,0.0,5.7218,5.9283,5.9042,6.1047,6.2695,6.3164,6.4765,6.5586,6.4961,6.5898,6.6914,6.7773,6.7851,6.8633,7.0508,7.2145,7.3315,7.3993,7.5183,7.6253,7.7112,7.7934,7.8593,7.9172,8.0322,8.0661,8.029,8.1451,8.1904,8.1852,8.1852,8.1697,8.1426,8.0575,8.0072,7.9453,7.5697,7.4188,7.4266,7.4906,7.5953,7.719,7.8057,7.8525,7.8823,7.9565,7.9961,8.0273,8.0742,8.0625,8.0312,8.0312,7.9687,7.9062,7.9297,7.9844,8.0312,8.0312,8.1445,8.2539,8.2539,8.3203,8.3828,8.3828,8.3984,8.3828,8.3008,8.414,8.5117,8.5117,8.6289,0.0,8.7617,8.8086,8.8164,8.7578,8.75,8.75,8.75,8.707,8.6875,8.7148,8.6679,8.5859,8.4609,8.3633,8.2422,8.0937,7.6523,7.3164,0.0,0.0,0.0,0.0,0.0,0.0,0.0,0.0,0.0,0.0,0.0,0.0,0.0,0.0,0.0,0.0,0.0,0.0,0.0,0.0,0.0,0.0,6.0583,6.2416,6.3508,6.4334,6.5117,6.5859,6.6172,6.6601,6.7187,6.7031,6.7539,6.914,6.9517,7.0669,7.289,7.4195,7.5404,7.6623,7.7426,7.8435,7.9696,8.0455,8.1075,8.1517,8.2406,8.2716,8.2574,8.3528,8.4134,0.0,8.4405,8.4173,8.3786,8.2935,8.2355,0.0,0.0,0.0,0.0,0.0,7.8744,7.9675,8.0219,8.0686,8.1148,8.2116,8.2456,8.2617,8.3203,8.2773,8.2109,8.2109,8.1719,8.1406,8.1797,8.2265,8.2617,8.2617,8.3398,8.4258,8.4609,8.5351,8.6211,8.6914,0.0,0.0,8.6953,8.707,8.7265,8.7265,8.8008,8.8594,8.8672,8.9023,8.9062,8.8594,8.8554,8.8554,8.8554,8.789,0.0,0.0,0.0,8.6015,8.3906,8.3828,0.0,0.0,0.0,0.0,0.0,0.0,0.0,0.0,6.7539,6.625,0.0,0.0,0.0,0.0,0.0,0.0,0.0,0.0,0.0,0.0,0.0,0.0,0.0,0.0,0.0,0.0,6.3594,6.5586,6.8008,6.7109,6.668,6.8047,6.6992,6.7031,6.9258,6.8238,6.8427,7.077,7.1559,7.2755,7.4706,0.0,0.0,0.0,0.0,8.0615,8.229,8.2948,8.3683,8.4598,8.4443,8.4753,8.5488,8.5449,8.5875,8.661,8.661,8.6145,8.5372,8.4675,8.394,8.3089,8.1968,8.1504,8.1542,8.1722,8.1799,0.0,0.0,0.0,0.0,8.4505,8.4947,8.5151,8.5231,8.4765,8.414,8.414,8.4101,8.4219,8.5,8.5273,8.5312,8.5312,8.5469,8.582,8.6484,8.7304,8.8359,8.9726,9.0078,9.039,9.1172,8.9922,8.8867,8.8867,8.9492,8.9765,8.9062,8.9687,9.0117,9.0,0.0,0.0,9.0,8.8633,8.8125,8.8945,8.7422,8.5429,8.3125,8.2929,8.2461,8.1601,8.082,8.1523,8.375,8.375,8.3359,8.2383,7.3086,7.0781,0.0,0.0,0.0,0.0,0.0,0.0,0.0,0.0,0.0,0.0,0.0,0.0,0.0,0.0,0.0,6.4414,6.6328,6.7851,6.9062,6.9531,6.9336,6.832,6.9101,6.9648,6.9453,7.0275,7.1358,7.254,7.2679,7.4067,7.7214,7.8046,7.954,8.1955,8.2754,8.3644,8.4637,8.4792,8.5333,8.6288,0.0,0.0,8.6494,8.6416,8.6455,8.661,8.661,8.6494,8.6339,8.6184,8.6029,8.5565,8.2664,8.1504,8.1581,8.2316,8.2587,8.2664,8.3399,8.3786,8.4107,8.5038,8.5827,8.6558,8.7415,8.7615,0.0,8.7539,8.7148,8.6797,8.6953,8.7461,8.7969,8.7969,8.9023,8.9922,8.9375,8.9961,9.0469,9.0078,9.0586,9.1094,9.1289,9.0429,8.9765,8.9765,8.9883,9.0195,9.0742,9.0937,9.0781,9.0078,9.0,9.0,9.0,8.9687,8.9883,9.0742,8.9179,8.8008,8.7461,8.6836,8.6094,8.5195,8.5039,8.4844,8.4648,8.4648,8.457,8.4336,8.164,8.0429,0.0,0.0,0.0,0.0,0.0,0.0,0.0,0.0,0.0,0.0,0.0,5.8047,6.0625,0.0,6.4411,6.7107,6.7851,6.8544,6.985,7.0353,7.0314,6.9507,7.0509,7.1214,7.115,7.1862,7.3064,7.4827,7.5255,7.671,7.9713,8.0589,8.2136,8.4727,8.4753,8.5294,8.661,8.6184,8.6184,8.6713,8.661,8.688,8.7383,8.8157,8.8737,8.9201,9.0052,9.0168,8.9782,8.9317,8.9163,8.8931,8.6803,8.5449,8.4753,8.5178,8.5333,8.541,8.5836,8.6029,8.6236,8.7142,8.7769,8.8429,8.9814,8.9972,8.9794,9.0187,9.0055,8.9821,8.9821,9.0094,9.0289,8.9906,9.0533,9.1094,9.0625,9.0937,9.1445,9.1875,9.1953,9.2109,9.2539,9.1875,9.1289,9.1289,9.1289,9.1445,9.1875,9.1953,9.1797,9.1367,9.1289,9.1289,9.1289,9.0898,9.0859,9.1289,9.0403,8.9713,8.926,8.9266,8.8906,8.8008,8.8086,8.7656,8.6797,8.6797,8.6797,8.6797,8.6367,8.5234,0.0,0.0,0.0,0.0,0.0,0.0,0.0,5.329,5.5419,5.8194,5.9876,6.175,6.468,6.5756,6.6927,6.9327,6.9035,6.9107,7.0834,7.1031,7.1031,7.1231,7.1866,7.2577,7.3324,7.3547,7.455,7.6838,7.7843,7.9467,8.202,8.2741,8.4211,8.6764,8.6029,8.63,8.7886,8.7383,8.719,8.7345,8.7499,8.7963,8.8698,9.0052,9.1058,9.1754,9.2953,9.2992,9.2218,9.1484,9.1213,9.1135,9.0439,8.9433,8.8389,8.8196,8.8157,8.8157,8.8157,8.8196,8.8455,8.9306,8.977,9.0284,9.1803,9.1958,9.1732,9.2365,9.2576,9.2615,9.2654,9.2537,9.2226,9.162,9.1582,9.1619,9.1444,9.1601,9.2187,9.3398,9.3086,9.2812,9.3515,9.3086,9.2617,9.2617,9.2617,9.2617,9.2617,9.2617,9.2617,9.2617,9.2617,9.2617,9.2617,9.1953,9.1562,9.1562,9.1295,9.083,9.0112,9.0599,9.0568,8.9844,8.9922,8.9648,8.8945,8.8945,8.8945,8.8945,8.8945,8.7851,5.3382,5.2376,5.2392,5.3768,5.4796,5.6837,0.0,6.234,6.2435,6.5865,6.6693,6.7199,6.833,6.8742,6.9237,7.0287,7.037,7.0911,7.2561,7.2716,7.2894,7.3551,7.3806,7.427,7.5144,7.5802,7.6614,7.7689,7.9119,8.1078,8.3708,8.3902,8.5101,8.7693,8.6919,8.6919,8.7886,8.8582,8.9279,8.9975,9.0749,9.1174,9.129,9.1484,9.16,9.1677,9.1097,9.0362,8.9627,8.9511,8.9472,8.9472,8.9356,8.9665,9.0014,8.9317,8.9047,8.9047,8.9047,8.9047,8.9201,9.0014,9.0826,9.1638,9.2605,9.3427,9.4114,9.4209,9.4326,9.4442,9.4558,9.4016,9.3446,9.3551,9.3594,9.3356,9.2603,9.3047,9.3437,9.2851,9.2656,9.2617,9.2734,9.2656,9.2617,9.2617,9.2617,9.2617,9.2617,9.2617,9.2617,9.2617,9.2617,9.2617,9.2617,9.25,9.2461,9.2461,9.1713,9.122,9.1117,9.0482,9.0085,8.9961,9.0,8.9961,8.9844,8.9844,8.9844,8.9844,8.9844,8.9687,6.0074,5.8449,5.7095,5.8797,6.0248,6.1833,6.3895,6.461,6.558,6.8036,6.858,6.8812,6.9705,6.9833,7.0123,7.1101,7.162,7.2134,7.2839,7.417,7.5136,7.5392,7.6359,7.6746,7.6103,7.7225,7.8539,7.9893,8.1078,8.2625,8.4675,8.5294,8.6494,8.8582,8.8312,8.8776,9.0091,9.0478,9.0555,9.04,9.0787,9.071,9.0284,9.1251,9.2218,9.3108,9.276,9.2412,9.2102,9.2102,9.2102,9.2102,9.2102,9.2296,9.2373,9.0555,9.0207,9.0633,9.0633,9.0633,9.071,9.1058,9.1406,9.187,9.276,9.3302,9.3727,9.4191,9.4385,9.4423,9.4501,9.4201,9.3853,9.3466,9.3426,9.3257,9.2393,9.294,9.3513,9.3162,9.3536,9.4101,9.4609,9.4804,9.5039,9.5508,9.3867,9.2599,9.2596,9.2549,9.2611,9.3027,9.3084,9.3279,9.3786,9.4285,9.4363,9.3864,9.4301,9.3996,9.2577,9.2658,9.2326,9.1404,9.1486,9.125,9.0742,9.0742,9.0742,9.0742,9.0742,9.1015,6.3478,6.2472,6.1311,6.2743,6.4618,6.5972,6.5296,6.6165,6.7557,6.9048,6.9336,6.9607,7.0496,7.0805,7.1164,7.1894,7.264,7.3296,7.379,7.5407,7.6683,7.7055,7.8641,7.9183,7.7945,7.895,8.0382,8.2084,8.3012,8.4327,8.6261,8.6958,8.8234,9.0168,8.9782,9.0091,9.1329,9.16,9.1367,9.0749,9.1213,9.1135,9.0633,9.2064,9.3263,9.4191,9.4462,9.4307,9.3882,9.4114,9.4075,9.3882,9.4114,9.4191,9.3959,9.2141,9.1832,9.2373,9.2373,9.2373,9.2412,9.2683,9.276,9.2915,9.3766,9.4037,9.4153,9.4733,9.4926,9.4965,9.5236,9.5158,9.4888,9.4578,9.4408,9.4147,9.3486,9.392,9.4446,9.4446,9.4849,9.541,9.6032,9.6075,9.6192,9.6778,9.4786,9.3359,9.3877,9.3611,9.3581,9.4076,9.3901,9.4018,9.464,9.5477,9.5632,9.4757,9.6165,9.6173,9.4201,9.4951,9.4885,9.3843,9.3888,9.3672,9.3086,9.3086,9.3086,9.3086,9.3086,9.3398,6.1427,6.2394,6.3787,6.4677,6.6804,6.87,6.8661,6.87,6.897,6.9783,6.9976,7.0247,7.1098,7.2065,7.2723,7.2761,7.3419,7.4541,7.6258,7.6436,7.7016,7.8718,8.042,8.1387,8.1349,8.1387,8.2161,8.3902,8.4753,8.6339,8.8931,8.9124,9.0284,9.2799,9.1251,9.04,9.0439,9.129,9.1677,9.1677,9.3302,9.4075,9.4075,9.4965,9.4965,9.423,9.5081,9.4539,9.3108,9.3882,9.3727,9.3108,9.3882,9.4191,9.4191,9.4114,9.4114,9.4114,9.4114,9.4114,9.4269,9.512,9.539,9.5545,9.6435,9.6667,9.6706,9.6706,9.6706,9.6938,9.7935,9.7548,9.7131,9.8128,9.7702,9.7083,9.7045,9.7045,9.7083,9.7092,9.6474,9.5998,9.6008,9.5314,9.4768,9.4768,9.469,9.5281,9.7131,9.6512,9.5912,9.5912,9.5187,9.4694,9.4694,9.5516,9.5602,9.4751,9.6259,9.68,9.5988,9.6719,9.7171,9.7343,9.7343,9.7383,9.75,9.75,9.75,9.75,9.75,9.7539,6.4097,6.4522,6.518,6.7694,6.9396,7.0595,7.1175,7.1756,7.2258,7.2529,7.2607,7.2839,7.369,7.3651,7.369,7.4231,7.5044,7.5817,7.6397,7.7867,7.9337,8.0536,8.1658,8.2819,8.3902,8.3554,8.3708,8.4792,8.6223,8.7654,8.9124,9.0246,9.1251,9.2102,9.2141,9.2141,9.2141,9.3534,9.3921,9.334,9.3379,9.3108,9.2567,9.2837,9.2837,9.2567,9.2837,9.2644,9.2218,9.307,9.3224,9.3147,9.4501,9.5042,9.512,9.57,9.5932,9.5739,9.4578,9.4191,9.423,9.4539,9.5042,9.5429,9.5158,9.5468,9.5932,9.5932,9.5932,9.6164,9.7054,9.6667,9.6087,9.6435,9.5816,9.5197,9.5197,9.5661,9.6087,9.6087,9.6366,9.6841,9.7445,9.7392,9.7431,9.7896,9.6101,9.4899,9.5438,9.5206,9.5158,9.5652,9.5429,9.5468,9.6048,9.6869,9.7024,9.6134,9.7178,9.7217,9.5872,9.6073,9.6019,9.5631,9.573,9.5781,9.5859,9.5976,9.6054,9.6054,9.6054,9.6054,6.7268,6.7423,6.7539,7.0634,7.1794,7.2375,7.2955,7.3496,7.3999,7.427,7.3844,7.3767,7.4889,7.4695,7.4811,7.6281,7.7481,7.8448,7.9067,8.0575,8.1813,8.2355,8.3167,8.425,8.5643,8.5875,8.6145,8.6648,8.8002,8.9433,9.0903,9.1754,9.2451,9.3031,9.3031,9.2992,9.2992,9.4075,9.4462,9.4191,9.3379,9.2876,9.2605,9.2915,9.307,9.3108,9.3727,9.3804,9.3611,9.4772,9.5081,9.4965,9.6319,9.686,9.6938,9.7479,9.7673,9.7402,9.5352,9.4655,9.4655,9.4655,9.5042,9.5429,9.5197,9.5506,9.5971,9.5971,9.5971,9.6164,9.7054,9.686,9.6512,9.6783,9.6435,9.6009,9.6009,9.6474,9.686,9.686,9.717,9.7595,9.8098,9.8089,9.8089,9.8554,9.6792,9.564,9.6134,9.5971,9.5971,9.6396,9.6164,9.6203,9.6744,9.7595,9.7711,9.686,9.7905,9.7943,9.6598,9.683,9.683,9.6452,9.6542,9.6621,9.6758,9.6875,9.6992,9.7031,9.7031,9.7031,7.0402,7.075,7.0789,7.3342,7.3999,7.4038,7.4077,7.4115,7.4347,7.5044,7.3883,7.3264,7.4811,7.516,7.6011,7.8525,8.0382,8.2084,8.3747,8.4018,8.4134,8.4173,8.4869,8.572,8.6648,8.8312,8.9356,8.9433,9.013,9.16,9.4075,9.3534,9.3843,9.539,9.3882,9.3031,9.2992,9.3108,9.3495,9.4269,9.3495,9.3534,9.4269,9.512,9.5506,9.5661,9.7325,9.7557,9.6938,9.8562,9.8794,9.8176,9.8988,9.9259,9.9259,9.9259,9.922,9.8833,9.6358,9.5545,9.5623,9.5623,9.5623,9.5777,9.6551,9.6822,9.686,9.686,9.686,9.7054,9.7943,9.8137,9.8292,9.9065,9.922,9.9181,9.9181,9.9181,9.9181,9.9181,9.8601,9.8098,9.8137,9.7479,9.6938,9.6938,9.6938,9.7479,9.8988,9.8524,9.806,9.8098,9.7363,9.686,9.6938,9.7634,9.775,9.6938,9.833,9.8833,9.806,9.8756,9.9259,9.9444,9.9482,9.9638,9.9959,9.996,10.0,10.0195,10.0195,10.0195,7.0905,7.2104,7.3226,7.4502,7.5276,7.5933,7.6591,7.7248,7.7403,7.6281,7.574,7.5353,7.516,7.5624,7.6514,7.7829,7.9995,8.1658,8.2122,8.3283,8.4327,8.4908,8.5759,8.688,8.8389,9.0052,9.1561,9.2837,9.2567,9.2876,9.4114,9.4617,9.4772,9.4539,9.4114,9.3611,9.3031,9.423,9.4965,9.5158,9.4965,9.4965,9.5158,9.539,9.5855,9.6474,9.6938,9.7015,9.686,9.7943,9.8292,9.8176,9.8988,9.8949,9.8408,9.8408,9.7982,9.7247,9.5932,9.6358,9.7441,9.7441,9.7441,9.7363,9.6938,9.7247,9.7789,9.7789,9.7789,9.7943,9.8794,9.8562,9.8137,9.8369,9.7905,9.7441,9.7441,9.7441,9.7441,9.7441,9.7789,9.8292,9.8911,9.8833,9.8678,9.8678,9.8678,9.8369,9.7557,9.7247,9.7363,9.8021,9.7905,9.8021,9.8601,9.833,9.8021,9.7789,9.7557,9.7363,9.7131,9.7325,9.7441,9.7518,9.7595,9.7689,9.7804,9.8033,9.8164,9.8203,9.832,9.8359,7.3187,7.4231,7.5198,7.6049,7.6591,7.6978,7.7094,7.7519,7.7365,7.5662,7.5005,7.4579,7.4077,7.5624,7.7365,7.8602,8.1581,8.3863,8.425,8.514,8.5952,8.6377,8.688,8.8002,9.0091,9.1484,9.2799,9.4114,9.3766,9.4075,9.5274,9.4733,9.4501,9.4772,9.4075,9.3804,9.4075,9.4655,9.5313,9.6087,9.5661,9.5893,9.6628,9.6628,9.7092,9.7905,0.0,9.8253,9.7943,9.8833,9.8988,9.8678,9.9143,9.9027,9.864,9.864,9.833,9.7827,9.7325,9.7595,9.7982,9.7209,9.6976,9.6938,9.6822,9.7131,9.7518,9.7518,9.7518,9.7634,9.8098,9.7866,9.7518,9.7518,9.717,9.6783,9.6783,9.6783,9.6899,9.7286,9.806,9.8756,9.922,9.9297,9.9297,9.9297,9.9297,9.8949,9.8021,9.7905,9.8098,9.8562,9.864,9.8833,9.9259,9.8911,9.864,9.864,9.8176,9.775,9.7402,9.7363,9.7209,9.6822,9.686,9.6938,9.6976,9.7284,9.7425,9.75,9.7656,9.7695,7.6011,7.6475,7.6746,7.7519,7.7867,7.779,7.6784,7.6475,7.5856,7.396,7.2877,7.222,7.2104,7.4889,7.779,7.9569,8.336,8.6455,8.7422,8.777,8.7925,8.7925,8.8002,8.9047,9.1445,9.2373,9.3224,9.4114,9.4114,9.4733,9.6358,9.4346,9.3882,9.5429,9.4075,9.4037,9.5468,9.4965,9.5468,9.6976,9.6319,9.686,9.8446,9.8446,9.8794,9.9529,0.0,0.0,9.9375,10.011,9.9994,9.9297,9.9297,9.9297,9.9297,9.9297,9.9375,9.9491,9.9491,9.9104,9.8292,9.6435,9.5777,9.5816,9.6551,9.6783,9.6822,9.6938,9.6976,9.7015,9.7092,9.7131,9.7131,9.7131,9.7131,9.7131,9.7131,9.7131,9.7402,9.8253,9.8988,9.9529,9.9645,9.9645,9.9645,9.9645,9.9645,9.9645,9.9645,9.9452,9.9336,9.9452,9.9491,9.9529,9.9645,9.9529,9.9491,9.9491,9.9375,9.8988,9.8292,9.8253,9.7905,9.717,9.7131,9.717,9.7325,9.7518,9.7693,9.7809,9.7968,9.8047,7.632,7.6939,7.7519,7.7674,7.8757,7.9376,7.7829,7.69,7.5508,7.2375,7.1059,7.0247,6.9589,7.2258,7.5353,7.7751,8.1117,8.3979,8.5526,8.6996,8.7925,8.7925,8.8544,8.9704,9.1522,9.1832,9.2567,9.4075,9.3572,9.3611,9.4578,9.423,9.4462,9.5468,9.5236,9.5197,9.5506,9.6783,9.7595,9.7866,9.8408,9.9181,10.0187,10.0187,10.0187,10.038,10.0496,0.0,9.9297,9.9452,9.9452,9.9297,9.9297,9.9297,9.9297,9.9297,9.9762,10.038,10.038,10.0806,10.0806,9.8446,9.717,9.659,9.6744,9.6783,9.6938,9.7673,9.7866,9.8021,9.8678,9.8872,9.8872,9.8872,9.8872,9.8872,9.8872,9.8872,9.9104,9.9994,10.0303,10.0613,10.1309,10.1386,10.1386,10.1386,10.1386,10.1386,10.1386,10.0187,9.9568,10.0303,10.038,10.069,10.1386,10.0806,10.038,10.038,9.9684,9.9259,9.9104,9.9104,9.9027,9.8872,9.8872,9.8872,9.8911,9.9104,9.9289,9.9422,9.9594,9.9726,7.6939,7.7365,7.7906,7.8796,7.9608,7.9531,7.6939,7.5701,7.3999,7.0131,6.897,6.8429,6.7617,7.0982,7.4425,7.6088,8.0343,8.4057,8.5759,8.7499,8.8737,8.9163,8.9201,9.0052,9.218,9.1986,9.2218,9.3495,9.3224,9.334,9.4153,9.4617,9.5081,9.5468,9.5932,9.6396,9.686,9.7673,9.833,9.8717,9.9143,9.9762,10.0613,10.011,10.0187,10.0613,10.011,0.0,9.8678,9.8678,9.8408,9.806,9.8485,9.8678,9.8717,9.9143,9.9839,10.0613,10.0613,10.1193,10.1696,10.0496,9.9491,9.8794,9.8794,9.8794,9.8872,9.9259,9.9723,10.011,9.9994,9.9994,9.9878,9.9413,9.9297,9.9297,9.9297,9.9645,10.011,10.0496,10.0999,10.1386,10.1812,10.1889,10.1889,10.1889,10.1889,10.1889,10.1889,10.1193,10.0806,10.1193,10.1309,10.1386,10.1889,10.1502,10.1309,10.1309,10.0883,10.0419,9.9994,9.9994,9.9762,9.9297,9.9297,9.9297,9.9297,9.9491,9.9665,9.9802,9.9985,10.0195,7.7442,7.7829,7.8332,7.984,8.0343,7.9531,7.5933,7.4193,7.2142,6.7849,6.6804,6.6572,6.6263,6.9976,7.3612,7.5392,7.9956,8.4057,8.63,8.8234,8.9704,9.0323,8.982,9.0323,9.2528,9.1793,9.16,9.2644,9.307,9.3611,9.4423,9.512,9.5661,9.6048,9.6706,9.7402,9.8098,9.8292,9.8756,9.9568,9.9413,9.9762,10.0613,9.9684,9.9568,9.9994,9.9336,0.0,0.0,9.8098,9.7789,9.7402,9.8098,9.8601,9.8988,9.9607,10.0613,10.1696,10.1696,10.2315,10.3011,10.3011,10.2005,10.0883,10.0883,10.0883,10.0883,10.1077,10.1696,10.2082,10.1502,10.1386,10.1193,10.0613,10.0419,10.0419,10.0419,10.0883,10.1386,10.1193,10.1696,10.2082,10.1889,10.1889,10.1889,10.1889,10.1889,10.1889,10.1889,10.1889,10.1889,10.1889,10.1889,10.1889,10.1889,10.1889,10.1889,10.1889,10.1889,10.158,10.0883,10.0883,10.0613,9.9878,9.9878,9.9878,9.9878,9.9994,10.0187,10.0295,10.0514,10.0699,7.7442,7.8293,7.9105,7.9995,8.0807,8.0304,7.6049,7.3264,7.0324,6.6108,6.4599,6.4483,6.5915,6.8468,7.191,7.6668,7.9183,8.1968,8.6029,8.8737,9.0323,9.04,9.0323,9.0671,9.1716,9.0362,9.0091,9.1716,9.3224,9.4462,9.5313,9.5468,9.6241,9.7827,9.7943,9.8021,9.8098,9.8833,9.9607,10.0496,9.9684,9.9762,10.0613,9.9684,9.8949,9.833,9.8253,0.0,0.0,9.8098,9.8485,9.9104,9.9181,10.0187,10.158,10.158,10.3204,10.5216,10.5216,10.5796,10.6492,10.6492,10.4403,10.1812,10.1812,10.1812,10.1889,10.2701,10.3011,10.3204,10.3901,10.4094,10.4017,10.4017,10.3901,10.3901,10.3901,10.4017,10.3784,10.3088,10.3011,10.2817,10.2005,10.1889,10.1889,10.1889,10.1889,10.1889,10.1889,10.1889,10.1889,10.1889,10.1889,10.1889,10.1889,10.1889,10.1889,10.1889,10.1889,10.1889,10.1812,10.1812,10.1696,10.1696,10.1696,10.1696,10.1696,10.1696,10.1812,10.192,10.211,10.2295,7.8254,7.9105,7.9918,8.0769,8.0498,7.9028,7.5237,7.1988,6.9009,6.6301,6.4638,6.4367,6.6572,6.8236,7.0634,7.4734,7.7713,8.0614,8.3863,8.6958,8.9279,9.0284,8.9975,9.04,9.2296,9.0942,9.0633,9.2335,9.3534,9.5042,9.6976,9.6551,9.6822,9.806,9.7595,9.7557,9.8098,9.8408,9.8988,9.98,9.9491,9.9491,9.98,9.8949,9.8678,9.8794,9.833,0.0,0.0,9.8833,9.9027,9.9413,10.0496,10.1309,10.2005,10.3011,10.4017,10.4906,10.4906,10.51,10.5487,10.5989,10.5293,10.421,10.421,10.421,10.4287,10.4597,10.51,10.5409,10.5216,10.479,10.4403,10.4403,10.4403,10.4403,10.4403,10.4403,10.4287,10.4017,10.3901,10.3707,10.2817,10.2701,10.2508,10.2005,10.1889,10.1889,10.1889,10.1889,10.1889,10.1889,10.1889,10.1889,10.1889,10.1889,10.1889,10.1889,10.1889,10.1889,10.1889,10.1889,10.1889,10.1889,10.1889,10.1889,10.1889,10.1889,10.2005,10.2307,10.2383,10.2507,7.9299,7.9956,8.042,8.1271,8.0227,7.8099,7.4695,7.1253,6.8158,6.5915,6.4522,6.4406,6.6688,6.8042,7.0015,7.3651,7.6475,7.9453,8.3051,8.5836,8.8234,9.0168,8.9898,9.0246,9.2064,9.16,9.1677,9.2915,9.423,9.5777,9.7634,9.7363,9.7557,9.8446,9.7634,9.7479,9.8098,9.8098,9.8485,9.9297,9.8794,9.8717,9.8949,9.8369,9.8408,9.8949,9.8601,0.0,0.0,9.9684,9.9839,10.0187,10.1386,10.2082,10.2508,10.3901,10.4597,10.479,10.51,10.5216,10.5293,10.5912,10.6105,10.6105,10.6105,10.6105,10.6105,10.6105,10.6492,10.6879,10.6183,10.5603,10.5216,10.5216,10.5216,10.5216,10.5216,10.5216,10.51,10.479,10.479,10.4519,10.3707,10.3398,10.3011,10.2392,10.2082,10.1889,10.1889,10.1889,10.1889,10.1889,10.1889,10.1889,10.1889,10.1889,10.1889,10.1889,10.1889,10.1889,10.1889,10.1889,10.1889,10.1889,10.1889,10.1889,10.1889,10.1889,10.2005,10.2276,10.2406,10.2707,8.0536,8.0846,8.042,8.1271,8.0227,7.8099,7.4695,7.1253,6.7849,6.4406,6.371,6.4213,6.5915,6.7617,7.017,7.4425,7.5856,7.8486,8.4443,8.6068,8.7577,9.0091,9.04,9.04,9.04,9.1986,9.2992,9.2992,9.5352,0.0,9.6822,9.7634,9.8446,9.9259,9.8524,9.8098,9.8098,9.8098,9.8485,9.9297,9.7634,9.7286,9.8098,9.8098,9.8098,0.0,0.0,0.0,0.0,10.0613,10.1077,10.1889,10.1889,10.2392,10.3282,10.4094,10.4906,10.5796,10.6686,10.6995,10.6995,10.6995,10.6995,10.6995,10.6995,10.6995,10.6995,10.6995,10.6995,10.6995,10.6995,10.6995,10.6995,10.6995,10.6995,10.6995,10.6995,10.6995,10.6686,10.5912,10.5719,10.5409,10.4519,10.3707,10.3204,10.3204,10.2508,10.1889,10.1889,10.1889,10.1889,10.1889,10.1889,10.1889,10.1889,10.1889,10.1889,10.1889,10.1889,10.1889,10.1889,10.1889,10.1889,10.1889,10.1889,10.1889,10.1889,10.1889,10.2005,10.2114,10.2303,10.2978,7.6823,7.779,7.8409,7.8099,7.6746,7.4928,7.2645,6.9473,6.6727,6.5644,6.4948,6.5257,6.7578,6.8893,7.1214,7.6088,7.7597,7.9647,8.3902,8.6726,8.8892,9.0246,9.1948,9.276,9.2218,9.2141,9.2605,9.3727,9.4578,9.5816,9.7595,9.7402,9.7595,9.8446,9.7634,9.7209,9.7209,9.7209,9.7325,9.7595,9.7054,9.7247,9.8098,9.8098,9.8717,0.0,0.0,0.0,0.0,10.2082,10.2199,10.2005,10.2585,10.3011,10.3282,10.4094,10.421,10.4017,10.4287,10.4017,10.3591,10.421,10.4403,10.4481,10.51,10.6105,10.6995,10.6995,10.6995,10.6995,10.6995,10.6995,10.6995,10.6995,10.6995,10.6995,10.6995,10.6995,10.6879,10.6608,10.6608,10.6299,10.5409,10.51,10.4519,10.3398,10.3011,10.2585,10.2005,10.1889,10.1889,10.1889,10.1889,10.1889,10.1889,10.1889,10.1889,10.1889,10.1889,10.1889,10.1889,10.1889,10.1889,10.1889,10.1889,10.1889,10.1889,10.1889,10.2007,10.2303,10.2519,10.28,7.4966,7.6397,7.7094,7.6552,7.4889,7.3032,7.1601,6.8661,6.6108,6.5799,6.5605,6.6031,6.7965,6.9241,7.1253,7.516,7.6514,7.8718,8.3438,8.5643,8.7693,9.0091,9.1793,9.2683,9.2528,9.2605,9.307,9.4114,9.4501,9.5545,9.7518,9.7092,9.6899,9.7092,9.6899,9.6783,9.6783,9.6783,9.6783,9.6783,9.7131,9.7557,9.8137,9.8756,9.9607,0.0,0.0,0.0,0.0,10.2817,10.2895,10.2392,10.3011,10.3204,10.3282,10.3784,10.3591,10.3204,10.3514,10.3282,10.2895,10.3514,10.3707,10.3707,10.421,10.5216,10.6183,10.6802,10.6802,10.6608,10.6879,10.6995,10.6995,10.6995,10.6995,10.6995,10.6995,10.6995,10.6995,10.6995,10.6995,10.6802,10.6299,10.5912,10.5293,10.4287,10.3591,10.3011,10.2508,10.2082,10.1889,10.1889,10.1889,10.1889,10.1889,10.1889,10.1889,10.1889,10.1889,10.1889,10.1889,10.1889,10.1889,10.1889,10.1889,10.1889,10.1889,10.2005,10.2096,10.2399,10.2491,10.289,0.0,7.5817,7.5933,7.5856,7.4077,7.2104,7.1214,6.8506,0.0,6.5218,6.5682,6.6533,6.7578,6.897,7.0672,7.2723,7.3728,7.663,8.3322,8.3786,8.5294,9.0246,9.071,9.0942,9.187,9.3263,9.4153,9.4191,9.4965,9.5816,9.6744,9.6783,9.6435,9.5623,9.6396,9.6783,9.6706,9.6783,9.6822,9.6899,9.7711,9.8176,9.833,9.9878,10.0613,0.0,0.0,0.0,0.0,10.2817,10.3204,10.3088,10.3088,10.3088,10.3088,10.3088,10.3088,10.3204,10.4017,10.421,10.421,10.421,10.421,10.421,10.4287,10.4403,10.4713,10.6415,10.6299,10.5912,10.6686,10.6995,10.6995,10.6995,10.6995,10.6995,10.6995,10.6995,10.6995,10.6995,10.6995,10.6995,10.6995,10.6299,10.5796,10.5719,10.4287,10.3282,10.3204,10.2392,10.1889,10.1889,10.1889,10.1889,10.1889,10.1889,10.1889,10.1889,10.1889,10.1889,10.1889,10.1889,10.1889,10.1889,10.1889,10.1889,10.1889,10.2005,10.2199,10.2384,10.2488,10.3083,6.7849,0.0,7.1369,7.075,7.0131,6.9473,0.0,6.7268,6.6147,6.5953,6.6069,6.7075,6.9899,7.017,7.164,7.6668,7.7674,7.9724,8.5256,8.8079,9.1019,9.4849,9.3572,9.2953,9.4462,9.3804,9.3534,9.4153,9.4385,9.5158,9.6706,9.6783,9.6706,9.6512,9.6706,9.6474,9.5816,9.6474,9.7131,9.7789,9.7982,9.8756,9.9994,10.038,10.0999,0.0,0.0,0.0,10.2005,10.2817,10.2817,10.2199,10.2199,10.2199,10.2199,10.2199,10.2199,10.2199,10.2392,10.2508,10.2508,10.2508,10.2508,10.2585,10.3282,10.3901,10.4519,10.4906,10.5293,10.5719,10.5989,10.6492,10.6995,10.6995,10.6995,10.6995,10.6995,10.6995,10.6995,10.6995,10.6995,10.6995,10.6995,10.6802,10.6492,10.5796,10.479,10.3901,10.3282,10.2392,10.1889,10.1889,10.1889,10.1889,10.1889,10.1889,10.1889,10.1889,10.1889,10.1889,10.1889,10.1889,10.1889,10.1889,10.1889,10.1889,10.1889,10.2005,10.2199,10.2423,10.2514,10.2811,6.518,6.7501,6.9435,6.9357,6.9087,6.87,6.8197,6.7114,6.6185,6.6185,6.6843,6.7965,6.9821,7.1678,7.3883,7.6746,7.9531,8.2973,8.7693,9.0942,9.3688,9.5932,9.5004,9.4501,9.539,9.4307,9.3882,9.4733,9.4423,9.4965,9.6706,9.6783,9.6435,9.5623,9.5971,9.6164,9.6087,9.6551,9.7247,9.8098,9.8485,9.9336,10.0613,10.0999,10.1502,0.0,0.0,0.0,10.2005,10.2817,10.2895,10.2508,10.2508,10.2508,10.2392,10.2005,10.1889,10.1889,10.1889,10.1889,10.1889,10.1889,10.1889,10.2005,10.2508,10.2895,10.3514,10.4713,10.5022,10.5293,10.6105,10.6608,10.6995,10.6995,10.6995,10.6995,10.6995,10.6995,10.6995,10.6995,10.6995,10.6995,10.6995,10.6995,10.6802,10.6415,10.5216,10.421,10.3784,10.2701,10.1889,10.1889,10.1889,10.1889,10.1889,10.1889,10.1889,10.1889,10.1889,10.1889,10.1889,10.1889,10.2082,10.2508,10.2082,10.2082,10.2508,10.2199,10.2078,10.242,10.2497,10.2601,6.4638,6.7152,6.9203,6.9357,6.9125,6.8777,6.8622,6.7578,6.6611,6.6611,6.7771,6.9125,7.017,7.3574,7.6281,7.663,8.1155,8.6029,8.9859,9.2489,9.4423,9.5545,9.5468,9.5352,9.5468,9.4694,9.4501,9.5236,9.4617,9.4965,9.6706,9.6783,9.6125,9.4617,9.5313,9.6048,9.6783,9.6783,9.7286,9.8292,9.9104,9.9955,10.0806,10.158,10.1889,10.1889,0.0,0.0,10.2005,10.2701,10.3011,10.3011,10.3011,10.3011,10.2895,10.2199,10.1889,10.1889,10.1889,10.1889,10.1889,10.1889,10.1889,10.1889,10.1889,10.1889,10.2392,10.4713,10.479,10.4597,10.6183,10.6686,10.6802,10.6995,10.6995,10.6995,10.6995,10.6995,10.6995,10.6995,10.6995,10.6995,10.6995,10.6995,10.6995,10.6995,10.5487,10.4403,10.4403,10.2895,10.1889,10.1889,10.1889,10.1889,10.1889,10.1889,10.1889,10.1889,10.1889,10.1889,10.1889,10.1889,10.2315,10.3204,10.2508,10.2508,10.3398,10.2508,10.2306,10.2594,10.2514,10.2585,6.5141,6.839,7.0247,6.7462,6.781,6.8622,6.7887,6.8081,6.839,6.839,6.8622,7.0556,7.6359,7.6281,7.7171,8.2819,8.5759,8.8041,9.0091,9.2025,9.4037,9.6319,9.5313,9.4694,9.5429,9.4694,9.4269,9.4385,9.4269,9.4965,9.6706,9.6783,9.6667,9.6396,9.6512,9.6667,9.6783,9.6783,9.7595,9.9143,9.9994,10.0883,10.1696,10.1812,10.1889,0.0,0.0,10.1889,10.1889,10.2005,10.2082,10.2082,10.2082,10.2082,10.2082,10.1889,10.1889,10.1889,10.1889,10.1889,10.1889,10.1889,10.1889,10.1889,10.1889,10.1889,10.2082,10.3282,10.3514,10.3591,10.4597,10.5293,10.6105,10.6802,10.6995,10.6995,10.6995,10.6995,10.6995,10.6995,10.6995,10.6995,10.6995,10.6995,10.6995,10.6995,10.5487,10.4403,10.4403,10.2895,10.1889,10.1889,10.1889,10.1889,10.1889,10.1889,10.1889,10.1889,10.1889,10.1889,10.1889,10.1889,10.2315,10.3204,10.3088,10.3398,10.421,10.3507,10.322,10.322,10.2811,10.2615,6.3594,6.6301,6.8622,6.8893,7.1678,7.4309,7.4347,7.396,7.3496,7.2993,7.3264,7.4579,7.7713,7.9221,8.2045,8.8428,8.9743,9.0555,9.2218,9.3147,9.4423,9.6551,0.0,9.5236,9.6125,9.4578,9.3921,9.481,0.0,0.0,9.6706,9.6783,9.6783,9.6783,9.5893,9.5855,9.6783,9.6783,9.7634,9.9297,10.0187,10.1077,10.1889,10.1889,10.1889,10.1889,0.0,10.1889,10.1889,10.1889,10.1889,10.1889,10.1889,10.1889,10.1889,10.1889,10.1889,10.1889,10.1889,10.1889,10.1889,10.1889,10.1889,10.1889,10.1889,10.1889,10.2005,10.2392,10.2817,10.3398,10.421,10.4713,10.5216,10.6105,10.6299,10.6415,10.6879,10.6995,10.6995,10.6995,10.6995,10.6995,10.6995,10.6995,10.6802,10.6415,10.5216,10.421,10.3784,10.2701,10.1889,10.1889,10.1889,10.1889,10.1889,10.1889,10.1889,10.1889,10.1889,10.1889,10.1889,10.1889,10.2315,10.3204,10.3204,10.3398,10.3784,10.3398,10.312,10.2694,10.2572,10.2499,6.3207,6.5605,6.8468,7.1678,7.485,7.7713,7.9724,7.8757,7.7442,7.7558,7.8293,7.9067,7.9685,8.3128,8.7383,9.1948,9.2141,9.2218,9.3688,9.3921,9.4462,9.6009,9.5584,9.539,9.5855,9.4153,9.3534,9.481,0.0,0.0,9.6706,9.6976,9.7209,9.7363,9.57,9.5623,9.7363,9.7209,9.7827,9.9297,10.038,10.1309,10.1889,10.1889,10.1889,10.1889,10.1889,10.1889,10.1889,10.1889,10.1889,10.1889,10.1889,10.1889,10.1889,10.1889,10.1889,10.1889,10.1889,10.1889,10.1889,10.1889,10.1889,10.1889,10.1889,10.1889,10.1889,10.1889,10.2392,10.3088,10.4094,10.4287,10.4403,10.5409,10.5525,10.5603,10.6183,10.6608,10.6686,10.6686,10.6879,10.6995,10.6995,10.6802,10.6492,10.5796,10.479,10.3901,10.3282,10.2392,10.1889,10.1889,10.1889,10.1889,10.1889,10.1889,10.1889,10.1889,10.1889,10.1889,10.1889,10.2082,10.2508,10.3204,10.3591,10.3784,10.3784,10.3591,10.3204,10.2585,10.2508,10.2494,6.6263,6.9589,7.2761,7.5392,7.3922,7.3303,7.8912,7.8293,7.7365,8.0498,8.1813,8.3167,8.5526,8.8814,9.129,9.1716,9.1754,9.2025,9.2953,9.3108,9.3418,9.4269,9.4307,9.3998,9.334,9.3108,0.0,0.0,0.0,0.0,9.6706,9.7557,9.8369,9.9104,9.7479,9.7402,9.9104,9.8369,9.8446,9.9336,10.0999,10.1812,10.1889,10.1889,10.1889,10.1889,10.1889,10.1889,10.1889,10.1889,10.1889,10.1889,10.1889,10.1889,10.1889,10.1889,10.1889,10.1889,10.1889,10.1889,10.1889,10.1889,10.1889,10.1889,10.1889,10.1889,10.1889,10.1889,10.1889,10.2392,10.4017,10.3784,10.3707,10.5293,10.51,10.4519,10.4597,10.5216,10.5796,10.5796,10.6415,10.6995,10.6995,10.6299,10.5796,10.5719,10.4287,10.3282,10.3204,10.2392,10.1889,10.1889,10.1889,10.1889,10.1889,10.1889,10.1889,10.1889,10.1889,10.1889,10.1889,10.2701,10.3088,10.3204,10.4713,10.5487,10.5487,10.4713,10.4287,10.421,10.3011,10.2384,6.398,6.7965,7.2297,7.4347,7.5856,7.8138,8.3051,8.3863,8.4057,8.5913,8.6532,8.7074,8.8041,9.0555,9.2335,9.1793,9.2141,9.2605,9.2953,9.2992,9.3302,9.4114,9.3766,9.334,9.3031,0.0,0.0,0.0,0.0,0.0,9.7518,9.8408,9.922,10.011,9.7943,9.7595,9.9297,9.8485,9.8485,9.9336,10.1115,10.1889,10.1889,10.1889,10.1889,10.1889,10.1889,10.1889,10.1889,10.1889,10.1889,10.1889,10.1889,10.1889,10.1889,10.1889,10.1889,10.1889,10.1889,10.1889,10.1889,10.1889,10.1889,10.1889,10.1889,10.1889,10.1889,10.1889,10.1889,10.2005,10.2701,10.2585,10.2701,10.3901,10.3901,10.3784,10.4287,10.4713,10.4906,10.4906,10.5216,10.5409,10.5409,10.51,10.4713,10.421,10.3591,10.3011,10.2508,10.2082,10.1889,10.1889,10.1889,10.1889,10.1889,10.1889,10.1889,10.1889,10.1889,10.1889,10.1889,10.2199,10.2392,10.2392,10.3514,10.3901,10.332,10.3591,10.3398,10.2817,10.3011,10.2785,6.5141,6.8584,7.2723,7.5276,7.8061,8.1387,8.5991,8.7074,8.7615,8.9588,8.9782,8.982,9.0633,9.1561,9.218,9.2102,9.2373,9.2605,9.2605,9.2605,9.2799,9.334,9.2915,9.2605,0.0,0.0,0.0,0.0,0.0,0.0,0.0,9.8872,9.9839,10.0999,9.8524,9.8137,10.011,9.8794,9.864,9.9723,10.1193,10.1889,10.1889,10.1889,10.1889,10.1889,10.1889,10.1889,10.1889,10.1889,10.1889,10.1889,10.1889,10.1889,10.1889,10.1889,10.1889,10.1889,10.1889,10.1889,10.1889,10.1889,10.1889,10.1889,10.1889,10.1889,10.1889,10.1889,10.1889,10.1889,10.1889,10.1889,10.2082,10.3011,10.3011,10.2895,10.3514,10.3784,10.4017,10.4017,10.421,10.4403,10.4403,10.421,10.3784,10.3282,10.3011,10.2585,10.2005,10.1889,10.1889,10.1889,10.1889,10.1889,10.1889,10.1889,10.1889,10.1889,10.1889,10.1889,10.1889,10.2199,10.2199,10.1889,10.3011,10.3204,10.2315,10.2895,10.2895,10.2315,10.2817,10.2821,7.1021,7.2568,7.4928,7.9105,8.0227,8.162,8.6764,8.6571,8.6571,9.0826,9.1019,9.1174,9.3688,9.2102,9.0981,9.2721,9.2257,9.1716,9.1716,9.1716,9.1716,9.1716,9.1716,9.1716,0.0,0.0,0.0,0.0,0.0,0.0,0.0,9.8872,10.011,10.1812,9.9413,9.9336,10.1812,9.9375,9.8949,10.0613,10.1502,10.1889,10.1889,10.1889,10.1889,10.1889,10.1889,10.1889,10.1889,10.1889,10.1889,10.1889,10.1889,10.1889,10.1889,10.1889,10.1889,10.1889,10.1889,10.1889,10.1889,10.1889,10.1889,10.1889,10.1889,10.1889,10.1889,10.1889,10.1889,10.1889,10.1889,10.1889,10.2082,10.3011,10.2508,10.1889,10.1889,10.2585,10.3204,10.3204,10.3784,10.4403,10.4403,10.3707,10.3204,10.3204,10.2508,10.1889,10.1889,10.1889,10.1889,10.1889,10.1889,10.1889,10.1889,10.1889,10.1889,10.1889,10.1889,10.1889,10.1889,10.2701,10.2817,10.1889,10.3514,10.4017,10.3204,10.3204,10.3204,10.3204,10.2701,10.2392,6.6804,7.1175,7.5972,7.721,8.2471,8.7615,8.8582,8.8389,8.8737,9.1174,9.1986,9.2257,9.2412,9.2335,9.2218,9.2102,9.2373,9.2605,9.2605,9.3108,9.3263,9.2683,9.2605,0.0,0.0,0.0,0.0,0.0,0.0,0.0,0.0,10.011,10.0496,10.0999,9.9645,9.9027,9.922,9.8485,9.864,9.9684,10.0613,10.0999,10.0999,10.158,10.1889,10.1889,10.1889,10.1889,10.1889,10.1889,10.1502,10.0999,10.1696,10.1889,10.1889,10.1889,10.1889,10.1889,10.1889,10.1889,10.1889,10.1889,10.1889,10.1889,10.1889,10.1889,10.1889,10.1889,10.1889,10.1889,10.1889,10.1889,10.2005,10.2199,10.2082,10.1889,10.1889,10.2082,10.2315,10.2315,10.2508,10.2585,10.2585,10.2392,10.2315,10.2315,10.2082,10.1889,10.1889,10.1889,10.1889,10.1889,10.1889,10.1889,10.1889,10.1889,10.1889,10.1889,10.1889,10.1889,10.1889,10.2082,10.2199,10.1889,10.2392,10.2508,10.2315,10.2315,10.2315,10.2315,10.2779,10.2783,7.222,7.6204,8.0034,8.2393,8.5952,8.9124,8.9975,9.0168,9.0594,9.1948,9.2644,9.2953,9.2721,9.2876,9.2721,9.1832,9.2141,9.2373,9.2025,9.2683,9.3031,9.2528,9.2489,0.0,0.0,0.0,0.0,0.0,0.0,0.0,0.0,9.9955,9.9916,10.0613,9.9452,9.8756,9.8601,9.8253,9.8485,9.9297,10.0187,10.038,10.011,10.1309,10.1889,10.1889,10.1889,10.1889,10.1889,10.1889,10.158,10.1193,10.1696,10.1889,10.1889,10.1889,10.1889,10.1889,10.1889,10.1889,10.1889,10.1889,10.1889,10.1889,10.1889,10.1889,10.1889,10.1889,10.1889,10.1889,10.1889,10.1889,10.1889,10.1889,10.1889,10.1889,10.1889,10.1889,10.1889,10.1889,10.1889,10.1889,10.1889,10.1889,10.1889,10.1889,10.1889,10.1889,10.1889,10.1889,10.1889,10.1889,10.1889,10.1889,10.1889,10.1889,10.1889,10.1889,10.1889,10.1889,10.1889,10.1889,10.1889,10.1889,10.1889,10.1889,10.1889,10.1889,10.1889,10.1889,10.2508,10.26,8.2238,8.4134,8.5449,9.1135,8.9782,8.7886,9.1097,9.1832,9.2025,9.2837,9.3108,9.3418,9.3959,9.3534,9.2837,9.1948,9.1832,9.1561,9.0749,9.1329,9.1793,9.1716,9.1716,0.0,0.0,0.0,0.0,0.0,0.0,0.0,0.0,9.8988,9.8794,10.0303,9.8872,9.8408,9.9065,9.8369,9.8446,0.0,10.011,10.011,9.9607,10.1193,10.1889,10.1889,10.1889,10.1889,10.1812,10.1889,10.1812,10.1696,10.1812,10.1889,10.1812,10.1889,10.1889,10.1889,10.1889,10.1889,10.1889,10.1889,10.1889,10.1889,10.1889,10.1889,10.1889,10.1889,10.1889,10.1889,10.1889,10.1889,10.1889,10.1889,10.1889,10.1889,10.1889,10.1889,10.1889,10.1889,10.1889,10.1889,10.1889,10.1889,10.1889,10.1889,10.1889,10.1889,10.1889,10.1889,10.1889,10.1889,10.1889,10.1889,10.1889,10.1889,10.1889,10.1889,10.1889,10.1889,10.1889,10.1889,10.1889,10.1889,10.1889,10.1889,10.1889,10.1889,10.1889,10.1889,10.2005,10.2199,7.4695,7.9608,8.4908,8.8196,8.982,9.0981,9.2412,9.2721,9.276,9.2953,9.4037,9.4617,9.3456,9.3611,9.365,9.2837,9.2721,9.2644,9.2489,9.2605,9.2489,9.1793,0.0,0.0,0.0,0.0,0.0,0.0,0.0,0.0,9.9413,9.864,9.8253,9.864,9.8292,9.7866,9.7325,9.717,9.7827,0.0,9.9491,10.0187,10.1386,10.1696,10.1889,10.1889,10.1889,10.1502,10.0883,10.158,10.1115,9.9994,10.1386,10.1502,10.0999,10.158,10.1889,10.1889,10.1889,10.1889,10.1889,10.1889,10.1889,10.1889,10.1889,10.1889,10.1889,10.1889,10.1889,10.1889,10.1889,10.1889,10.1889,10.1889,10.1889,10.1889,10.1889,10.1889,10.1889,10.1889,10.1889,10.1889,10.1889,10.1889,10.1889,10.1889,10.1889,10.1889,10.1889,10.1889,10.1889,10.1889,10.1889,10.1889,10.1889,10.1889,10.1889,10.1889,10.1889,10.1889,10.1889,10.1889,10.1889,10.1889,10.1889,10.1889,10.1889,10.1889,10.1889,10.1889,10.1889,10.2005,7.7635,8.1929,8.5488,8.8892,9.071,9.1948,9.2799,9.3302,9.3688,9.4114,9.4888,9.512,9.3804,9.3921,9.365,9.2025,9.2102,9.2218,9.1793,9.2102,9.2218,9.1754,0.0,0.0,0.0,0.0,0.0,0.0,0.0,9.6125,9.9143,9.8137,9.7673,9.8098,9.7711,9.7247,9.6783,9.6783,9.7634,9.9297,9.9297,10.0187,10.1889,10.1889,10.1889,10.1889,10.1889,10.158,10.1309,10.1696,10.1386,10.0613,10.1502,10.158,10.1309,10.1696,10.1889,10.1889,10.1889,10.1889,10.1889,10.1889,10.1889,10.1889,10.1889,10.1889,10.1889,10.1889,10.1889,10.1889,10.1889,10.1889,10.1889,10.1889,10.1889,10.1889,10.1889,10.1889,10.1889,10.1889,10.1889,10.1889,10.1889,10.1889,10.1889,10.1889,10.1889,10.1889,10.1889,10.1889,10.1889,10.1889,10.1889,10.1889,10.1889,10.1889,10.1889,10.1889,10.1889,10.1889,10.1889,10.1889,10.1889,10.1889,10.1889,10.1889,10.1889,10.1889,10.1889,10.1889,10.1889,10.2005,8.1233,8.4714,8.6571,9.0865,9.1793,9.1986,9.3186,9.3843,9.4501,9.5506,9.57,9.5468,9.4578,9.4307,9.3495,9.1406,9.1406,9.1484,9.0942,9.1329,9.1716,9.1716,0.0,0.0,0.0,0.0,0.0,0.0,0.0,9.6474,9.8756,9.7557,9.7131,9.7866,9.717,9.6783,9.6783,9.6938,9.7789,9.9297,9.9607,10.0496,10.1889,10.1889,10.1889,10.1889,10.1889,10.1889,10.1889,10.1889,10.1812,10.1696,10.1812,10.1812,10.1696,10.1812,10.1889,10.1889,10.1889,10.1889,10.1889,10.1889,10.1889,10.1889,10.1889,10.1889,10.1889,10.1889,10.1889,10.1889,10.1889,10.1889,10.1889,10.1889,10.1889,10.1889,10.1889,10.1889,10.1889,10.1889,10.1889,10.1889,10.1889,10.1889,10.1889,10.1889,10.1889,10.1889,10.1889,10.1889,10.1889,10.1889,10.1889,10.1889,10.1889,10.1889,10.1889,10.1889,10.1889,10.1889,10.1889,10.1889,10.1889,10.1889,10.1889,10.1889,10.1889,10.1889,10.1889,10.1889,10.1889,10.2005,7.2723,7.9763,8.7461,9.1754,9.2257,9.2296,9.4655,9.4655,9.4655,9.628,9.6628,9.6358,9.5468,9.4694,9.4075,9.3727,9.2567,9.1909,9.2567,9.2102,9.1716,9.1716,0.0,0.0,0.0,0.0,0.0,0.0,9.5081,9.5971,9.7092,9.6938,9.686,9.6976,9.686,9.6783,9.6783,9.7557,9.8408,9.9336,10.0806,10.1696,10.1889,10.1889,10.1889,10.1889,10.1889,10.1889,10.1889,10.1889,10.1502,10.0806,10.158,10.1386,10.0883,10.158,10.1889,10.1889,10.1889,10.1889,10.1889,10.1889,10.1889,10.1889,10.1889,10.1889,10.1889,10.1889,10.1889,10.1889,10.1889,10.1889,10.1889,10.1889,10.1889,10.1889,10.1889,10.1889,10.1889,10.1889,10.1889,10.1889,10.1889,10.1889,10.1889,10.1889,10.1889,10.1889,10.1889,10.1889,10.1889,10.1889,10.1889,10.1889,10.1889,10.1889,10.1889,10.1889,10.1889,10.1889,10.1889,10.1889,10.1889,10.1889,10.1889,10.1889,10.1889,10.1889,10.1889,10.1889,10.1889,10.1889,7.4618,8.1349,8.7731,9.2489,9.2683,9.2373,9.4926,9.481,9.4694,9.6435,9.6783,9.6512,9.5661,9.4772,9.4037,9.3611,9.2489,9.1832,9.2218,9.1948,9.1716,9.1716,0.0,0.0,0.0,0.0,0.0,0.0,9.5004,9.5893,9.6744,9.6783,9.6783,9.6783,9.6783,9.6783,9.6783,9.7673,9.8756,9.9994,10.1309,10.1889,10.1889,10.1889,10.1889,10.1889,10.1889,10.1889,10.1889,10.1889,10.1696,10.1386,10.1812,10.1696,10.1386,10.1812,10.1889,10.1889,10.1889,10.1889,10.1889,10.1889,10.1889,10.2005,10.2508,10.2315,10.2005,10.2508,10.2315,10.1889,10.1889,10.1889,10.1889,10.1889,10.1889,10.1889,10.1889,10.1889,10.1889,10.1889,10.1889,10.1889,10.1889,10.1889,10.1889,10.1889,10.1889,10.1889,10.1889,10.1889,10.1889,10.1889,10.1889,10.1889,10.1889,10.1889,10.1889,10.1889,10.1889,10.1889,10.1889,10.1889,10.1889,10.1889,10.1889,10.1889,10.1889,10.1889,10.1889,10.1889,10.1889,10.1889,7.5469,8.0769,8.5101,9.1097,9.1832,9.1909,9.5081,9.4965,9.4694,9.6435,9.6783,9.659,9.5932,9.4926,9.3921,9.3147,9.2257,9.1716,9.1716,9.1716,9.1716,9.1716,0.0,0.0,0.0,0.0,0.0,0.0,9.5352,9.6125,9.6783,9.6783,9.6783,9.6783,9.6783,9.6783,9.6783,9.7866,9.9259,10.0883,10.158,10.1889,10.1889,10.1889,10.1889,10.1889,10.1889,10.1889,10.1889,10.1889,10.1889,10.1889,10.1889,10.1889,10.1889,10.1889,10.1889,10.1889,10.1889,10.1889,10.1889,10.1889,10.1889,10.2005,10.2701,10.2392,10.2005,10.2701,10.2392,10.1889,10.1889,10.1889,10.1889,10.1889,10.1889,10.1889,10.1889,10.1889,10.1889,10.1889,10.1889,10.1889,10.1889,10.1889,10.1889,10.1889,10.1889,10.1889,10.1889,10.1889,10.1889,10.1889,10.1889,10.1889,10.1889,10.1889,10.1889,10.1889,10.1889,10.1889,10.1889,10.1889,10.1889,10.1889,10.1889,10.1889,10.1889,10.1889,10.1889,10.1889,10.1889,10.2005,7.0092,7.369,7.7713,8.6145,8.8776,9.0633,9.5584,9.5429,9.4694,9.6435,9.6783,9.6783,9.6744,9.5352,9.3921,9.3147,9.2257,9.1716,9.1716,9.1716,9.1716,0.0,0.0,0.0,0.0,0.0,0.0,0.0,9.6241,9.6744,9.6783,9.6783,9.6783,9.6783,9.6783,9.6783,9.6783,9.8408,10.011,10.1812,10.1889,10.1889,10.1889,10.1889,10.1889,10.1889,10.1889,10.1889,10.1889,10.1889,10.1889,10.1889,10.1889,10.1889,10.1889,10.1889,10.1889,10.1889,10.1889,10.1889,10.1889,10.1889,10.1889,10.1889,10.2005,10.1889,10.1889,10.2005,10.1889,10.1889,10.1889,10.1889,10.1889,10.1889,10.1889,10.1889,10.1889,10.1889,10.1889,10.1889,10.1889,10.1889,10.1889,10.1889,10.1889,10.1889,10.1889,10.1889,10.1889,10.1889,10.1889,10.1889,10.1889,10.1889,10.1889,10.1889,10.1889,10.1889,10.1889,10.1889,10.1889,10.1889,10.1889,10.1889,10.1889,10.1889,10.1889,10.1889,10.1889,10.1889,10.1889,10.1889,6.9976,7.2761,7.6011,8.2896,8.6107,8.8428,9.1909,9.3456,9.4694,9.6435,9.6783,9.6628,9.6087,9.5004,9.4114,9.3804,9.2605,9.1716,9.1716,9.1716,9.1716,0.0,0.0,0.0,0.0,0.0,0.0,0.0,0.0,9.6203,9.6783,9.6783,9.6783,9.6783,9.6783,9.7325,9.8408,9.8988,9.9878,10.1077,10.1077,10.1077,10.1077,10.1077,10.1386,10.1889,10.1889,10.1889,10.1889,10.1889,10.1889,10.1889,10.1889,10.1889,10.1889,10.1889,10.1889,10.1889,10.1889,10.1889,10.1889,10.1889,10.1889,10.2005,10.2585,10.2315,10.2005,10.2585,10.2315,10.1889,10.1889,10.1889,10.1889,10.1889,10.1889,10.1889,10.1889,10.1889,10.1889,10.1889,10.1889,10.1889,10.1889,10.1889,10.1889,10.1889,10.1889,10.1889,10.1889,10.1889,10.1889,10.1889,10.1889,10.1889,10.1889,10.1889,10.1889,10.1889,10.1889,10.1889,10.1889,10.2392,10.2508,10.1889,10.2392,10.2508,10.1889,10.1889,10.1889,10.1889,10.2508,10.2392,6.7539,7.0208,7.3612,7.9608,8.2355,8.5024,9.0439,9.2102,9.3302,9.6203,9.6783,9.6628,9.6048,9.5468,9.4772,9.3921,9.2605,9.1716,9.1716,9.1948,9.2025,0.0,0.0,0.0,0.0,0.0,0.0,0.0,0.0,0.0,9.6744,9.6783,9.6783,9.6783,9.6783,9.7479,9.8872,9.8911,9.9336,10.0187,10.0187,10.0303,10.0613,10.0613,10.0883,10.1502,10.1502,10.158,10.1889,10.1889,10.1889,10.1889,10.1889,10.1889,10.1889,10.1889,10.1889,10.1889,10.1889,10.1889,10.1889,10.1889,10.1889,10.2005,10.2585,10.2392,10.2005,10.2585,10.2315,10.1889,10.1889,10.1889,10.1889,10.1889,10.1889,10.1889,10.1889,10.1889,10.1889,10.1889,10.1889,10.1889,10.1889,10.1889,10.1889,10.1889,10.1889,10.1889,10.1889,10.1889,10.1889,10.1889,10.1889,10.1889,10.1889,10.1889,10.1889,10.1889,10.1889,10.1889,10.1889,10.2701,10.2817,10.1889,10.2779,10.2895,10.2315,10.2005,10.1889,10.1889,10.2508,10.2508,0.0,0.0,0.0,7.5933,7.7481,8.0382,9.1213,9.1174,9.0362,9.5545,9.659,9.6667,9.6822,9.6822,9.6009,9.3534,9.2412,9.1793,9.1716,9.2451,9.2683,0.0,0.0,0.0,0.0,0.0,0.0,0.0,9.5932,9.5855,9.6706,9.6783,9.6783,9.6783,9.6783,9.7209,9.8098,9.8098,9.8485,9.9259,9.9259,9.9723,10.0613,10.0496,10.0574,10.0613,10.0613,10.0999,10.1812,10.1889,10.1889,10.1889,10.1889,10.1889,10.1889,10.1889,10.1889,10.1889,10.1889,10.1889,10.1889,10.1889,10.1889,10.1889,10.1889,10.1889,10.1889,10.1889,10.1889,10.1889,10.1889,10.1889,10.1889,10.1889,10.1889,10.1889,10.1889,10.1889,10.1889,10.1889,10.1889,10.1889,10.1889,10.1889,10.1889,10.1889,10.1889,10.1889,10.1889,10.1889,10.1889,10.1889,10.1889,10.1889,10.1889,10.1889,10.1889,10.1889,10.1889,10.1889,10.1889,10.2701,10.2817,10.1889,10.2779,10.3204,10.3204,10.2315,10.1889,10.1889,10.1889,10.1889,6.3516,0.0,0.0,0.0,0.0,0.0,8.0188,8.2509,8.5217,9.0981,9.218,9.3302,9.7054,9.7247,9.6783,9.6706,9.5429,9.3804,9.1948,9.2451,9.2683,0.0,0.0,0.0,0.0,0.0,0.0,0.0,9.4694,9.4926,9.5816,9.6474,9.6783,9.6783,9.6783,9.7209,9.8098,9.8098,9.8214,9.8446,9.8446,9.8872,9.9645,9.9065,9.9452,10.0613,9.9916,9.98,10.011,10.069,10.0999,10.0999,10.1696,10.1889,10.1889,10.1889,10.1889,10.1889,10.1889,10.1889,10.1889,10.1889,10.1889,10.1889,10.1889,10.1889,10.1889,10.1889,10.1889,10.1889,10.1889,10.1889,10.1889,10.1889,10.1889,10.1889,10.1889,10.1889,10.1889,10.1889,10.1889,10.1889,10.1889,10.1889,10.1889,10.1889,10.1889,10.1889,10.1889,10.1889,10.1889,10.1889,10.1889,10.1889,10.1889,10.1889,10.1889,10.1889,10.1889,10.1889,10.1889,10.2701,10.2817,10.1889,10.2779,10.2895,10.2315,10.2005,10.2199,10.2817,10.2199,10.2199,6.4677,6.5721,6.7578,6.8777,0.0,0.0,7.8718,8.0846,8.3592,9.0981,9.2257,9.3108,9.686,9.7131,9.6976,9.7479,9.7286,9.6203,9.365,9.4037,9.4114,0.0,0.0,0.0,0.0,9.2953,9.2953,9.4617,9.4075,9.423,9.5429,9.6319,9.6783,9.6783,9.6783,9.7054,9.7557,9.7557,9.7557,9.7557,9.7557,9.7982,9.8794,9.833,9.864,9.9529,9.9027,9.8794,9.8872,9.9723,10.0303,10.069,10.158,10.1889,10.1889,10.1889,10.1889,10.1889,10.1889,10.1889,10.1889,10.1889,10.1889,10.1889,10.1889,10.1889,10.1889,10.1889,10.1889,10.1889,10.1889,10.1889,10.1889,10.1889,10.1889,10.1889,10.1889,10.1889,10.1889,10.1889,10.2199,10.2315,10.2005,10.2199,10.2315,10.2005,10.2199,10.2315,10.1889,10.2199,10.2315,10.1889,10.1889,10.1889,10.1889,10.1889,10.1889,10.1889,10.1889,10.1889,10.1889,10.2701,10.2817,10.1889,10.2779,10.2779,10.1889,10.1889,10.2199,10.2585,10.2082,10.2199,6.6147,6.7191,6.9396,7.0711,7.0092,0.0,8.1155,8.189,8.3012,9.1716,9.2992,9.3147,9.5274,9.5739,9.5777,9.5661,9.7402,9.8021,9.5932,9.6396,9.628,0.0,0.0,0.0,9.5352,9.3998,9.3766,9.5236,9.3998,9.3843,9.5429,9.6241,9.6667,9.6667,9.6744,9.6783,9.6783,9.6783,9.6783,9.6783,9.6783,9.7247,9.8098,9.7982,9.806,9.8214,9.8137,9.8137,9.8292,9.9027,9.98,10.069,10.158,10.1889,10.1889,10.1889,10.1889,10.1889,10.1889,10.1889,10.1889,10.1889,10.1889,10.1889,10.1889,10.1889,10.1889,10.2005,10.2005,10.1889,10.2005,10.2005,10.1889,10.1889,10.1889,10.1889,10.1889,10.2005,10.2005,10.2005,10.2585,10.2817,10.2199,10.2585,10.2817,10.2005,10.2585,10.2779,10.2005,10.2585,10.2779,10.2005,10.1889,10.1889,10.1889,10.1889,10.1889,10.1889,10.1889,10.1889,10.1889,10.2585,10.2701,10.1889,10.2701,10.2701,10.1889,10.2005,10.2005,10.1889,10.1889,10.1889,6.8932,6.9396,7.0556,6.9551,7.0595,0.0,7.1098,7.2723,7.5624,8.0227,8.1581,8.3322,8.777,8.9163,8.9433,8.8698,9.2296,9.5506,9.6435,9.7286,9.7209,0.0,0.0,0.0,9.4501,9.4153,9.4114,9.4423,9.4153,9.4423,9.5429,9.5661,9.5739,9.5739,9.6435,9.6783,9.6783,9.6783,9.6783,9.6783,9.6783,9.7247,9.8098,9.7363,9.7789,9.9027,9.8369,9.8485,9.9104,9.9259,9.98,10.069,10.158,10.1889,10.1889,10.1889,10.1889,10.1889,10.1889,10.1889,10.1889,10.1889,10.1889,10.1889,10.1889,10.1889,10.2005,10.2701,10.2392,10.2082,10.2779,10.2392,10.1889,10.1889,10.1889,10.1889,10.1889,10.2508,10.2895,10.2895,10.2508,10.2315,10.2895,10.2508,10.2082,10.1889,10.2005,10.2082,10.1889,10.2005,10.2082,10.1889,10.1889,10.1889,10.1889,10.1889,10.1889,10.1889,10.1889,10.1889,10.1889,10.2082,10.2082,10.1889,10.2082,10.2082,10.1889,10.2585,10.2585,10.1889,10.1889,10.1889,7.1192,7.0982,7.1833,7.1446,7.133,0.0,0.0,7.2607,7.4193,7.9763,7.9879,8.0575,8.5681,8.5913,8.5759,8.7035,9.0826,9.3302,9.2489,9.5661,9.7595,9.628,0.0,0.0,9.5545,9.5081,9.4849,9.4849,9.4849,9.5042,9.5468,9.5893,9.5932,9.5506,9.6358,9.6783,9.6783,9.6783,9.6783,9.6783,9.6783,9.7015,9.7441,9.7015,9.7247,9.8021,9.7634,9.8137,9.9259,9.8872,9.9723,10.1193,10.1309,10.1502,10.1889,10.1889,10.1889,10.1889,10.1889,10.1889,10.1889,10.1889,10.1889,10.1889,10.1889,10.1889,10.2005,10.2392,10.2199,10.2005,10.2392,10.2199,10.1889,10.1889,10.2199,10.2508,10.2508,10.3204,10.3784,10.3784,10.3088,10.2701,10.3088,10.3204,10.2895,10.2005,10.2315,10.2392,10.2005,10.2315,10.2392,10.1889,10.1889,10.1889,10.1889,10.1889,10.1889,10.1889,10.1889,10.1889,10.1889,10.1889,10.1889,10.1889,10.1889,10.1889,10.1889,10.2315,10.2315,10.1889,10.1889,10.1889,7.3938,7.338,7.4193,7.3767,7.2684,7.2452,0.0,0.0,0.0,8.0382,7.9569,7.9028,8.3167,8.2471,8.2006,8.4095,0.0,0.0,0.0,9.1445,0.0,9.4888,0.0,0.0,0.0,9.5197,9.5042,9.57,9.512,9.4926,9.5236,9.6241,9.6319,9.5274,9.6241,9.6783,9.6783,9.6783,9.6783,9.6783,9.6783,9.6783,9.6783,9.6783,9.6899,9.7054,9.7054,9.7905,9.9259,9.8446,9.9491,10.158,10.0883,10.1077,10.1889,10.1889,10.1889,10.1889,10.1889,10.1889,10.1889,10.1889,10.1889,10.1889,10.1889,10.1889,10.1889,10.2082,10.2005,10.1889,10.2082,10.2199,10.2082,10.1889,10.2701,10.3282,10.3011,10.3707,10.4403,10.421,10.3784,10.3398,10.3204,10.3591,10.3514,10.2082,10.2508,10.2701,10.2005,10.2508,10.2701,10.2005,10.1889,10.1889,10.1889,10.1889,10.1889,10.1889,10.1889,10.1889,10.1889,10.1889,10.1889,10.1889,10.1889,10.1889,10.1889,10.1889,10.1889,10.1889,10.1889,10.1889,7.8539,7.868,7.926,7.4038,7.5392,7.6359,7.0092,0.0,7.2645,7.2723,0.0,7.3496,7.4077,0.0,0.0,0.0,7.7442,8.073,7.8061,8.2935,8.6996,8.7693,9.3804,0.0,0.0,0.0,9.3379,9.6435,9.3843,9.276,9.4269,9.5893,9.6048,9.4385,9.5932,9.6783,9.6783,9.6783,9.6783,9.6783,9.6783,9.6783,9.6783,9.6783,9.7209,9.7943,9.7943,9.8485,9.9259,9.8446,9.9143,10.069,10.0613,10.1077,10.1889,10.1889,10.1889,10.1889,10.1889,10.1889,10.1889,10.1889,10.1889,10.1889,10.1889,10.1889,10.2082,10.2817,10.2508,10.2082,10.2895,10.3088,10.2895,10.2082,10.3088,10.3901,10.2392,10.3282,10.421,10.3514,10.3784,10.4017,10.3282,10.2585,10.2082,10.1889,10.2005,10.2005,10.1889,10.2005,10.2005,10.1889,10.1889,10.1889,10.1889,10.1889,10.1889,10.1889,10.1889,10.1889,10.1889,10.1889,10.1889,10.1889,10.1889,10.1889,10.1889,10.1889,10.1889,10.1889,10.1889,10.1889,7.8219,7.8722,7.9636,7.5136,7.5383,7.5615,7.1385,7.044,7.0711,7.1833,0.0,0.0,0.0,0.0,0.0,0.0,7.6359,7.8099,7.3999,7.9453,8.4366,8.5681,0.0,0.0,0.0,0.0,0.0,0.0,0.0,9.2876,9.5584,9.5932,9.57,9.4965,9.5661,9.628,9.6783,9.6783,9.6783,9.6783,9.6783,9.6783,9.6783,9.6783,9.7015,9.7363,9.7866,9.8292,9.8601,9.8756,9.922,9.9916,10.038,10.1077,10.1889,10.1889,10.1889,10.1889,10.1889,10.1889,10.1889,10.1889,10.1889,10.1889,10.1889,10.1889,10.2005,10.2315,10.2199,10.2082,10.3011,10.3204,10.3204,10.332,10.3901,10.421,10.3514,10.3901,10.421,10.3398,10.3514,10.3398,10.2585,10.2585,10.2508,10.2005,10.1889,10.1889,10.1889,10.1889,10.1889,10.1889,10.1889,10.1889,10.1889,10.1889,10.1889,10.1889,10.1889,10.1889,10.1889,10.1889,10.1889,10.1889,10.1889,10.1889,10.1889,10.1889,10.1889,10.1889,10.1889,10.1889,7.9223,7.9713,8.0331,7.5577,7.4702,7.4446,7.2352,7.0827,7.044,7.2529,7.2142,0.0,0.0,0.0,7.191,7.2684,0.0,7.5779,7.1523,7.6165,8.0459,8.1658,0.0,0.0,0.0,0.0,0.0,0.0,0.0,0.0,9.6241,9.6512,9.6203,9.5506,9.5971,9.6396,9.6783,9.6783,9.6783,9.6783,9.6783,9.6783,9.6783,9.6783,9.6783,9.6822,9.7479,9.775,9.7827,9.864,9.8988,9.9104,10.0187,10.0999,10.158,10.1812,10.1889,10.1889,10.1889,10.1889,10.1889,10.1889,10.1889,10.1889,10.1889,10.1889,10.1889,10.1889,10.2082,10.2392,10.3011,10.3514,10.4017,10.4287,10.4597,10.4597,10.421,10.4094,10.3784,10.3011,10.2817,10.2585,10.2005,10.2392,10.2585,10.2005,10.1889,10.1889,10.1889,10.1889,10.1889,10.1889,10.1889,10.1889,10.1889,10.1889,10.1889,10.1889,10.1889,10.1889,10.1889,10.1889,10.1889,10.1889,10.1889,10.1889,10.1889,10.1889,10.1889,10.1889,10.1889,10.1889,0.0,0.0,0.0,7.4654,7.3828,7.4137,7.0805,7.133,7.2723,7.369,7.4425,7.4463,7.2916,7.2607,7.2026,7.0402,7.164,0.0,0.0,7.1717,7.2955,7.2993,7.8099,0.0,0.0,0.0,0.0,0.0,0.0,0.0,9.5274,9.7866,9.806,9.5584,9.7131,9.7634,9.6822,9.6783,9.6783,9.6783,9.6783,9.6783,9.6783,9.6783,9.6783,9.6783,9.6822,9.6822,9.6899,9.7789,9.8137,9.8292,9.9955,10.0613,10.069,10.158,10.1889,10.1889,10.1889,10.1889,10.1889,10.1889,10.1889,10.1889,10.1889,10.1889,10.1889,10.1889,10.2508,10.3204,10.3204,10.4403,10.5409,10.4597,10.5022,10.5216,10.3591,10.3204,10.3011,10.2082,10.1889,10.1889,10.1889,10.1889,10.1889,10.1889,10.1889,10.1889,10.1889,10.1889,10.1889,10.1889,10.1889,10.1889,10.1889,10.1889,10.1889,10.1889,10.1889,10.1889,10.1889,10.1889,10.1889,10.1889,10.1889,10.1889,10.1889,10.1889,10.1889,10.1889,10.1889,10.1889,0.0,0.0,8.5728,7.7859,0.0,0.0,0.0,7.2607,7.3844,7.2452,7.4193,7.5082,7.2258,7.1756,7.1562,7.0943,7.1369,7.1137,0.0,6.9705,7.0711,7.2413,7.7365,8.0653,8.0691,0.0,0.0,0.0,0.0,0.0,0.0,9.6628,9.6938,9.7209,9.6667,9.6783,9.7634,9.7092,9.6783,9.6783,9.6783,9.6783,9.6783,9.6783,9.6783,9.6822,9.7402,9.7325,9.6938,9.8949,9.8756,9.7518,10.038,10.0806,9.9916,10.1386,10.1889,10.1889,10.1889,10.1889,10.1889,10.1889,10.1889,10.1889,10.1889,10.1889,10.1889,10.1889,10.2082,10.2508,10.3088,10.3591,10.4094,10.4287,10.421,10.3901,10.3282,10.2701,10.2315,10.2005,10.1889,10.1889,10.1889,10.1889,10.1889,10.1889,10.1889,10.1889,10.1889,10.1889,10.1889,10.1889,10.1889,10.1889,10.1889,10.1889,10.1889,10.1889,10.1889,10.1889,10.1889,10.1889,10.1889,10.1889,10.1889,10.1889,10.1889,10.1889,10.1889,10.1889,10.1889,10.1889,8.6236,8.7301,0.0,8.0586,7.9957,0.0,7.4324,0.0,7.6011,7.4386,7.5044,7.5933,7.5856,7.3342,7.1678,7.2916,7.1833,7.0363,0.0,6.9319,7.017,7.1523,7.5121,7.8022,7.9376,8.131,0.0,0.0,0.0,0.0,0.0,0.0,9.6938,9.806,9.7286,9.7247,9.8098,9.7557,9.7092,9.6783,9.6783,9.6783,9.6783,9.6783,9.6783,9.6822,9.7402,9.7479,9.7402,9.9336,9.9181,9.7982,10.0806,10.0999,9.9955,10.1386,10.1889,10.1889,10.1889,10.1889,10.1889,10.1889,10.1889,10.1889,10.1889,10.1889,10.1889,10.1889,10.2082,10.2508,10.3088,10.3398,10.3784,10.4287,10.3784,10.3204,10.3204,10.2508,10.1889,10.1889,10.1889,10.1889,10.1889,10.1889,10.1889,10.1889,10.1889,10.1889,10.1889,10.1889,10.1889,10.1889,10.1889,10.1889,10.1889,10.1889,10.1889,10.1889,10.1889,10.1889,10.1889,10.1889,10.1889,10.1889,10.1889,10.1889,10.1889,10.1889,10.1889,10.1889,10.1889,10.1889]},{"header":{"parameterUnit":"m.s-1","parameterCategory":1,"la1":30.6,"la2":29.2853,"lo1":-89.7004,"lo2":-87.6739,"dx":0.0162,"dy":0.0183,"nx":112,"ny":82,"refTime":"2022-12-23T06:00:00:Z","depth":0,"parameterNumber":3,"parameterNumberName":"V-component_of_WINDS"},"data":[0.0,0.0,0.0,0.0,0.0,0.0,0.0,0.0,0.0,0.0,0.0,0.0,0.0,0.0,0.0,0.0,0.0,0.0,0.0,0.0,0.0,0.0,0.0,0.0,0.0,0.0,0.0,0.0,0.0,0.0,0.0,0.0,0.0,0.0,0.0,0.0,0.0,0.0,0.0,0.0,0.0,0.0,0.0,0.0,0.0,0.0,0.0,0.0,0.0,0.0,0.0,0.0,0.0,0.0,0.0,0.0,0.0,0.0,0.0,0.0,0.0,0.0,0.0,0.0,0.0,0.0,0.0,0.0,0.0,0.0,0.0,0.0,0.0,0.0,0.0,0.0,0.0,0.0,0.0,0.0,0.0,0.0,0.0,0.0,0.0,0.0,0.0,0.0,0.0,0.0,-0.1787,-0.1838,-0.1985,-0.2052,-0.1989,-0.1979,-0.185,-0.1551,0.0,0.0,0.0,0.0,0.0,0.0,0.0,0.0,0.0,0.0,0.0,0.0,0.0,0.0,0.0,0.0,0.0,0.0,0.0,0.0,0.0,0.0,0.0,0.0,0.0,0.0,0.0,0.0,0.0,0.0,0.0,0.0,0.0,0.0,0.0,0.0,0.0,0.0,0.0,0.0,0.0,0.0,0.0,0.0,0.0,0.0,0.0,0.0,0.0,0.0,0.0,0.0,0.0,0.0,0.0,0.0,0.0,0.0,0.0,0.0,0.0,0.0,0.0,0.0,0.0,0.0,0.0,0.0,0.0,0.0,0.0,0.0,0.0,0.0,0.0,0.0,0.0,0.0,0.0,0.0,0.0,0.0,0.0,0.0,0.0,0.0,0.0,0.0,0.0,0.0,0.0,0.0,0.0,0.0,0.0,0.0,0.0,0.0,0.0,0.0,0.0,0.0,0.0,0.0,-0.1752,-0.2031,-0.2109,-0.2106,-0.2019,-0.199,-0.1858,-0.1581,0.0,0.0,0.0,0.0,0.0,0.0,0.0,0.0,0.0,0.0,0.0,0.0,0.0,0.0,0.0,0.0,0.0,0.0,0.0,0.0,0.0,0.0,0.0,0.0,0.0,0.0,0.0,0.0,0.0,0.0,0.0,0.0,0.0,0.0,0.0,0.0,0.0,0.0,0.0,0.0,0.0,0.0,0.0,0.0,0.0,0.0,0.0,0.0,0.0,0.0,0.0,0.0,0.0,0.0,0.0,0.0,0.0,0.0,0.0,0.0,0.0,0.0,0.0,0.0,0.0,0.0,0.0,0.0,0.0,0.0,0.0,0.0,0.0,0.0,0.0,0.0,0.0,0.0,0.0,0.0,0.0,0.0,0.0,0.0,0.0,0.0,0.0,0.0,0.0,0.0,0.0,0.0,0.0,0.0,0.0,0.0,0.0,0.0,0.0,0.0,0.0,0.0,0.0,-0.1795,-0.1907,-0.2157,-0.2195,-0.2173,-0.2099,-0.205,-0.1915,-0.1659,-0.154,0.0,0.0,0.0,0.0,0.0,0.0,0.0,0.0,0.0,0.0,0.0,0.0,0.0,0.0,0.0,0.0,0.0,0.0,0.0,0.0,0.0,0.0,0.0,0.0,0.0,0.0,0.0,0.0,0.0,0.0,0.0,0.0,0.0,0.0,0.0,0.0,0.0,0.0,0.0,0.0,0.0,0.0,0.0,0.0,0.0,0.0,0.0,0.0,0.0,0.0,0.0,0.0,0.0,0.0,0.0,0.0,0.0,0.0,0.0,0.0,0.0,0.0,0.0,0.0,0.0,0.0,0.0,0.0,0.0,0.0,0.0,0.0,0.0,0.0,0.0,0.0,0.0,0.0,0.0,0.0,0.0,0.0,0.0,0.0,0.0,0.0,0.0,0.0,0.0,0.0,0.0,0.0,0.0,0.0,0.0,0.0,0.0,0.0,0.0,0.0,0.0,0.0,-0.202,-0.2101,-0.2232,-0.2245,-0.2223,-0.217,-0.2109,-0.1971,-0.173,-0.1581,0.0,0.0,0.0,0.0,0.0,0.0,0.0,0.0,0.0,0.0,0.0,0.0,0.0,0.0,0.0,0.0,0.0,0.0,0.0,0.0,0.0,0.0,0.0,0.0,0.0,0.0,0.0,0.0,0.0,0.0,0.0,0.0,0.0,0.0,0.0,0.0,0.0,0.0,0.0,0.0,0.0,0.0,0.0,0.0,0.0,0.0,0.0,0.0,0.0,0.0,0.0,0.0,0.0,0.0,0.0,0.0,0.0,0.0,0.0,0.0,0.0,0.0,0.0,0.0,0.0,0.0,0.0,0.0,0.0,0.0,0.0,0.0,0.0,0.0,0.0,0.0,0.0,0.0,0.0,0.0,0.0,0.0,0.0,0.0,0.0,0.0,0.0,0.0,0.0,0.0,0.0,0.0,0.0,0.0,0.0,0.0,0.0,0.0,0.0,0.0,0.0,0.0,-0.2097,-0.2263,-0.2247,-0.2245,-0.2232,-0.22,-0.214,-0.2003,-0.1761,-0.1632,0.0,0.0,0.0,0.0,0.0,0.0,0.0,0.0,0.0,0.0,0.0,0.0,0.0,0.0,0.0,0.0,0.0,0.0,0.0,0.0,0.0,0.0,0.0,0.0,0.0,0.0,0.0,0.0,0.0,0.0,0.0,0.0,0.0,0.0,0.0,0.0,0.0,0.0,0.0,0.0,0.0,0.0,0.0,0.0,0.0,0.0,0.0,0.0,0.0,0.0,0.0,0.0,0.0,0.0,0.0,0.0,0.0,0.0,0.0,0.0,0.0,0.0,0.0,0.0,0.0,0.0,0.0,0.0,0.0,0.0,0.0,0.0,0.0,0.0,0.0,0.0,0.0,0.0,0.0,0.0,0.0,0.0,0.0,0.0,0.0,0.0,0.0,0.0,0.0,0.0,0.0,0.0,0.0,0.0,0.0,0.0,0.0,0.0,0.0,0.0,0.0,0.0,-0.2101,-0.2245,-0.2346,-0.2357,-0.233,-0.2262,-0.2218,-0.2075,-0.1795,0.0,0.0,0.0,0.0,0.0,0.0,0.0,0.0,0.0,0.0,0.0,0.0,0.0,0.0,0.0,0.0,0.0,0.0,0.0,0.0,0.0,0.0,0.0,0.0,0.0,0.0,0.0,0.0,0.0,0.0,0.0,0.0,0.0,0.0,0.0,0.0,0.0,0.0,0.0,0.0,0.0,0.0,0.0,0.0,0.0,0.0,0.0,0.0,0.0,0.0,0.0,0.0,0.0,0.0,0.0,0.0,0.0,0.0,0.0,0.0,0.0,0.0,0.0,0.0,0.0,0.0,0.0,0.0,0.0,0.0,0.0,0.0,0.0,0.0,0.0,0.0,0.0,0.0,0.0,0.0,0.0,0.0,0.0,0.0,0.0,0.0,0.0,0.0,0.0,0.0,0.0,0.0,0.0,0.0,0.0,0.0,0.0,0.0,0.0,0.0,0.0,0.0,-0.1999,-0.2146,-0.2277,-0.2409,-0.2424,-0.2391,-0.2311,-0.2277,-0.2131,-0.1828,0.0,0.0,0.0,0.0,0.0,0.0,0.0,0.0,0.0,0.0,0.0,0.0,0.0,0.0,0.0,0.0,0.0,0.0,0.0,0.0,0.0,0.0,0.0,0.0,0.0,0.0,0.0,0.0,0.0,0.0,0.0,0.0,0.0,0.0,0.0,0.0,0.0,0.0,0.0,0.0,0.0,0.0,0.0,0.0,0.0,0.0,0.0,0.0,0.0,0.0,0.0,0.0,0.0,0.0,0.0,0.0,0.0,0.0,0.0,0.0,0.0,0.0,0.0,0.0,0.0,0.0,0.0,0.0,0.0,0.0,0.0,0.0,0.0,0.0,0.0,0.0,0.0,0.0,0.0,0.0,0.0,0.0,0.0,0.0,0.0,0.0,0.0,0.0,0.0,0.0,0.0,0.0,0.0,0.0,0.0,0.0,0.0,0.0,0.0,0.0,0.0,0.0,-0.2042,-0.2249,-0.2391,-0.2423,-0.2425,-0.2401,-0.2339,-0.2308,-0.2162,0.0,0.0,0.0,0.0,0.0,0.0,0.0,0.0,0.0,0.0,0.0,0.0,0.0,0.0,0.0,0.0,0.0,0.0,0.0,0.0,0.0,0.0,0.0,0.0,0.0,0.0,0.0,0.0,0.0,0.0,0.0,0.0,0.0,0.0,0.0,0.0,0.0,0.0,0.0,0.0,0.0,0.0,0.0,0.0,0.0,0.0,0.0,0.0,0.0,0.0,0.0,0.0,0.0,0.0,0.0,0.0,0.0,0.0,0.0,0.0,0.0,0.0,0.0,0.0,0.0,0.0,0.0,0.0,0.0,0.0,0.0,0.0,0.0,0.0,0.0,0.0,0.0,0.0,0.0,0.0,0.0,0.0,0.0,0.0,0.0,0.0,0.0,0.0,0.0,0.0,0.0,0.0,0.0,0.0,0.0,0.0,0.0,0.0,0.0,0.0,0.0,0.0,0.0,-0.2102,-0.2331,-0.2493,-0.2544,-0.2551,-0.2518,-0.2436,-0.1935,-0.1522,-0.1419,0.0,0.0,0.0,0.0,0.0,0.0,0.0,0.0,0.0,0.0,0.0,0.0,0.0,0.0,0.0,0.0,0.0,0.0,0.0,0.0,0.0,0.0,0.0,0.0,0.0,0.0,0.0,0.0,0.0,0.0,0.0,0.0,0.0,0.0,0.0,0.0,0.0,0.0,0.0,0.0,0.0,0.0,0.0,0.0,0.0,0.0,0.0,0.0,0.0,0.0,0.0,0.0,0.0,0.0,0.0,0.0,0.0,0.0,0.0,0.0,0.0,0.0,0.0,0.0,0.0,0.0,0.0,0.0,0.0,0.0,0.0,0.0,0.0,0.0,0.0,0.0,0.0,0.0,0.0,0.0,0.0,0.0,0.0,0.0,0.0,0.0,0.0,0.0,0.0,0.0,0.0,0.0,0.0,0.0,0.0,0.0,0.0,0.0,0.0,0.0,0.0,0.0,-0.2129,-0.2365,-0.2533,-0.2579,-0.2597,-0.2403,-0.1998,-0.1214,-0.0715,-0.0623,0.0,0.0,0.0,0.0,0.0,0.0,0.0,0.0,0.0,0.0,0.0,0.0,0.0,0.0,0.0,0.0,0.0,0.0,0.0,0.0,0.0,0.0,0.0,0.0,0.0,0.0,0.0,0.0,0.0,0.0,0.0,0.0,0.0,0.0,0.0,0.0,0.0,0.0,0.0,0.0,0.0,0.0,0.0,0.0,0.0,0.0,0.0,0.0,0.0,0.0,0.0,0.0,0.0,0.0,0.0,0.0,0.0,0.0,0.0,0.0,0.0,0.0,0.0,0.0,0.0,0.0,0.0,0.0,0.0,0.0,0.0,0.0,0.0,0.0,0.0,0.0,0.0,0.0,0.0,0.0,0.0,0.0,0.0,0.0,0.0,0.0,0.0,0.0,0.0,0.0,0.0,0.0,0.0,0.0,0.0,0.0,0.0,0.0,0.0,0.0,0.0,0.0,-0.2143,-0.2375,-0.2536,-0.2568,-0.2597,-0.2245,-0.1531,-0.0614,0.0,0.0,0.0,0.0,0.0,0.0,0.0,0.0,0.0,0.0,0.0,0.0,0.0,0.0,0.0,0.0,0.0,0.0,0.0,0.0,0.0,0.0,0.0,0.0,0.0,0.0,0.0,0.0,0.0,0.0,0.0,0.0,0.0,0.0,0.0,0.0,0.0,0.0,0.0,0.0,0.0,0.0,0.0,0.0,0.0,0.0,0.0,0.0,0.0,0.0,0.0,0.0,0.0,0.0,0.0,0.0,0.0,0.0,0.0,0.0,0.0,0.0,-0.1235,0.0,0.0,0.0,0.0,0.0,0.0,0.0,0.0,0.0,0.0,0.0,0.0,0.0,0.0,0.0,0.0,0.0,0.0,0.0,0.0,0.0,0.0,0.0,0.0,0.0,0.0,0.0,0.0,0.0,0.0,0.0,0.0,0.0,0.0,0.0,0.0,0.0,0.0,0.0,0.0,0.0,-0.2233,-0.245,-0.2604,-0.2658,-0.2671,-0.2645,-0.2412,-0.094,0.0,0.0,0.0,0.0,0.0,0.0,0.0,0.0,0.0,0.0,0.0,0.0,0.0,0.0,0.0,0.0,0.0,0.0,0.0,0.0,0.0,0.0,0.0,0.0,0.0,0.0,0.0,0.0,0.0,0.0,0.0,0.0,0.0,0.0,0.0,0.0,0.0,0.0,0.0,0.0,0.0,0.0,0.0,0.0,0.0,0.0,0.0,0.0,0.0,0.0,0.0,0.0,0.0,0.0,0.0,0.0,0.0,0.0,0.0,0.0,0.0,0.0,0.0,-0.042,0.0,0.0,0.0,0.0,0.0,0.0,0.0,0.0,0.0,0.0,0.0,0.0,0.0,0.0,0.0,0.0,0.0,0.0,0.0,0.0,0.0,0.0,0.0,0.0,0.0,0.0,0.0,0.0,0.0,0.0,0.0,0.0,0.0,0.0,0.0,0.0,0.0,0.0,0.0,0.0,-0.2245,-0.2477,-0.2635,-0.2669,-0.2698,-0.2679,-0.2753,-0.0962,0.0,0.0,0.0,0.0,0.0,0.0,0.0,0.0,0.0,0.0,0.0,0.0,0.0,0.0,0.0,0.0,0.0,0.0,0.0,0.0,0.0,0.0,0.0,0.0,0.0,0.0,0.0,0.0,0.0,0.0,0.0,0.0,0.0,0.0,0.0,0.0,0.0,0.0,0.0,0.0,0.0,0.0,0.0,0.0,0.0,0.0,0.0,0.0,0.0,0.0,0.0,0.0,0.0,0.0,0.0,0.0,-0.0357,-0.0361,-0.1096,-0.037,0.0,0.0,0.0,0.0,0.0,0.0,0.0,0.0,0.0,0.0,0.0,0.0,0.0,0.0,0.0,0.0,0.0,0.0,0.0,0.0,0.0,0.0,0.0,0.0,0.0,0.0,0.0,0.0,0.0,0.0,-0.1943,-0.2086,0.0,0.0,0.0,0.0,0.0,0.0,0.0,0.0,0.0,0.0,0.0,0.0,-0.214,-0.2199,-0.2499,-0.2673,-0.2717,-0.2533,-0.2268,-0.082,0.0,0.0,0.0,0.0,0.0,0.0,0.0,0.0,0.0,0.0,0.0,0.0,0.0,0.0,0.0,0.0,0.0,0.0,0.0,0.0,0.0,0.0,0.0,0.0,0.0,0.0,0.0,0.0,0.0,0.0,0.0,0.0,0.0,0.0,0.0,0.0,-0.0854,-0.1284,0.0,0.0,0.0,0.0,0.0,0.0,0.0,0.0,0.0,0.0,0.0,0.0,0.0,-0.0804,-0.0119,-0.0124,-0.0128,-0.013,-0.0,-0.0,-0.0137,-0.0,0.0,0.0,0.0,0.0,0.0,0.0,0.0,0.0,0.0,0.0,0.0,0.0,0.0,0.0,0.0,0.0,0.0,0.0,0.0,0.0,0.0,0.0,0.0,0.0,0.0,0.0,0.0,0.0,-0.116,-0.1322,-0.1775,-0.2221,0.0,-0.144,-0.082,-0.0823,0.0,0.0,0.0,0.0,0.0,0.0,0.0,0.0,-0.2178,-0.1815,-0.1709,-0.2591,-0.2773,-0.2062,-0.0503,-0.0166,0.0,0.0,0.0,0.0,0.0,0.0,0.0,0.0,0.0,0.0,0.0,0.0,0.0,0.0,0.0,0.0,0.0,0.0,0.0,0.0,0.0,0.0,0.0,0.0,0.0,0.0,0.0,0.0,0.0,0.0,0.0,0.0,0.0,0.0,0.0,-0.1028,-0.1171,-0.1449,-0.1181,-0.1035,0.0,0.0,0.0,0.0,0.0,0.0,0.0,0.0,0.0,-0.0614,-0.062,-0.0382,-0.0,0.0,0.0,0.0,0.0,0.0,0.0,0.0,0.0,0.0,0.0,0.0,0.0,0.0,0.0,0.0,0.0,0.0,0.0,0.0,0.0,0.0,0.0,0.0,0.0,0.0,0.0,0.0,0.0,0.0,0.0,0.0,0.0,0.0,0.0,0.0,0.0,-0.0753,-0.1364,-0.2276,-0.2292,-0.1308,-0.0273,0.0,-0.0386,-0.0619,-0.1018,0.0,0.0,0.0,0.0,-0.1053,-0.2084,-0.2028,-0.1921,-0.1228,-0.1235,-0.0878,-0.0,0.0,0.0,0.0,0.0,0.0,0.0,0.0,0.0,0.0,0.0,0.0,0.0,0.0,0.0,0.0,0.0,0.0,0.0,0.0,0.0,0.0,0.0,0.0,0.0,0.0,0.0,0.0,0.0,0.0,0.0,0.0,0.0,0.0,0.0,0.0,0.0,-0.1403,-0.1448,-0.1315,-0.0856,-0.0621,0.0,0.0,0.0,0.0,0.0,0.0,-0.0952,-0.0972,-0.0631,-0.0,0.0,0.0,0.0,0.0,0.0,0.0,0.0,0.0,0.0,0.0,0.0,0.0,0.0,0.0,0.0,0.0,0.0,0.0,0.0,0.0,0.0,0.0,0.0,0.0,0.0,0.0,0.0,0.0,0.0,0.0,0.0,0.0,0.0,0.0,0.0,0.0,0.0,-0.073,-0.104,-0.0153,-0.0924,-0.1702,-0.1717,-0.078,0.0,0.0,0.0,-0.0275,-0.0883,0.0,0.0,0.0,0.0,-0.032,-0.133,-0.174,-0.1432,-0.0179,0.0,0.0,0.0,0.0,0.0,0.0,0.0,0.0,0.0,0.0,0.0,0.0,0.0,0.0,0.0,0.0,0.0,0.0,0.0,0.0,0.0,0.0,0.0,0.0,0.0,0.0,0.0,0.0,0.0,0.0,0.0,0.0,0.0,0.0,0.0,0.0,0.0,0.0,0.0,0.0,0.0,-0.0239,-0.0,0.0,0.0,0.0,0.0,-0.1288,-0.0476,-0.0,-0.0,-0.0,-0.0,-0.0,0.0,0.0,0.0,0.0,0.0,0.0,0.0,0.0,0.0,0.0,0.0,0.0,0.0,0.0,0.0,0.0,0.0,0.0,0.0,0.0,0.0,0.0,0.0,0.0,0.0,0.0,0.0,0.0,0.0,0.0,0.0,0.0,0.0,0.0,0.0,0.0,0.0,-0.0,-0.0,-0.0,-0.0,-0.0162,-0.0162,-0.0,0.0,0.0,0.0,-0.0,-0.0,0.0,0.0,0.0,0.0,-0.0,-0.0178,-0.0182,-0.0185,-0.0,0.0,0.0,0.0,0.0,0.0,0.0,0.0,0.0,0.0,0.0,0.0,0.0,0.0,0.0,0.0,0.0,0.0,0.0,0.0,0.0,0.0,0.0,0.0,0.0,0.0,0.0,0.0,0.0,0.0,0.0,0.0,0.0,0.0,0.0,0.0,0.0,0.0,0.0,0.0,0.0,0.0,-0.1363,-0.05,0.0,0.0,-0.0247,-0.0504,-0.0514,-0.0133,0.0,0.0,0.0,0.0,0.0,0.0,0.0,0.0,0.0,0.0,0.0,0.0,0.2391,0.6846,0.7275,0.6013,0.3728,0.3566,0.3397,0.354,0.3499,0.2168,0.0,0.0,0.0,0.0,0.0,0.0,0.0,0.0,0.0,0.0,0.0,0.0,0.0,0.0,0.0,0.0,0.0,0.0,0.0,0.0,0.0,0.0,0.0,0.0,0.0,0.0,0.0,0.0,0.0,0.0,0.0,0.0,0.0,0.0,0.0,0.0,0.0,0.0,0.0,0.0,0.0,0.0,0.0,0.0,0.0,0.0,0.0,0.0,0.0,0.0,0.0,0.0,0.0,0.0,0.0,0.0,0.0,0.0,0.0,0.0,0.0,0.0,0.0,0.0,0.0,0.0,0.0,0.0,0.0,0.0,0.0,0.0,0.0,0.0,0.0,0.0,0.0,0.0,0.0,0.0,-0.1423,-0.1488,-0.1277,-0.0517,0.0,0.0,0.0,0.0,0.0,0.0,0.0,0.0,0.0,0.0,0.0,0.0,0.0,0.0,0.2544,0.3854,0.3886,0.2628,0.4457,0.9071,1.0565,0.9948,0.7729,0.7562,0.7379,0.7346,0.7263,0.5799,0.3435,0.2331,0.1861,0.1862,0.1876,0.1098,0.0,0.0,0.0,0.0,0.0,0.0,0.0,0.0,0.0,0.0,0.0,0.0,0.0,0.0,0.0,0.0,0.0,0.0,0.0,0.0,0.0,0.0,0.0,0.0,0.0,0.0,0.0,0.0,0.0,0.0,0.0,0.0,0.0,0.0,0.0,0.0,0.0,0.0,0.0,0.0,0.0,0.0,0.0,0.0,0.0,0.0,0.0,0.0,0.0,0.0,0.0,0.0,0.0,0.0,0.0,0.0,0.0,0.0,0.0,0.0,0.0,0.0,0.0,0.0,0.0,0.0,0.0,0.0,0.0,0.0,0.0,0.0,0.0,-0.1334,-0.1492,-0.1153,-0.0132,0.0,0.0,0.0,0.0,0.0,0.0,0.0,0.0,0.0,0.0299,0.0304,0.0304,0.0315,0.0161,0.0163,0.7596,1.1455,1.1533,0.7707,0.5842,0.607,0.9572,1.1334,1.1513,1.1513,1.1274,1.1158,1.0862,1.0742,1.0453,0.6855,0.5515,0.5515,0.5518,0.3246,0.0163,0.0165,0.0167,0.0169,0.0,0.0,0.0,0.0,0.0,0.0,0.0,0.0,0.0,0.0,0.0,0.0,0.0,0.0,0.0,0.0,0.0,0.0,0.0,0.0,0.0,0.0,0.0,0.0,0.0,0.0,0.0,0.0,0.0,0.0,0.0,0.0,0.0,0.0,0.0,0.0,0.0,0.0,0.0,0.0,0.0,0.0,0.0,0.0,0.0,0.0,0.0,0.0,0.0,0.0,0.0,0.0,0.0,0.0,0.0,0.0,0.0,0.0,0.0,0.0,0.0,0.0,0.0,0.0,0.0,0.0,0.0,-0.0999,-0.1294,-0.1546,-0.0932,-0.0274,-0.0,0.0,0.0,0.0,0.0,0.0,0.0,0.0,0.0,0.0,0.5361,0.8353,0.8267,0.5587,0.4163,0.421,0.6476,0.8955,1.1479,1.0575,1.0083,1.0214,1.1266,1.1693,1.1504,1.1504,1.1482,1.1444,1.1324,1.1253,1.1166,0.9798,0.9273,0.9283,0.9197,0.7146,0.4214,0.4091,0.4115,0.3614,0.0868,0.0,0.0,0.0,0.0,0.0,0.0,0.0,0.0,0.0,0.0,0.0,0.0,0.0,0.0,0.0,0.0,0.0,0.0,0.0,0.0,0.0,0.0,0.0,0.0,0.0,0.0,0.0,0.0,0.0,0.0,0.0,0.0,0.0,0.0,0.0,0.0,0.0,0.0,0.0,0.0,0.0,0.0,0.0,0.0,0.0,0.0,0.0,0.0,0.0,0.0,0.0,0.0,0.0,0.0,0.0,0.0,0.0,0.0,0.0,0.0,0.0,0.0,0.0,0.0,0.0,0.0,-0.0529,-0.0817,-0.097,-0.0421,0.0,0.0,0.0,0.0,0.0,0.0,0.0,0.0,0.2731,0.4632,0.4777,0.7471,0.9927,1.1622,0.9507,0.8244,0.8201,0.8456,0.9596,1.1638,1.1765,1.1809,1.1973,1.1925,1.1824,0.0,1.1862,1.183,1.1775,1.1656,1.1574,0.0,0.0,0.0,0.0,0.0,0.9669,0.8023,0.8078,0.8125,0.7814,0.5562,0.2699,0.0,0.0,0.0,0.0,0.0,0.0,0.0,0.0,0.0,0.0,0.0,0.0,0.0,0.0,0.0,0.0,0.0,0.0,0.0,0.0,0.0,0.0,0.0,0.0,0.0,0.0,0.0,0.0,0.0,0.0,0.0,0.0,0.0,0.0,0.0,0.0,0.0,0.0,0.0,0.0,0.0,0.0,0.0,0.0,0.0,0.0,0.0,0.0,0.0,0.0,0.0,0.0,0.0,0.0,0.0,0.0,0.0,0.0,0.0,0.0,0.0,0.0,0.0,0.0,0.0,0.0,0.0,0.0,0.0,0.0,0.0,0.0,0.0,0.0,0.0744,0.1194,0.1235,0.6733,1.0549,1.1498,0.0,0.0,0.0,0.0,1.1868,1.1748,1.1842,1.1947,1.1889,1.1868,1.1911,1.2015,1.2009,1.2069,1.2172,1.2172,1.2107,1.1998,1.19,1.1797,1.1677,1.152,1.1455,1.146,1.1303,1.1314,0.0,0.0,0.0,0.0,1.1125,0.6499,0.0929,0.0744,0.037,0.0,0.0,0.0,0.0,0.0,0.0,0.0,0.0,0.0,0.0,0.0,0.0,0.0,0.0,0.0,0.0,0.0,0.0,0.0,0.0,0.0,0.0,0.0,0.0,0.0,0.0,0.0,0.0,0.0,0.0,0.0,0.0,0.0,0.0,0.0,0.0,0.0,0.0,0.0,0.0,0.0,0.0,0.0,0.0,0.0,0.0,0.0,0.0,0.0,0.0,0.0,0.0,0.0,0.0,0.0,0.0,0.0,0.0,0.0,0.0,0.0,0.0,0.0,0.0,0.0,0.0,0.0,0.0,0.0,0.0,0.0,0.5222,0.8604,0.8586,0.7318,0.7948,1.1368,1.0795,1.0825,1.1883,1.1815,1.1942,1.1895,1.1917,1.1993,1.1935,0.0,0.0,1.2156,1.2145,1.215,1.2172,1.2172,1.2156,1.2134,1.2112,1.2091,1.2025,1.1618,1.1455,1.1465,1.1569,1.1607,1.1618,1.1721,1.1775,1.1446,0.9313,0.7698,0.6432,0.5347,0.2677,0.0,0.0,0.0,0.0,0.0,0.0,0.0,0.0,0.0,0.0,0.0,0.0,0.0,0.0,0.0,0.0,0.0,0.0,0.0,0.0,0.0,0.0,0.0,0.0,0.0,0.0,0.0,0.0,0.0,0.0,0.0,0.0,0.0,0.0,0.0,0.0,0.0,0.0,0.0,0.0,0.0,0.0,0.0,0.0,0.0,0.0,0.0,0.0,0.0,0.0,0.0,0.0,0.0,0.0,0.0,0.0,0.0,0.0,0.0,0.0,0.394,0.0586,0.0,0.1196,0.4578,0.5228,0.5225,0.5013,0.524,0.4668,0.2951,0.5971,0.8809,1.0683,0.924,0.9249,1.1558,1.1505,1.1726,1.2096,1.1911,1.1987,1.2172,1.2112,1.2112,1.1994,1.2172,1.221,1.2281,1.239,1.2471,1.2536,1.2656,1.2672,1.2618,1.2553,1.2531,1.2498,1.2199,1.2009,1.1911,1.1971,1.1993,1.2004,1.2063,1.2091,1.1736,1.0507,1.0194,1.0271,0.9836,0.8267,0.6082,0.3938,0.3342,0.3333,0.3333,0.3343,0.335,0.314,0.158,0.0,0.0,0.0,0.0,0.0,0.0,0.0,0.0,0.0,0.0,0.0,0.0,0.0,0.0,0.0,0.0,0.0,0.0,0.0,0.0,0.0,0.0,0.0,0.4342,0.6667,0.6437,0.2338,0.0,0.0,0.0,0.0,0.0,0.0,0.0,0.0,0.0,0.0,0.0,0.0,0.0,0.0,0.0,0.0,0.0,0.396,0.1088,0.1016,0.0914,0.0943,0.0988,0.4887,0.6739,0.2572,0.1958,0.3924,0.9325,1.0457,1.0457,1.0169,1.042,0.9555,0.6738,0.6435,0.7836,1.097,1.1113,1.1345,1.171,1.1629,1.1835,1.2194,1.2091,1.2129,1.2352,1.2281,1.2254,1.2275,1.2297,1.2362,1.2466,1.2656,1.2797,1.2895,1.3064,1.3069,1.296,1.2857,1.2819,1.2808,1.271,1.2569,1.2422,1.2395,1.239,1.239,1.239,1.2395,1.2235,1.2352,1.2417,1.2689,1.3106,1.3128,1.2484,0.9097,0.8099,0.8103,0.8106,0.8096,0.8069,0.7814,0.5,0.1999,0.0399,0.0,0.0,0.0,0.0,0.0,0.0,0.0,0.0,0.0,0.0,0.0,0.0,0.0,0.0,0.0,0.0,0.0,0.0,0.0,0.0,0.0,0.6985,1.1555,1.3066,0.6335,0.1779,0.0,0.0,0.0,0.0,0.0,0.0,0.0,0.0,0.0,0.7502,0.7361,0.7247,0.7557,0.7823,0.7609,0.0,0.5454,0.4777,0.4461,0.4371,0.4404,0.4479,0.2551,0.2872,0.8008,0.8952,0.9336,1.0521,1.0543,1.0407,1.0501,1.0373,1.0438,1.0394,1.0485,1.0597,1.1091,1.1296,1.1395,1.1764,1.1792,1.196,1.2324,1.2216,1.2216,1.2352,1.2449,1.2547,1.2645,1.2754,1.2814,1.283,1.2857,1.2873,1.2884,1.2803,1.27,1.2596,1.258,1.2574,1.2574,1.2558,1.2602,1.2651,1.2553,1.2515,1.2515,1.2515,1.2515,1.2536,1.2651,1.2765,1.2879,1.3015,1.3338,1.3227,1.2821,1.2837,1.2853,1.2869,1.2795,1.2925,1.2732,1.2114,0.94,0.1616,0.0,0.0,0.0,0.0,0.0,0.0,0.0,0.0,0.0,0.0,0.0,0.0,0.0,0.0,0.0,0.0,0.0,0.0,0.0,0.0,0.0,0.1,0.518,1.3211,1.2113,0.7881,0.0196,0.0,0.0,0.0,0.0,0.0,0.0,0.0,0.0,0.8443,0.8214,0.8024,0.8263,0.8601,0.8553,0.7845,0.779,0.7907,0.7752,0.7814,0.784,0.7942,0.6724,0.6135,0.7003,0.7686,0.8697,1.0237,1.0589,1.0727,1.0596,1.0732,1.0786,1.0865,1.1025,1.1213,1.1406,1.1395,1.1612,1.19,1.1987,1.2156,1.2449,1.2411,1.2477,1.2661,1.2716,1.2727,1.2705,1.2759,1.2748,1.2689,1.2825,1.296,1.3086,1.3037,1.2988,1.2944,1.2944,1.2944,1.2944,1.2944,1.2971,1.2982,1.2727,1.2678,1.2738,1.2738,1.2738,1.2748,1.2797,1.2846,1.2912,1.3037,1.3113,1.3172,1.3238,1.3265,1.327,1.3281,1.3449,1.3399,1.3344,1.1885,0.9596,0.5853,0.4464,0.3878,0.3864,0.1837,0.0,0.0,0.0,0.0,0.0,0.0,0.1818,0.6881,0.7487,0.6679,0.4265,0.3861,0.3869,0.389,0.4117,0.412,0.3893,0.6594,0.9672,1.3217,1.0762,0.8687,0.7595,0.2595,0.0,0.0,0.0,0.0,0.0,0.0,0.0,0.8921,0.878,0.8617,0.8818,0.9225,0.9419,0.9177,0.9446,0.9645,0.9704,0.9899,0.9937,1.0064,1.0109,0.9211,0.6923,0.7314,0.8513,1.0206,1.0766,1.0948,1.0829,1.1052,1.1128,1.0954,1.1096,1.1297,1.1536,1.1667,1.1851,1.2123,1.2221,1.2401,1.2672,1.2618,1.2661,1.2835,1.2873,1.2841,1.2754,1.2819,1.2808,1.2738,1.2939,1.3107,1.3238,1.3276,1.3254,1.3194,1.3227,1.3221,1.3194,1.3227,1.3238,1.3205,1.295,1.2906,1.2982,1.2982,1.2982,1.2988,1.3026,1.3037,1.3058,1.3178,1.3216,1.3232,1.3314,1.3341,1.3346,1.3385,1.3374,1.3336,1.3292,1.1592,1.0103,1.0032,0.925,0.8678,0.8678,0.6009,0.3332,0.2095,0.1887,0.1889,0.19,0.1861,0.4689,1.2359,1.3156,1.1905,0.8851,0.8628,0.8639,0.8696,0.8983,0.8998,0.8707,1.2021,1.373,1.3449,0.9143,0.7676,0.9243,0.3279,0.0,0.0,0.0,0.0,0.0,0.0,0.0,0.8633,0.8769,0.8965,0.909,0.9389,0.9655,0.965,0.9655,0.9693,0.9807,0.9835,0.9873,0.9992,1.0128,1.0221,1.0226,1.0318,1.0476,1.0887,1.0742,1.0824,1.1063,1.1302,1.1438,1.1433,1.1438,1.1547,1.1792,1.1911,1.2134,1.2498,1.2526,1.2689,1.3042,1.2825,1.2705,1.271,1.283,1.2884,1.2884,1.3113,1.3221,1.3221,1.3346,1.3346,1.3243,1.3363,1.3287,1.3086,1.3194,1.3172,1.3086,1.3194,1.3238,1.3238,1.3227,1.3227,1.3227,1.3227,1.3227,1.3249,1.3368,1.3406,1.3428,1.3553,1.3586,1.3591,1.3591,1.3591,1.3624,1.3546,1.3492,1.3651,1.3573,1.3514,1.3428,1.3423,1.3423,1.3428,1.3645,1.3558,1.1787,0.7345,0.6665,0.6627,0.6627,0.6621,0.8546,1.3651,1.3564,1.3053,1.3053,1.3166,1.3308,1.3308,1.3636,1.3862,1.3738,1.3957,1.4035,1.3918,0.9526,0.5093,0.0425,0.0212,0.0,0.0,0.0,0.0,0.0,0.0,0.0,0.9008,0.9068,0.916,0.9514,0.9753,0.9921,1.0003,1.0085,1.0155,1.0193,1.0204,1.0237,1.0356,1.0351,1.0356,1.0433,1.0547,1.0655,1.0737,1.0944,1.115,1.1319,1.1476,1.1639,1.1792,1.1743,1.1764,1.1917,1.2118,1.2319,1.2526,1.2683,1.2825,1.2944,1.295,1.295,1.295,1.3145,1.32,1.3118,1.3124,1.3086,1.3009,1.3047,1.3047,1.3009,1.3047,1.302,1.296,1.308,1.3102,1.3091,1.3281,1.3357,1.3368,1.345,1.3482,1.3455,1.3292,1.3238,1.3243,1.3287,1.3357,1.3412,1.3374,1.3417,1.3482,1.3482,1.3482,1.3515,1.364,1.3586,1.3504,1.3553,1.3466,1.3379,1.3379,1.3444,1.3504,1.3504,1.3758,1.318,1.1533,1.1312,1.1316,1.137,1.1587,1.2073,1.3625,1.3592,1.3374,1.323,1.3412,1.3417,1.3499,1.383,1.3852,1.3725,1.3874,1.3879,1.3901,1.2435,1.094,0.9419,0.3134,0.0,0.0,0.0,0.0,0.0,0.0,0.0,0.9454,0.9476,0.9492,0.9927,1.009,1.0172,1.0253,1.0329,1.04,1.0438,1.0378,1.0367,1.0525,1.0498,1.0514,1.0721,1.0889,1.1025,1.1112,1.1324,1.1498,1.1574,1.1688,1.1841,1.2036,1.2069,1.2107,1.2178,1.2368,1.2569,1.2776,1.2895,1.2993,1.3075,1.3075,1.3069,1.3069,1.3221,1.3276,1.3238,1.3124,1.3053,1.3015,1.3058,1.308,1.3086,1.3172,1.3183,1.3156,1.3319,1.3363,1.3346,1.3537,1.3613,1.3624,1.37,1.3727,1.3689,1.3401,1.3303,1.3303,1.3303,1.3357,1.3412,1.3379,1.3423,1.3488,1.3488,1.3488,1.3515,1.364,1.3613,1.3564,1.3602,1.3553,1.3493,1.3493,1.3558,1.3613,1.3613,1.3656,1.3716,1.3787,1.3567,1.3567,1.3632,1.3819,1.3867,1.3725,1.3488,1.3488,1.3548,1.3515,1.352,1.3597,1.3716,1.3732,1.3613,1.376,1.3765,1.3791,1.3824,1.3824,1.3985,0.8022,0.3374,0.0,0.0,0.0,0.0,0.0,0.0,0.9894,0.9943,0.9949,1.0307,1.04,1.0405,1.0411,1.0416,1.0449,1.0547,1.0384,1.0297,1.0514,1.0563,1.0683,1.1036,1.1297,1.1536,1.177,1.1808,1.1824,1.183,1.1928,1.2047,1.2178,1.2411,1.2558,1.2569,1.2667,1.2873,1.3221,1.3145,1.3189,1.3406,1.3194,1.3075,1.3069,1.3086,1.314,1.3249,1.314,1.3145,1.3249,1.3368,1.3423,1.3444,1.3678,1.3711,1.3624,1.3852,1.3885,1.3798,1.3912,1.395,1.395,1.395,1.3944,1.389,1.3542,1.3428,1.3439,1.3439,1.3439,1.3461,1.3569,1.3607,1.3613,1.3613,1.3613,1.364,1.3765,1.3792,1.3814,1.3923,1.3944,1.3939,1.3939,1.3939,1.3939,1.3939,1.3857,1.3787,1.3792,1.37,1.3624,1.3624,1.3624,1.37,1.3912,1.3847,1.3781,1.3787,1.3684,1.3613,1.3624,1.3722,1.3738,1.3624,1.3819,1.389,1.3781,1.3879,1.395,1.3755,1.376,0.9375,0.0654,0.0218,0.0,0.0,0.0,0.0,0.9965,1.0134,1.0291,1.0471,1.0579,1.0672,1.0764,1.0857,1.0878,1.0721,1.0645,1.059,1.0563,1.0628,1.0753,1.0938,1.1243,1.1476,1.1542,1.1705,1.1851,1.1933,1.2053,1.221,1.2422,1.2656,1.2868,1.3047,1.3009,1.3053,1.3227,1.3298,1.3319,1.3287,1.3227,1.3156,1.3075,1.3243,1.3346,1.3374,1.3346,1.3346,1.3374,1.3406,1.3471,1.3558,1.3624,1.3635,1.3613,1.3765,1.3814,1.3798,1.3912,1.3906,1.383,1.383,1.377,1.3667,1.3482,1.3542,1.3694,1.3694,1.3694,1.3684,1.3624,1.3667,1.3743,1.3743,1.3743,1.3765,1.3885,1.3852,1.3792,1.3825,1.376,1.3694,1.3694,1.3694,1.3694,1.3694,1.3743,1.3814,1.3901,1.389,1.3868,1.3868,1.3868,1.3825,1.3711,1.3667,1.3684,1.3776,1.376,1.3776,1.3857,1.3819,1.3776,1.3743,1.3711,1.3684,1.3651,1.3678,1.3694,1.3705,1.3716,1.2428,1.0064,0.3209,0.0,0.0,0.0,0.0,1.0286,1.0433,1.0568,1.0688,1.0764,1.0819,1.0835,1.0895,1.0873,1.0634,1.0541,1.0481,1.0411,1.0628,1.0873,1.1047,1.1465,1.1786,1.1841,1.1966,1.208,1.214,1.221,1.2368,1.2661,1.2857,1.3042,1.3227,1.3178,1.3221,1.339,1.3314,1.3281,1.3319,1.3221,1.3183,1.3221,1.3303,1.3395,1.3504,1.3444,1.3477,1.358,1.358,1.3645,1.376,0.0,1.3809,1.3765,1.389,1.3912,1.3868,1.3934,1.3917,1.3863,1.3863,1.3819,1.3749,1.3678,1.3716,1.377,1.3662,1.3629,1.3624,1.3607,1.3651,1.3705,1.3705,1.3705,1.3722,1.3787,1.3754,1.3705,1.3705,1.3656,1.3602,1.3602,1.3602,1.3618,1.3673,1.3781,1.3879,1.3944,1.3955,1.3955,1.3955,1.3955,1.3906,1.3776,1.376,1.3787,1.3852,1.3863,1.389,1.395,1.3901,1.3863,1.3863,1.3798,1.3738,1.3689,1.3684,1.3662,1.3607,1.3613,1.3624,1.3629,0.8511,0.3828,0.0,0.0,0.0,1.0683,1.0748,1.0786,1.0895,1.0944,1.0933,1.0791,1.0748,1.0661,1.0394,1.0242,1.015,1.0134,1.0525,1.0933,1.1183,1.1716,1.215,1.2286,1.2335,1.2357,1.2357,1.2368,1.2515,1.2852,1.2982,1.3102,1.3227,1.3227,1.3314,1.3542,1.3259,1.3194,1.3412,1.3221,1.3216,1.3417,1.3346,1.3417,1.3629,1.3537,1.3613,1.3836,1.3836,1.3885,1.3988,0.0,0.0,1.3966,1.4069,1.4053,1.3955,1.3955,1.3955,1.3955,1.3955,1.3966,1.3983,1.3983,1.3928,1.3814,1.3553,1.3461,1.3466,1.3569,1.3602,1.3607,1.3624,1.3629,1.3635,1.3645,1.3651,1.3651,1.3651,1.3651,1.3651,1.3651,1.3651,1.3689,1.3809,1.3912,1.3988,1.4004,1.4004,1.4004,1.4004,1.4004,1.4004,1.4004,1.3977,1.3961,1.3977,1.3983,1.3988,1.4004,1.3988,1.3983,1.3983,1.3966,1.3912,1.3814,1.3809,1.376,1.3656,1.3651,1.3656,1.3678,1.3705,0.9192,0.0854,0.0214,0.0,1.0726,1.0813,1.0895,1.0916,1.1069,1.1156,1.0938,1.0808,1.0612,1.0172,0.9987,0.9873,0.978,1.0155,1.059,1.0927,1.14,1.1803,1.202,1.2227,1.2357,1.2357,1.2444,1.2607,1.2863,1.2906,1.3009,1.3221,1.3151,1.3156,1.3292,1.3243,1.3276,1.3417,1.3385,1.3379,1.3423,1.3602,1.3716,1.3754,1.383,1.3939,1.408,1.408,1.408,1.4108,1.4124,0.0,1.3955,1.3977,1.3977,1.3955,1.3955,1.3955,1.3955,1.3955,1.4021,1.4108,1.4108,1.4167,1.4167,1.3836,1.3656,1.3575,1.3597,1.3602,1.3624,1.3727,1.3754,1.3776,1.3868,1.3896,1.3896,1.3896,1.3896,1.3896,1.3896,1.3896,1.3928,1.4053,1.4097,1.414,1.4238,1.4249,1.4249,1.4249,1.4249,1.4249,1.4249,1.408,1.3993,1.4097,1.4108,1.4151,1.4249,1.4167,1.4108,1.4108,1.401,1.395,1.3928,1.3928,1.3917,1.3896,1.3896,1.3896,1.3901,1.3928,1.0874,0.5428,0.1738,0.0,1.0813,1.0873,1.0949,1.1074,1.1188,1.1177,1.0813,1.0639,1.04,0.9856,0.9693,0.9617,0.9503,0.9976,1.046,1.0693,1.1291,1.1813,1.2053,1.2297,1.2471,1.2531,1.2536,1.2656,1.2955,1.2928,1.296,1.314,1.3102,1.3118,1.3232,1.3298,1.3363,1.3417,1.3482,1.3548,1.3613,1.3727,1.3819,1.3874,1.3934,1.4021,1.414,1.4069,1.408,1.414,1.4069,0.0,1.3868,1.3868,1.383,1.3781,1.3841,1.3868,1.3874,1.3934,1.4031,1.414,1.414,1.4222,1.4292,1.4124,1.3983,1.3885,1.3885,1.3885,1.3896,1.395,1.4015,1.4069,1.4053,1.4053,1.4037,1.3972,1.3955,1.3955,1.3955,1.4004,1.4069,1.4124,1.4195,1.4249,1.4309,1.432,1.432,1.432,1.432,1.432,1.432,1.4222,1.4167,1.4222,1.4238,1.4249,1.432,1.4265,1.4238,1.4238,1.4178,1.4113,1.4053,1.4053,1.4021,1.3955,1.3955,1.3955,1.3955,1.3983,1.2679,1.049,0.3273,0.0,1.0884,1.0938,1.1009,1.1221,1.1291,1.1177,1.0672,1.0427,1.0139,0.9536,0.9389,0.9356,0.9313,0.9835,1.0346,1.0596,1.1237,1.1813,1.2129,1.2401,1.2607,1.2694,1.2623,1.2694,1.3004,1.2901,1.2873,1.302,1.308,1.3156,1.327,1.3368,1.3444,1.3499,1.3591,1.3689,1.3787,1.3814,1.3879,1.3993,1.3972,1.4021,1.414,1.401,1.3993,1.4053,1.3961,0.0,0.0,1.3787,1.3743,1.3689,1.3787,1.3857,1.3912,1.3999,1.414,1.4292,1.4292,1.4379,1.4477,1.4477,1.4336,1.4178,1.4178,1.4178,1.4178,1.4205,1.4292,1.4347,1.4265,1.4249,1.4222,1.414,1.4113,1.4113,1.4113,1.4178,1.4249,1.4222,1.4292,1.4347,1.432,1.432,1.432,1.432,1.432,1.432,1.432,1.432,1.432,1.432,1.432,1.432,1.432,1.432,1.432,1.432,1.432,1.4276,1.4178,1.4178,1.414,1.4037,1.4037,1.4037,1.4037,1.4053,1.408,1.3872,0.5488,0.0879,1.0884,1.1003,1.1118,1.1243,1.1357,1.1286,1.0688,1.0297,0.9883,0.9291,0.9079,0.9063,0.9264,0.9622,1.0106,1.0775,1.1128,1.152,1.2091,1.2471,1.2694,1.2705,1.2694,1.2743,1.289,1.27,1.2661,1.289,1.3102,1.3276,1.3395,1.3417,1.3526,1.3749,1.3765,1.3776,1.3787,1.389,1.3999,1.4124,1.401,1.4021,1.414,1.401,1.3906,1.3819,1.3809,0.0,0.0,1.3787,1.3841,1.3928,1.3939,1.408,1.4276,1.4276,1.4504,1.4787,1.4787,1.4869,1.4967,1.4967,1.4673,1.4309,1.4309,1.4309,1.432,1.4434,1.4477,1.4504,1.4602,1.4629,1.4619,1.4619,1.4602,1.4602,1.4602,1.4619,1.4586,1.4488,1.4477,1.445,1.4336,1.432,1.432,1.432,1.432,1.432,1.432,1.432,1.432,1.432,1.432,1.432,1.432,1.432,1.432,1.432,1.432,1.432,1.4309,1.4309,1.4292,1.4292,1.4292,1.4292,1.4292,1.4292,1.4309,1.4097,0.8933,0.4243,1.0998,1.1118,1.1232,1.1351,1.1313,1.1107,1.0574,1.0117,0.9699,0.9318,0.9084,0.9046,0.9356,0.959,0.9927,1.0503,1.0922,1.133,1.1786,1.2221,1.2547,1.2689,1.2645,1.2705,1.2971,1.2781,1.2738,1.2977,1.3145,1.3357,1.3629,1.3569,1.3607,1.3781,1.3716,1.3711,1.3787,1.383,1.3912,1.4026,1.3983,1.3983,1.4026,1.3906,1.3868,1.3885,1.3819,0.0,0.0,1.389,1.3917,1.3972,1.4124,1.4238,1.4336,1.4477,1.4619,1.4744,1.4744,1.4771,1.4825,1.4896,1.4798,1.4646,1.4646,1.4646,1.4657,1.47,1.4771,1.4814,1.4787,1.4727,1.4673,1.4673,1.4673,1.4673,1.4673,1.4673,1.4657,1.4619,1.4602,1.4575,1.445,1.4434,1.4407,1.4336,1.432,1.432,1.432,1.432,1.432,1.432,1.432,1.432,1.432,1.432,1.432,1.432,1.432,1.432,1.432,1.432,1.432,1.432,1.432,1.432,1.432,1.432,1.4336,1.4151,1.2344,0.7393,1.1145,1.1237,1.1302,1.1422,1.1275,1.0976,1.0498,1.0014,0.9579,0.9264,0.9068,0.9052,0.9372,0.9563,0.984,1.0351,1.0748,1.1166,1.1672,1.2063,1.2401,1.2672,1.2634,1.2683,1.2939,1.2873,1.2884,1.3058,1.3243,1.3461,1.3722,1.3684,1.3711,1.3836,1.3722,1.37,1.3787,1.3787,1.3841,1.3955,1.3885,1.3874,1.3906,1.3825,1.383,1.3906,1.3857,0.0,0.0,1.401,1.4031,1.408,1.4249,1.4347,1.4407,1.4602,1.47,1.4727,1.4771,1.4787,1.4798,1.4885,1.4912,1.4912,1.4912,1.4912,1.4912,1.4912,1.4967,1.5021,1.4923,1.4841,1.4787,1.4787,1.4787,1.4787,1.4787,1.4787,1.4771,1.4727,1.4727,1.4689,1.4575,1.4532,1.4477,1.439,1.4347,1.432,1.432,1.432,1.432,1.432,1.432,1.432,1.432,1.432,1.432,1.432,1.432,1.432,1.432,1.432,1.432,1.432,1.432,1.432,1.432,1.432,1.4336,1.4374,1.2801,0.7858,1.1319,1.1362,1.1302,1.1422,1.1275,1.0976,1.0498,1.0014,0.9536,0.9052,0.8954,0.9024,0.9264,0.9503,0.9862,1.046,1.0661,1.1031,1.1868,1.2096,1.2308,1.2661,1.2705,1.2705,1.2705,1.2928,1.3069,1.3069,1.3401,0.0,1.3607,1.3722,1.3836,1.395,1.3847,1.3787,1.3787,1.3787,1.3841,1.3955,1.3722,1.3673,1.3787,1.3787,1.3787,0.0,0.0,0.0,0.0,1.414,1.4205,1.432,1.432,1.439,1.4515,1.4629,1.4744,1.4869,1.4994,1.5037,1.5037,1.5037,1.5037,1.5037,1.5037,1.5037,1.5037,1.5037,1.5037,1.5037,1.5037,1.5037,1.5037,1.5037,1.5037,1.5037,1.5037,1.5037,1.4994,1.4885,1.4858,1.4814,1.4689,1.4575,1.4504,1.4504,1.4407,1.432,1.432,1.432,1.432,1.432,1.432,1.432,1.432,1.432,1.432,1.432,1.432,1.432,1.432,1.432,1.432,1.432,1.432,1.432,1.432,1.432,1.4336,1.4124,0.94,0.4721,1.0797,1.0933,1.102,1.0976,1.0786,1.053,1.021,0.9764,0.9378,0.9226,0.9128,0.9171,0.9497,0.9682,1.0008,1.0693,1.0905,1.1194,1.1792,1.2188,1.2493,1.2683,1.2922,1.3037,1.296,1.295,1.3015,1.3172,1.3292,1.3466,1.3716,1.3689,1.3716,1.3836,1.3722,1.3662,1.3662,1.3662,1.3678,1.3716,1.364,1.3667,1.3787,1.3787,1.3874,0.0,0.0,0.0,0.0,1.4347,1.4363,1.4336,1.4417,1.4477,1.4515,1.4629,1.4646,1.4619,1.4657,1.4619,1.4559,1.4646,1.4673,1.4684,1.4771,1.4912,1.5037,1.5037,1.5037,1.5037,1.5037,1.5037,1.5037,1.5037,1.5037,1.5037,1.5037,1.5037,1.5021,1.4983,1.4983,1.4939,1.4814,1.4771,1.4689,1.4532,1.4477,1.4417,1.4336,1.432,1.432,1.432,1.432,1.432,1.432,1.432,1.432,1.432,1.432,1.432,1.432,1.432,1.432,1.432,1.432,1.432,1.432,1.432,1.2525,0.94,0.4476,0.157,1.0536,1.0737,1.0835,1.0759,1.0525,1.0264,1.0063,0.965,0.9291,0.9247,0.922,0.928,0.9552,0.9731,1.0014,1.0563,1.0753,1.1063,1.1726,1.2036,1.2324,1.2661,1.2901,1.3026,1.3004,1.3015,1.308,1.3227,1.3281,1.3428,1.3705,1.3645,1.3618,1.3645,1.3618,1.3602,1.3602,1.3602,1.3602,1.3602,1.3651,1.3711,1.3792,1.3879,1.3999,0.0,0.0,0.0,0.0,1.445,1.4461,1.439,1.4477,1.4504,1.4515,1.4586,1.4559,1.4504,1.4548,1.4515,1.4461,1.4548,1.4575,1.4575,1.4646,1.4787,1.4923,1.501,1.501,1.4983,1.5021,1.5037,1.5037,1.5037,1.5037,1.5037,1.5037,1.5037,1.5037,1.5037,1.5037,1.501,1.4939,1.4885,1.4798,1.4657,1.4559,1.4477,1.4407,1.4347,1.432,1.432,1.432,1.432,1.432,1.432,1.432,1.432,1.432,1.432,1.432,1.432,1.432,1.432,1.432,1.432,1.432,1.4336,1.2762,0.9634,0.3131,0.0,0.0,1.0655,1.0672,1.0661,1.0411,1.0134,1.0008,0.9628,0.0,0.9166,0.9231,0.9351,0.9497,0.9693,0.9932,1.0221,1.0362,1.077,1.171,1.1775,1.1987,1.2683,1.2748,1.2781,1.2912,1.3107,1.3232,1.3238,1.3346,1.3466,1.3597,1.3602,1.3553,1.3439,1.3548,1.3602,1.3591,1.3602,1.3607,1.3618,1.3732,1.3798,1.3819,1.4037,1.414,0.0,0.0,0.0,0.0,1.445,1.4504,1.4488,1.4488,1.4488,1.4488,1.4488,1.4488,1.4504,1.4619,1.4646,1.4646,1.4646,1.4646,1.4646,1.4657,1.4673,1.4716,1.4956,1.4939,1.4885,1.4994,1.5037,1.5037,1.5037,1.5037,1.5037,1.5037,1.5037,1.5037,1.5037,1.5037,1.5037,1.5037,1.4939,1.4869,1.4858,1.4657,1.4515,1.4504,1.439,1.432,1.432,1.432,1.432,1.432,1.432,1.432,1.432,1.432,1.432,1.432,1.432,1.432,1.432,1.432,1.432,1.432,1.4336,1.4363,1.4161,0.5147,0.0675,0.9536,0.0,1.003,0.9943,0.9856,0.9764,0.0,0.9454,0.9296,0.9269,0.9285,0.9427,0.9824,0.9862,1.0068,1.0775,1.0916,1.1204,1.1982,1.2379,1.2792,1.333,1.3151,1.3064,1.3276,1.3183,1.3145,1.3232,1.3265,1.3374,1.3591,1.3602,1.3591,1.3564,1.3591,1.3558,1.3466,1.3558,1.3651,1.3743,1.377,1.3879,1.4053,1.4108,1.4195,0.0,0.0,0.0,1.4336,1.445,1.445,1.4363,1.4363,1.4363,1.4363,1.4363,1.4363,1.4363,1.439,1.4407,1.4407,1.4407,1.4407,1.4417,1.4515,1.4602,1.4689,1.4744,1.4798,1.4858,1.4896,1.4967,1.5037,1.5037,1.5037,1.5037,1.5037,1.5037,1.5037,1.5037,1.5037,1.5037,1.5037,1.501,1.4967,1.4869,1.4727,1.4602,1.4515,1.439,1.432,1.432,1.432,1.432,1.432,1.432,1.432,1.432,1.432,1.432,1.432,1.432,1.432,1.432,1.432,1.432,1.432,1.4336,1.4363,1.4167,1.1907,0.6964,0.916,0.9487,0.9758,0.9748,0.9709,0.9655,0.9584,0.9432,0.9302,0.9302,0.9394,0.9552,0.9813,1.0074,1.0384,1.0786,1.1177,1.1661,1.2324,1.2781,1.3167,1.3482,1.3352,1.3281,1.3406,1.3254,1.3194,1.3314,1.327,1.3346,1.3591,1.3602,1.3553,1.3439,1.3488,1.3515,1.3504,1.3569,1.3667,1.3787,1.3841,1.3961,1.414,1.4195,1.4265,0.0,0.0,0.0,1.4336,1.445,1.4461,1.4407,1.4407,1.4407,1.439,1.4336,1.432,1.432,1.432,1.432,1.432,1.432,1.432,1.4336,1.4407,1.4461,1.4548,1.4716,1.476,1.4798,1.4912,1.4983,1.5037,1.5037,1.5037,1.5037,1.5037,1.5037,1.5037,1.5037,1.5037,1.5037,1.5037,1.5037,1.501,1.4956,1.4787,1.4646,1.4586,1.4434,1.432,1.432,1.432,1.432,1.432,1.432,1.432,1.432,1.432,1.432,1.432,1.432,1.4347,1.4407,1.4347,1.4347,1.4407,1.4363,1.3212,1.0991,1.0999,0.7175,0.9084,0.9438,0.9726,0.9748,0.9715,0.9666,0.9644,0.9497,0.9362,0.9362,0.9525,0.9715,0.9862,1.034,1.0721,1.077,1.1406,1.2091,1.2629,1.2999,1.327,1.3428,1.3417,1.3401,1.3417,1.3308,1.3281,1.3385,1.3298,1.3346,1.3591,1.3602,1.351,1.3298,1.3395,1.3499,1.3602,1.3602,1.3673,1.3814,1.3928,1.4048,1.4167,1.4276,1.432,1.432,0.0,0.0,1.4336,1.4434,1.4477,1.4477,1.4477,1.4477,1.4461,1.4363,1.432,1.432,1.432,1.432,1.432,1.432,1.432,1.432,1.432,1.432,1.439,1.4716,1.4727,1.47,1.4923,1.4994,1.501,1.5037,1.5037,1.5037,1.5037,1.5037,1.5037,1.5037,1.5037,1.5037,1.5037,1.5037,1.5037,1.5037,1.4825,1.4673,1.4673,1.4461,1.432,1.432,1.432,1.432,1.432,1.432,1.432,1.432,1.432,1.432,1.432,1.432,1.4379,1.4504,1.4407,1.4407,1.4532,1.4407,1.2335,0.83,0.6719,0.3806,0.9155,0.9612,0.9873,0.9481,0.953,0.9644,0.9541,0.9568,0.9612,0.9612,0.9644,0.9916,1.0732,1.0721,1.0846,1.1639,1.2053,1.2373,1.2661,1.2933,1.3216,1.3537,1.3395,1.3308,1.3412,1.3308,1.3249,1.3265,1.3249,1.3346,1.3591,1.3602,1.3586,1.3548,1.3564,1.3586,1.3602,1.3602,1.3716,1.3934,1.4053,1.4178,1.4292,1.4309,1.432,0.0,0.0,1.432,1.432,1.4336,1.4347,1.4347,1.4347,1.4347,1.4347,1.432,1.432,1.432,1.432,1.432,1.432,1.432,1.432,1.432,1.432,1.432,1.4347,1.4515,1.4548,1.4559,1.47,1.4798,1.4912,1.501,1.5037,1.5037,1.5037,1.5037,1.5037,1.5037,1.5037,1.5037,1.5037,1.5037,1.5037,1.5037,1.4825,1.4673,1.4673,1.4461,1.432,1.432,1.432,1.432,1.432,1.432,1.432,1.432,1.432,1.432,1.432,1.432,1.4379,1.4504,1.4488,1.4532,1.4646,1.4317,1.3818,1.2902,0.4938,0.0672,0.8938,0.9318,0.9644,0.9682,1.0074,1.0443,1.0449,1.0394,1.0329,1.0259,1.0297,1.0481,1.0922,1.1134,1.1531,1.2428,1.2613,1.2727,1.296,1.3091,1.327,1.3569,0.0,1.3385,1.351,1.3292,1.32,1.3325,0.0,0.0,1.3591,1.3602,1.3602,1.3602,1.3477,1.3471,1.3602,1.3602,1.3722,1.3955,1.408,1.4205,1.432,1.432,1.432,1.432,0.0,1.432,1.432,1.432,1.432,1.432,1.432,1.432,1.432,1.432,1.432,1.432,1.432,1.432,1.432,1.432,1.432,1.432,1.432,1.432,1.4336,1.439,1.445,1.4532,1.4646,1.4716,1.4787,1.4912,1.4939,1.4956,1.5021,1.5037,1.5037,1.5037,1.5037,1.5037,1.5037,1.5037,1.501,1.4956,1.4787,1.4646,1.4586,1.4434,1.432,1.432,1.432,1.432,1.432,1.432,1.432,1.432,1.432,1.432,1.432,1.432,1.4379,1.4504,1.4504,1.4532,1.4586,1.4532,1.4263,1.4204,0.9877,0.4923,0.8883,0.922,0.9622,1.0074,1.052,1.0922,1.1204,1.1069,1.0884,1.09,1.1003,1.1112,1.1199,1.1683,1.2281,1.2922,1.295,1.296,1.3167,1.32,1.3276,1.3493,1.3433,1.3406,1.3471,1.3232,1.3145,1.3325,0.0,0.0,1.3591,1.3629,1.3662,1.3684,1.345,1.3439,1.3684,1.3662,1.3749,1.3955,1.4108,1.4238,1.432,1.432,1.432,1.432,1.432,1.432,1.432,1.432,1.432,1.432,1.432,1.432,1.432,1.432,1.432,1.432,1.432,1.432,1.432,1.432,1.432,1.432,1.432,1.432,1.432,1.432,1.439,1.4488,1.4629,1.4657,1.4673,1.4814,1.4831,1.4841,1.4923,1.4983,1.4994,1.4994,1.5021,1.5037,1.5037,1.501,1.4967,1.4869,1.4727,1.4602,1.4515,1.439,1.432,1.432,1.432,1.432,1.432,1.432,1.432,1.432,1.432,1.432,1.432,1.4347,1.4407,1.4504,1.4559,1.4586,1.4586,1.4559,1.4504,1.4417,1.4407,0.9869,0.9313,0.978,1.0226,1.0596,1.0389,1.0302,1.109,1.1003,1.0873,1.1313,1.1498,1.1688,1.202,1.2482,1.283,1.289,1.2895,1.2933,1.3064,1.3086,1.3129,1.3249,1.3254,1.3211,1.3118,1.3086,0.0,0.0,0.0,0.0,1.3591,1.3711,1.3825,1.3928,1.37,1.3689,1.3928,1.3825,1.3836,1.3961,1.4195,1.4309,1.432,1.432,1.432,1.432,1.432,1.432,1.432,1.432,1.432,1.432,1.432,1.432,1.432,1.432,1.432,1.432,1.432,1.432,1.432,1.432,1.432,1.432,1.432,1.432,1.432,1.432,1.432,1.439,1.4619,1.4586,1.4575,1.4798,1.4771,1.4689,1.47,1.4787,1.4869,1.4869,1.4956,1.5037,1.5037,1.4939,1.4869,1.4858,1.4657,1.4515,1.4504,1.439,1.432,1.432,1.432,1.432,1.432,1.432,1.432,1.432,1.432,1.432,1.432,1.4434,1.4488,1.4504,1.4716,1.4825,1.4825,1.4716,1.4657,1.4646,1.4477,1.1665,0.8992,0.9552,1.0161,1.0449,1.0661,1.0982,1.1672,1.1786,1.1813,1.2074,1.2161,1.2237,1.2373,1.2727,1.2977,1.2901,1.295,1.3015,1.3064,1.3069,1.3113,1.3227,1.3178,1.3118,1.3075,0.0,0.0,0.0,0.0,0.0,1.3705,1.383,1.3944,1.4069,1.3765,1.3716,1.3955,1.3841,1.3841,1.3961,1.4211,1.432,1.432,1.432,1.432,1.432,1.432,1.432,1.432,1.432,1.432,1.432,1.432,1.432,1.432,1.432,1.432,1.432,1.432,1.432,1.432,1.432,1.432,1.432,1.432,1.432,1.432,1.432,1.432,1.4336,1.4434,1.4417,1.4434,1.4602,1.4602,1.4586,1.4657,1.4716,1.4744,1.4744,1.4787,1.4814,1.4814,1.4771,1.4716,1.4646,1.4559,1.4477,1.4407,1.4347,1.432,1.432,1.432,1.432,1.432,1.432,1.432,1.432,1.432,1.432,1.432,1.4363,1.439,1.439,1.4548,1.4602,1.4521,1.4559,1.4532,1.445,1.4477,1.1938,0.9155,0.9639,1.0221,1.0579,1.0971,1.1438,1.2085,1.2237,1.2314,1.2591,1.2618,1.2623,1.2738,1.2868,1.2955,1.2944,1.2982,1.3015,1.3015,1.3015,1.3042,1.3118,1.3058,1.3015,0.0,0.0,0.0,0.0,0.0,0.0,0.0,1.3896,1.4031,1.4195,1.3847,1.3792,1.4069,1.3885,1.3863,1.4015,1.4222,1.432,1.432,1.432,1.432,1.432,1.432,1.432,1.432,1.432,1.432,1.432,1.432,1.432,1.432,1.432,1.432,1.432,1.432,1.432,1.432,1.432,1.432,1.432,1.432,1.432,1.432,1.432,1.432,1.432,1.432,1.432,1.4347,1.4477,1.4477,1.4461,1.4548,1.4586,1.4619,1.4619,1.4646,1.4673,1.4673,1.4646,1.4586,1.4515,1.4477,1.4417,1.4336,1.432,1.432,1.432,1.432,1.432,1.432,1.432,1.432,1.432,1.432,1.432,1.432,1.4363,1.4363,1.432,1.4477,1.4504,1.4379,1.4461,1.4461,1.4379,1.445,1.2625,0.9981,1.0199,1.053,1.1118,1.1275,1.1471,1.2194,1.2167,1.2167,1.2765,1.2792,1.2814,1.3167,1.2944,1.2786,1.3031,1.2966,1.289,1.289,1.289,1.289,1.289,1.289,1.289,0.0,0.0,0.0,0.0,0.0,0.0,0.0,1.3896,1.4069,1.4309,1.3972,1.3961,1.4309,1.3966,1.3906,1.414,1.4265,1.432,1.432,1.432,1.432,1.432,1.432,1.432,1.432,1.432,1.432,1.432,1.432,1.432,1.432,1.432,1.432,1.432,1.432,1.432,1.432,1.432,1.432,1.432,1.432,1.432,1.432,1.432,1.432,1.432,1.432,1.432,1.4347,1.4477,1.4407,1.432,1.432,1.4417,1.4504,1.4504,1.4586,1.4673,1.4673,1.4575,1.4504,1.4504,1.4407,1.432,1.432,1.432,1.432,1.432,1.432,1.432,1.432,1.432,1.432,1.432,1.432,1.432,1.432,1.4434,1.445,1.432,1.4548,1.4619,1.4504,1.4504,1.4504,1.4504,1.4434,1.439,0.9389,1.0003,1.0677,1.0851,1.159,1.2314,1.2449,1.2422,1.2471,1.2814,1.2928,1.2966,1.2988,1.2977,1.296,1.2944,1.2982,1.3015,1.3015,1.3086,1.3107,1.3026,1.3015,0.0,0.0,0.0,0.0,0.0,0.0,0.0,0.0,1.4069,1.4124,1.4195,1.4004,1.3917,1.3944,1.3841,1.3863,1.401,1.414,1.4195,1.4195,1.4276,1.432,1.432,1.432,1.432,1.432,1.432,1.4265,1.4195,1.4292,1.432,1.432,1.432,1.432,1.432,1.432,1.432,1.432,1.432,1.432,1.432,1.432,1.432,1.432,1.432,1.432,1.432,1.432,1.432,1.4336,1.4363,1.4347,1.432,1.432,1.4347,1.4379,1.4379,1.4407,1.4417,1.4417,1.439,1.4379,1.4379,1.4347,1.432,1.432,1.432,1.432,1.432,1.432,1.432,1.432,1.432,1.432,1.432,1.432,1.432,1.432,1.4347,1.4363,1.432,1.439,1.4407,1.4379,1.4379,1.4379,1.4379,1.4445,1.262,1.015,1.071,1.1248,1.158,1.208,1.2526,1.2645,1.2672,1.2732,1.2922,1.302,1.3064,1.3031,1.3053,1.3031,1.2906,1.295,1.2982,1.2933,1.3026,1.3075,1.3004,1.2999,0.0,0.0,0.0,0.0,0.0,0.0,0.0,0.0,1.4048,1.4042,1.414,1.3977,1.3879,1.3857,1.3809,1.3841,1.3955,1.408,1.4108,1.4069,1.4238,1.432,1.432,1.432,1.432,1.432,1.432,1.4276,1.4222,1.4292,1.432,1.432,1.432,1.432,1.432,1.432,1.432,1.432,1.432,1.432,1.432,1.432,1.432,1.432,1.432,1.432,1.432,1.432,1.432,1.432,1.432,1.432,1.432,1.432,1.432,1.432,1.432,1.432,1.432,1.432,1.432,1.432,1.432,1.432,1.432,1.432,1.432,1.432,1.432,1.432,1.432,1.432,1.432,1.432,1.432,1.432,1.432,1.432,1.432,1.432,1.432,1.432,1.432,1.432,1.432,1.432,1.432,1.4407,1.2825,1.1558,1.1824,1.2009,1.2808,1.2618,1.2352,1.2803,1.2906,1.2933,1.3047,1.3086,1.3129,1.3205,1.3145,1.3047,1.2922,1.2906,1.2868,1.2754,1.2835,1.2901,1.289,1.289,0.0,0.0,0.0,0.0,0.0,0.0,0.0,0.0,1.3912,1.3885,1.4097,1.3896,1.383,1.3923,1.3825,1.3836,0.0,1.4069,1.4069,1.3999,1.4222,1.432,1.432,1.432,1.432,1.4309,1.432,1.4309,1.4292,1.4309,1.432,1.4309,1.432,1.432,1.432,1.432,1.432,1.432,1.432,1.432,1.432,1.432,1.432,1.432,1.432,1.432,1.432,1.432,1.432,1.432,1.432,1.432,1.432,1.432,1.432,1.432,1.432,1.432,1.432,1.432,1.432,1.432,1.432,1.432,1.432,1.432,1.432,1.432,1.432,1.432,1.432,1.432,1.432,1.432,1.432,1.432,1.432,1.432,1.432,1.432,1.432,1.432,1.432,1.432,1.432,1.432,1.432,1.4336,1.4363,1.0498,1.1188,1.1933,1.2395,1.2623,1.2786,1.2988,1.3031,1.3037,1.3064,1.3216,1.3298,1.3134,1.3156,1.3162,1.3047,1.3031,1.302,1.2999,1.3015,1.2999,1.2901,0.0,0.0,0.0,0.0,0.0,0.0,0.0,0.0,1.3972,1.3863,1.3809,1.3863,1.3814,1.3754,1.3678,1.3656,1.3749,0.0,1.3983,1.408,1.4249,1.4292,1.432,1.432,1.432,1.4265,1.4178,1.4276,1.4211,1.4053,1.4249,1.4265,1.4195,1.4276,1.432,1.432,1.432,1.432,1.432,1.432,1.432,1.432,1.432,1.432,1.432,1.432,1.432,1.432,1.432,1.432,1.432,1.432,1.432,1.432,1.432,1.432,1.432,1.432,1.432,1.432,1.432,1.432,1.432,1.432,1.432,1.432,1.432,1.432,1.432,1.432,1.432,1.432,1.432,1.432,1.432,1.432,1.432,1.432,1.432,1.432,1.432,1.432,1.432,1.432,1.432,1.432,1.432,1.432,1.432,1.4336,1.0911,1.1514,1.2015,1.2493,1.2748,1.2922,1.3042,1.3113,1.3167,1.3227,1.3336,1.3368,1.3183,1.32,1.3162,1.2933,1.2944,1.296,1.2901,1.2944,1.296,1.2895,0.0,0.0,0.0,0.0,0.0,0.0,0.0,1.351,1.3934,1.3792,1.3727,1.3787,1.3732,1.3667,1.3602,1.3602,1.3722,1.3955,1.3955,1.408,1.432,1.432,1.432,1.432,1.432,1.4276,1.4238,1.4292,1.4249,1.414,1.4265,1.4276,1.4238,1.4292,1.432,1.432,1.432,1.432,1.432,1.432,1.432,1.432,1.432,1.432,1.432,1.432,1.432,1.432,1.432,1.432,1.432,1.432,1.432,1.432,1.432,1.432,1.432,1.432,1.432,1.432,1.432,1.432,1.432,1.432,1.432,1.432,1.432,1.432,1.432,1.432,1.432,1.432,1.432,1.432,1.432,1.432,1.432,1.432,1.432,1.432,1.432,1.432,1.432,1.432,1.432,1.432,1.432,1.432,1.432,1.4336,1.1417,1.1906,1.2167,1.277,1.2901,1.2928,1.3096,1.3189,1.3281,1.3423,1.345,1.3417,1.3292,1.3254,1.314,1.2846,1.2846,1.2857,1.2781,1.2835,1.289,1.289,0.0,0.0,0.0,0.0,0.0,0.0,0.0,1.3558,1.3879,1.3711,1.3651,1.3754,1.3656,1.3602,1.3602,1.3624,1.3743,1.3955,1.3999,1.4124,1.432,1.432,1.432,1.432,1.432,1.432,1.432,1.432,1.4309,1.4292,1.4309,1.4309,1.4292,1.4309,1.432,1.432,1.432,1.432,1.432,1.432,1.432,1.432,1.432,1.432,1.432,1.432,1.432,1.432,1.432,1.432,1.432,1.432,1.432,1.432,1.432,1.432,1.432,1.432,1.432,1.432,1.432,1.432,1.432,1.432,1.432,1.432,1.432,1.432,1.432,1.432,1.432,1.432,1.432,1.432,1.432,1.432,1.432,1.432,1.432,1.432,1.432,1.432,1.432,1.432,1.432,1.432,1.432,1.432,1.432,1.4336,1.0221,1.121,1.2292,1.2895,1.2966,1.2971,1.3303,1.3303,1.3303,1.3531,1.358,1.3542,1.3417,1.3308,1.3221,1.3172,1.3009,1.2917,1.3009,1.2944,1.289,1.289,0.0,0.0,0.0,0.0,0.0,0.0,1.3363,1.3488,1.3645,1.3624,1.3613,1.3629,1.3613,1.3602,1.3602,1.3711,1.383,1.3961,1.4167,1.4292,1.432,1.432,1.432,1.432,1.432,1.432,1.432,1.432,1.4265,1.4167,1.4276,1.4249,1.4178,1.4276,1.432,1.432,1.432,1.432,1.432,1.432,1.432,1.432,1.432,1.432,1.432,1.432,1.432,1.432,1.432,1.432,1.432,1.432,1.432,1.432,1.432,1.432,1.432,1.432,1.432,1.432,1.432,1.432,1.432,1.432,1.432,1.432,1.432,1.432,1.432,1.432,1.432,1.432,1.432,1.432,1.432,1.432,1.432,1.432,1.432,1.432,1.432,1.432,1.432,1.432,1.432,1.432,1.432,1.432,1.432,1.432,1.0487,1.1433,1.233,1.2999,1.3026,1.2982,1.3341,1.3325,1.3308,1.3553,1.3602,1.3564,1.3444,1.3319,1.3216,1.3156,1.2999,1.2906,1.296,1.2922,1.289,1.289,0.0,0.0,0.0,0.0,0.0,0.0,1.3352,1.3477,1.3597,1.3602,1.3602,1.3602,1.3602,1.3602,1.3602,1.3727,1.3879,1.4053,1.4238,1.432,1.432,1.432,1.432,1.432,1.432,1.432,1.432,1.432,1.4292,1.4249,1.4309,1.4292,1.4249,1.4309,1.432,1.432,1.432,1.432,1.432,1.432,1.432,1.4336,1.4407,1.4379,1.4336,1.4407,1.4379,1.432,1.432,1.432,1.432,1.432,1.432,1.432,1.432,1.432,1.432,1.432,1.432,1.432,1.432,1.432,1.432,1.432,1.432,1.432,1.432,1.432,1.432,1.432,1.432,1.432,1.432,1.432,1.432,1.432,1.432,1.432,1.432,1.432,1.432,1.432,1.432,1.432,1.432,1.432,1.432,1.432,1.432,1.432,1.0606,1.1351,1.196,1.2803,1.2906,1.2917,1.3363,1.3346,1.3308,1.3553,1.3602,1.3575,1.3482,1.3341,1.32,1.3091,1.2966,1.289,1.289,1.289,1.289,1.289,0.0,0.0,0.0,0.0,0.0,0.0,1.3401,1.351,1.3602,1.3602,1.3602,1.3602,1.3602,1.3602,1.3602,1.3754,1.395,1.4178,1.4276,1.432,1.432,1.432,1.432,1.432,1.432,1.432,1.432,1.432,1.432,1.432,1.432,1.432,1.432,1.432,1.432,1.432,1.432,1.432,1.432,1.432,1.432,1.4336,1.4434,1.439,1.4336,1.4434,1.439,1.432,1.432,1.432,1.432,1.432,1.432,1.432,1.432,1.432,1.432,1.432,1.432,1.432,1.432,1.432,1.432,1.432,1.432,1.432,1.432,1.432,1.432,1.432,1.432,1.432,1.432,1.432,1.432,1.432,1.432,1.432,1.432,1.432,1.432,1.432,1.432,1.432,1.432,1.432,1.432,1.432,1.432,1.4336,0.9851,1.0356,1.0922,1.2107,1.2477,1.2738,1.3433,1.3412,1.3308,1.3553,1.3602,1.3602,1.3597,1.3401,1.32,1.3091,1.2966,1.289,1.289,1.289,1.289,0.0,0.0,0.0,0.0,0.0,0.0,0.0,1.3526,1.3597,1.3602,1.3602,1.3602,1.3602,1.3602,1.3602,1.3602,1.383,1.4069,1.4309,1.432,1.432,1.432,1.432,1.432,1.432,1.432,1.432,1.432,1.432,1.432,1.432,1.432,1.432,1.432,1.432,1.432,1.432,1.432,1.432,1.432,1.432,1.432,1.432,1.4336,1.432,1.432,1.4336,1.432,1.432,1.432,1.432,1.432,1.432,1.432,1.432,1.432,1.432,1.432,1.432,1.432,1.432,1.432,1.432,1.432,1.432,1.432,1.432,1.432,1.432,1.432,1.432,1.432,1.432,1.432,1.432,1.432,1.432,1.432,1.432,1.432,1.432,1.432,1.432,1.432,1.432,1.432,1.432,1.432,1.432,1.432,1.432,0.9835,1.0226,1.0683,1.165,1.2102,1.2428,1.2917,1.3134,1.3308,1.3553,1.3602,1.358,1.3504,1.3352,1.3227,1.3183,1.3015,1.289,1.289,1.289,1.289,0.0,0.0,0.0,0.0,0.0,0.0,0.0,0.0,1.352,1.3602,1.3602,1.3602,1.3602,1.3602,1.3678,1.383,1.3912,1.4037,1.4205,1.4205,1.4205,1.4205,1.4205,1.4249,1.432,1.432,1.432,1.432,1.432,1.432,1.432,1.432,1.432,1.432,1.432,1.432,1.432,1.432,1.432,1.432,1.432,1.432,1.4336,1.4417,1.4379,1.4336,1.4417,1.4379,1.432,1.432,1.432,1.432,1.432,1.432,1.432,1.432,1.432,1.432,1.432,1.432,1.432,1.432,1.432,1.432,1.432,1.432,1.432,1.432,1.432,1.432,1.432,1.432,1.432,1.432,1.432,1.432,1.432,1.432,1.432,1.432,1.439,1.4407,1.432,1.439,1.4407,1.432,1.432,1.432,1.432,1.4407,1.439,0.9492,0.9867,1.0346,1.1188,1.1574,1.1949,1.271,1.2944,1.3113,1.352,1.3602,1.358,1.3499,1.3417,1.3319,1.32,1.3015,1.289,1.289,1.2922,1.2933,0.0,0.0,0.0,0.0,0.0,0.0,0.0,0.0,0.0,1.3597,1.3602,1.3602,1.3602,1.3602,1.37,1.3896,1.3901,1.3961,1.408,1.408,1.4097,1.414,1.414,1.4178,1.4265,1.4265,1.4276,1.432,1.432,1.432,1.432,1.432,1.432,1.432,1.432,1.432,1.432,1.432,1.432,1.432,1.432,1.432,1.4336,1.4417,1.439,1.4336,1.4417,1.4379,1.432,1.432,1.432,1.432,1.432,1.432,1.432,1.432,1.432,1.432,1.432,1.432,1.432,1.432,1.432,1.432,1.432,1.432,1.432,1.432,1.432,1.432,1.432,1.432,1.432,1.432,1.432,1.432,1.432,1.432,1.432,1.432,1.4434,1.445,1.432,1.4445,1.4461,1.4379,1.4336,1.432,1.432,1.4407,1.4407,0.0,0.0,0.0,1.0672,1.0889,1.1297,1.2819,1.2814,1.27,1.3428,1.3575,1.3586,1.3607,1.3607,1.3493,1.3145,1.2988,1.2901,1.289,1.2993,1.3026,0.0,0.0,0.0,0.0,0.0,0.0,0.0,1.3482,1.3471,1.3591,1.3602,1.3602,1.3602,1.3602,1.3662,1.3787,1.3787,1.3841,1.395,1.395,1.4015,1.414,1.4124,1.4135,1.414,1.414,1.4195,1.4309,1.432,1.432,1.432,1.432,1.432,1.432,1.432,1.432,1.432,1.432,1.432,1.432,1.432,1.432,1.432,1.432,1.432,1.432,1.432,1.432,1.432,1.432,1.432,1.432,1.432,1.432,1.432,1.432,1.432,1.432,1.432,1.432,1.432,1.432,1.432,1.432,1.432,1.432,1.432,1.432,1.432,1.432,1.432,1.432,1.432,1.432,1.432,1.432,1.432,1.432,1.432,1.432,1.4434,1.445,1.432,1.4445,1.4504,1.4504,1.4379,1.432,1.432,1.432,1.432,0.8927,0.0,0.0,0.0,0.0,0.0,1.127,1.1596,1.1976,1.2786,1.2955,1.3113,1.364,1.3667,1.3602,1.3591,1.3412,1.3183,1.2922,1.2993,1.3026,0.0,0.0,0.0,0.0,0.0,0.0,0.0,1.3308,1.3341,1.3466,1.3558,1.3602,1.3602,1.3602,1.3662,1.3787,1.3787,1.3803,1.3836,1.3836,1.3896,1.4004,1.3923,1.3977,1.414,1.4042,1.4026,1.4069,1.4151,1.4195,1.4195,1.4292,1.432,1.432,1.432,1.432,1.432,1.432,1.432,1.432,1.432,1.432,1.432,1.432,1.432,1.432,1.432,1.432,1.432,1.432,1.432,1.432,1.432,1.432,1.432,1.432,1.432,1.432,1.432,1.432,1.432,1.432,1.432,1.432,1.432,1.432,1.432,1.432,1.432,1.432,1.432,1.432,1.432,1.432,1.432,1.432,1.432,1.432,1.432,1.432,1.4434,1.445,1.432,1.4445,1.4461,1.4379,1.4336,1.4363,1.445,1.4363,1.4363,0.909,0.9237,0.9497,0.9666,0.0,0.0,1.1063,1.1362,1.1748,1.2786,1.2966,1.3086,1.3613,1.3651,1.3629,1.37,1.3673,1.352,1.3162,1.3216,1.3227,0.0,0.0,0.0,0.0,1.3064,1.3064,1.3298,1.3221,1.3243,1.3412,1.3537,1.3602,1.3602,1.3602,1.364,1.3711,1.3711,1.3711,1.3711,1.3711,1.377,1.3885,1.3819,1.3863,1.3988,1.3917,1.3885,1.3896,1.4015,1.4097,1.4151,1.4276,1.432,1.432,1.432,1.432,1.432,1.432,1.432,1.432,1.432,1.432,1.432,1.432,1.432,1.432,1.432,1.432,1.432,1.432,1.432,1.432,1.432,1.432,1.432,1.432,1.432,1.432,1.432,1.4363,1.4379,1.4336,1.4363,1.4379,1.4336,1.4363,1.4379,1.432,1.4363,1.4379,1.432,1.432,1.432,1.432,1.432,1.432,1.432,1.432,1.432,1.432,1.4434,1.445,1.432,1.4445,1.4445,1.432,1.432,1.4363,1.4417,1.4347,1.4363,0.9296,0.9443,0.9753,0.9938,0.9851,0.0,1.1406,1.1509,1.1667,1.289,1.3069,1.3091,1.339,1.3455,1.3461,1.3444,1.3689,1.3776,1.3482,1.3548,1.3531,0.0,0.0,0.0,1.3401,1.3211,1.3178,1.3385,1.3211,1.3189,1.3412,1.3526,1.3586,1.3586,1.3597,1.3602,1.3602,1.3602,1.3602,1.3602,1.3602,1.3667,1.3787,1.377,1.3781,1.3803,1.3792,1.3792,1.3814,1.3917,1.4026,1.4151,1.4276,1.432,1.432,1.432,1.432,1.432,1.432,1.432,1.432,1.432,1.432,1.432,1.432,1.432,1.432,1.4336,1.4336,1.432,1.4336,1.4336,1.432,1.432,1.432,1.432,1.432,1.4336,1.4336,1.4336,1.4417,1.445,1.4363,1.4417,1.445,1.4336,1.4417,1.4445,1.4336,1.4417,1.4445,1.4336,1.432,1.432,1.432,1.432,1.432,1.432,1.432,1.432,1.432,1.4417,1.4434,1.432,1.4434,1.4434,1.432,1.4336,1.4336,1.432,1.432,1.432,0.9688,0.9753,0.9916,0.9775,0.9921,0.0,0.9992,1.0221,1.0628,1.1275,1.1465,1.171,1.2335,1.2531,1.2569,1.2466,1.2971,1.3423,1.3553,1.3673,1.3662,0.0,0.0,0.0,1.3281,1.3232,1.3227,1.327,1.3232,1.327,1.3412,1.3444,1.3455,1.3455,1.3553,1.3602,1.3602,1.3602,1.3602,1.3602,1.3602,1.3667,1.3787,1.3684,1.3743,1.3917,1.3825,1.3841,1.3928,1.395,1.4026,1.4151,1.4276,1.432,1.432,1.432,1.432,1.432,1.432,1.432,1.432,1.432,1.432,1.432,1.432,1.432,1.4336,1.4434,1.439,1.4347,1.4445,1.439,1.432,1.432,1.432,1.432,1.432,1.4407,1.4461,1.4461,1.4407,1.4379,1.4461,1.4407,1.4347,1.432,1.4336,1.4347,1.432,1.4336,1.4347,1.432,1.432,1.432,1.432,1.432,1.432,1.432,1.432,1.432,1.432,1.4347,1.4347,1.432,1.4347,1.4347,1.432,1.4417,1.4417,1.432,1.432,1.432,1.0164,0.9976,1.0095,1.0041,1.0025,0.0,0.0,1.0204,1.0427,1.121,1.1226,1.1324,1.2042,1.2074,1.2053,1.2232,1.2765,1.3113,1.2999,1.3444,1.3716,1.3531,0.0,0.0,1.3428,1.3363,1.333,1.333,1.333,1.3357,1.3417,1.3477,1.3482,1.3423,1.3542,1.3602,1.3602,1.3602,1.3602,1.3602,1.3602,1.3635,1.3694,1.3635,1.3667,1.3776,1.3722,1.3792,1.395,1.3896,1.4015,1.4222,1.4238,1.4265,1.432,1.432,1.432,1.432,1.432,1.432,1.432,1.432,1.432,1.432,1.432,1.432,1.4336,1.439,1.4363,1.4336,1.439,1.4363,1.432,1.432,1.4363,1.4407,1.4407,1.4504,1.4586,1.4586,1.4488,1.4434,1.4488,1.4504,1.4461,1.4336,1.4379,1.439,1.4336,1.4379,1.439,1.432,1.432,1.432,1.432,1.432,1.432,1.432,1.432,1.432,1.432,1.432,1.432,1.432,1.432,1.432,1.432,1.4379,1.4379,1.432,1.432,1.432,1.0556,1.0313,1.0427,1.0367,1.0215,1.0182,0.0,0.0,0.0,1.1297,1.1183,1.1107,1.1688,1.159,1.1525,1.1819,0.0,0.0,0.0,1.2852,0.0,1.3336,0.0,0.0,0.0,1.3379,1.3357,1.345,1.3368,1.3341,1.3385,1.3526,1.3537,1.339,1.3526,1.3602,1.3602,1.3602,1.3602,1.3602,1.3602,1.3602,1.3602,1.3602,1.3618,1.364,1.364,1.376,1.395,1.3836,1.3983,1.4276,1.4178,1.4205,1.432,1.432,1.432,1.432,1.432,1.432,1.432,1.432,1.432,1.432,1.432,1.432,1.432,1.4347,1.4336,1.432,1.4347,1.4363,1.4347,1.432,1.4434,1.4515,1.4477,1.4575,1.4673,1.4646,1.4586,1.4532,1.4504,1.4559,1.4548,1.4347,1.4407,1.4434,1.4336,1.4407,1.4434,1.4336,1.432,1.432,1.432,1.432,1.432,1.432,1.432,1.432,1.432,1.432,1.432,1.432,1.432,1.432,1.432,1.432,1.432,1.432,1.432,1.432,1.1213,1.1058,1.1139,1.0405,1.0596,1.0732,0.9851,0.0,1.021,1.0221,0.0,1.0329,1.0411,0.0,0.0,0.0,1.0884,1.1346,1.0971,1.1656,1.2227,1.2324,1.3183,0.0,0.0,0.0,1.3124,1.3553,1.3189,1.3037,1.3249,1.3477,1.3499,1.3265,1.3482,1.3602,1.3602,1.3602,1.3602,1.3602,1.3602,1.3602,1.3602,1.3602,1.3662,1.3765,1.3765,1.3841,1.395,1.3836,1.3934,1.4151,1.414,1.4205,1.432,1.432,1.432,1.432,1.432,1.432,1.432,1.432,1.432,1.432,1.432,1.432,1.4347,1.445,1.4407,1.4347,1.4461,1.4488,1.4461,1.4347,1.4488,1.4602,1.439,1.4515,1.4646,1.4548,1.4586,1.4619,1.4515,1.4417,1.4347,1.432,1.4336,1.4336,1.432,1.4336,1.4336,1.432,1.432,1.432,1.432,1.432,1.432,1.432,1.432,1.432,1.432,1.432,1.432,1.432,1.432,1.432,1.432,1.432,1.432,1.432,1.432,1.432,1.1516,1.1589,1.1547,1.0727,1.093,1.0964,1.0191,0.99,0.9938,1.0095,0.0,0.0,0.0,0.0,0.0,0.0,1.0732,1.0976,1.04,1.1166,1.1857,1.2042,0.0,0.0,0.0,0.0,0.0,0.0,0.0,1.3053,1.3433,1.3482,1.345,1.3346,1.3444,1.3531,1.3602,1.3602,1.3602,1.3602,1.3602,1.3602,1.3602,1.3602,1.3635,1.3684,1.3754,1.3814,1.3857,1.3879,1.3944,1.4042,1.4108,1.4205,1.432,1.432,1.432,1.432,1.432,1.432,1.432,1.432,1.432,1.432,1.432,1.432,1.4336,1.4379,1.4363,1.4347,1.4477,1.4504,1.4504,1.4521,1.4602,1.4646,1.4548,1.4602,1.4646,1.4532,1.4548,1.4532,1.4417,1.4417,1.4407,1.4336,1.432,1.432,1.432,1.432,1.432,1.432,1.432,1.432,1.432,1.432,1.432,1.432,1.432,1.432,1.432,1.432,1.432,1.432,1.432,1.432,1.432,1.432,1.432,1.432,1.432,1.432,1.2194,1.2091,1.2185,1.0958,1.0998,1.1126,1.0329,0.9954,0.99,1.0193,1.0139,0.0,0.0,0.0,1.0106,1.0215,0.0,1.065,1.0052,1.0704,1.1308,1.1476,0.0,0.0,0.0,0.0,0.0,0.0,0.0,0.0,1.3526,1.3564,1.352,1.3423,1.3488,1.3548,1.3602,1.3602,1.3602,1.3602,1.3602,1.3602,1.3602,1.3602,1.3602,1.3607,1.37,1.3738,1.3749,1.3863,1.3912,1.3928,1.408,1.4195,1.4276,1.4309,1.432,1.432,1.432,1.432,1.432,1.432,1.432,1.432,1.432,1.432,1.432,1.432,1.4347,1.439,1.4477,1.4548,1.4619,1.4657,1.47,1.47,1.4646,1.4629,1.4586,1.4477,1.445,1.4417,1.4336,1.439,1.4417,1.4336,1.432,1.432,1.432,1.432,1.432,1.432,1.432,1.432,1.432,1.432,1.432,1.432,1.432,1.432,1.432,1.432,1.432,1.432,1.432,1.432,1.432,1.432,1.432,1.432,1.432,1.432,0.0,0.0,0.0,1.1324,1.1034,1.108,1.0109,1.0025,1.0221,1.0356,1.046,1.0465,1.0248,1.0204,1.0123,0.9894,1.0068,0.0,0.0,1.0079,1.0253,1.0259,1.0976,0.0,0.0,0.0,0.0,0.0,0.0,0.0,1.339,1.3754,1.3781,1.3433,1.3651,1.3722,1.3607,1.3602,1.3602,1.3602,1.3602,1.3602,1.3602,1.3602,1.3602,1.3602,1.3607,1.3607,1.3618,1.3743,1.3792,1.3814,1.4048,1.414,1.4151,1.4276,1.432,1.432,1.432,1.432,1.432,1.432,1.432,1.432,1.432,1.432,1.432,1.432,1.4407,1.4504,1.4504,1.4673,1.4814,1.47,1.476,1.4787,1.4559,1.4504,1.4477,1.4347,1.432,1.432,1.432,1.432,1.432,1.432,1.432,1.432,1.432,1.432,1.432,1.432,1.432,1.432,1.432,1.432,1.432,1.432,1.432,1.432,1.432,1.432,1.432,1.432,1.432,1.432,1.432,1.432,1.432,1.432,1.432,1.432,0.0,0.0,1.3578,1.181,0.0,0.0,0.0,1.0204,1.0378,1.0182,1.0427,1.0552,1.0155,1.0085,1.0057,0.997,1.003,0.9998,0.0,0.9796,0.9938,1.0177,1.0873,1.1335,1.134,0.0,0.0,0.0,0.0,0.0,0.0,1.358,1.3624,1.3662,1.3586,1.3602,1.3722,1.3645,1.3602,1.3602,1.3602,1.3602,1.3602,1.3602,1.3602,1.3607,1.3689,1.3678,1.3624,1.3906,1.3879,1.3705,1.4108,1.4167,1.4042,1.4249,1.432,1.432,1.432,1.432,1.432,1.432,1.432,1.432,1.432,1.432,1.432,1.432,1.4347,1.4407,1.4488,1.4559,1.4629,1.4657,1.4646,1.4602,1.4515,1.4434,1.4379,1.4336,1.432,1.432,1.432,1.432,1.432,1.432,1.432,1.432,1.432,1.432,1.432,1.432,1.432,1.432,1.432,1.432,1.432,1.432,1.432,1.432,1.432,1.432,1.432,1.432,1.432,1.432,1.432,1.432,1.432,1.432,1.432,1.432,1.4818,1.4609,0.0,1.2583,1.2307,0.0,1.0611,0.0,1.0683,1.0454,1.0547,1.0672,1.0661,1.0307,1.0074,1.0248,1.0095,0.9889,0.0,0.9742,0.9862,1.0052,1.0558,1.0965,1.1156,1.1427,0.0,0.0,0.0,0.0,0.0,0.0,1.3624,1.3781,1.3673,1.3667,1.3787,1.3711,1.3645,1.3602,1.3602,1.3602,1.3602,1.3602,1.3602,1.3607,1.3689,1.37,1.3689,1.3961,1.3939,1.377,1.4167,1.4195,1.4048,1.4249,1.432,1.432,1.432,1.432,1.432,1.432,1.432,1.432,1.432,1.432,1.432,1.432,1.4347,1.4407,1.4488,1.4532,1.4586,1.4657,1.4586,1.4504,1.4504,1.4407,1.432,1.432,1.432,1.432,1.432,1.432,1.432,1.432,1.432,1.432,1.432,1.432,1.432,1.432,1.432,1.432,1.432,1.432,1.432,1.432,1.432,1.432,1.432,1.432,1.432,1.432,1.432,1.432,1.432,1.432,1.432,1.432,1.432,1.432]}]]